GFSSGP_con_sbcape_000.txt.gz
CAPE
1850 1049 725 1102 741 7 8 114 22 72 94 179 190 219 108 158 21 0 41 373 847 1157 1311 1556 2043 2313 2183 2161 2215 2243 2525 2796 2662 2915 3075 3365 3436 3574 3490 3455 2861 2884 2527 2318 2425 2466 2423 2179 2292
933 890 933 990 311 0 0 55 106 35 131 222 456 377 239 197 128 57 328 630 978 1131 1200 1742 2496 2686 2346 2435 2477 2595 2835 2975 3318 3473 3480 3618 3856 3745 3299 2354 2347 2377 2377 2300 2191 2134 2167 2069 2141
506 592 915 1060 128 0 8 123 179 0 79 288 328 324 257 425 382 314 333 670 1024 1233 1423 1763 2583 2714 2468 2820 3050 3106 3107 3064 3345 3551 3590 3809 3484 2919 2469 2275 2199 2313 2286 2139 2069 1989 2009 1951 1922
436 174 476 621 0 0 96 228 228 65 72 628 728 519 466 551 480 417 428 671 1068 1523 1797 2747 2891 2525 2809 3122 3250 2962 2961 2936 3344 3589 3199 2996 2753 2129 2254 2294 2361 2359 2252 2102 2028 2015 2018 2037 2081
305 72 60 3 0 0 150 160 227 454 614 671 642 732 593 537 698 775 819 804 1039 1713 2185 2130 2698 2764 2641 3214 3619 3552 3422 3248 3213 3247 2902 3209 2981 2320 2371 2261 2107 2041 1944 1906 1912 1996 2059 2121 2155
5 0 16 37 14 0 102 204 404 1080 1014 852 730 719 600 660 1038 1080 964 1003 1201 1838 2369 2246 2528 2725 2947 3038 3128 3606 3443 3149 3168 3033 2956 3221 2914 2612 2336 2143 2038 1875 1708 1800 1831 2002 2169 2232 2314
0 7 36 27 12 51 228 307 682 1151 1090 1000 876 823 554 772 965 1139 1057 1157 1565 2297 2583 2644 2404 2305 2929 3489 3446 3221 3278 3094 3078 3129 3087 2709 2576 2233 2158 2133 2141 2003 1946 1939 2024 2306 2329 2491 2669
12 0 33 12 0 0 201 75 457 871 776 1141 817 980 713 601 958 1143 1124 1305 1562 2012 2576 2679 2668 2499 2663 2917 3245 2640 3201 3042 2772 2861 2619 2699 2308 2067 2117 1992 2583 2110 2195 2115 2003 2409 2556 2533 2463
5 65 4 27 0 4 0 108 376 462 1139 673 619 756 970 820 987 1241 1211 1307 1628 1750 2034 2244 2563 2568 2574 2833 2828 3217 2725 3025 2898 2667 2849 3069 1786 1318 166 1035 1064 1652 2153 2280 1969 2206 2404 2619 2279
17 17 4 12 19 27 0 23 165 523 630 608 778 812 1168 1191 1260 1282 1407 1429 1498 1689 1636 1847 1935 2152 2354 3002 2322 2389 2506 2590 2436 2405 2228 1739 1149 918 1163 749 475 859 1980 2168 1947 2097 1979 1915 1036
4 8 0 6 79 109 230 328 309 415 563 585 552 661 1313 1231 1323 1365 1417 1374 1539 1616 1676 1627 1971 1904 2132 2432 2032 1928 1885 2183 2044 1792 1566 1509 993 1110 811 629 857 860 1402 1432 1766 1782 1417 1263 832
32 0 15 7 160 87 193 52 9 247 412 527 471 819 1026 1111 1195 1475 1327 1253 1307 1369 1474 1746 1817 1791 1853 1960 2015 1870 1692 1643 1826 1593 1496 1340 938 547 800 767 1157 1073 935 1026 1071 924 932 839 647
0 2 15 52 7 46 35 0 199 366 422 340 321 533 680 961 1073 909 838 1134 1344 1293 1359 1665 1873 1769 1727 1787 1757 1770 1838 1863 1672 1524 1523 1389 1106 894 1324 1108 1163 956 971 666 850 630 635 636 605
19 31 48 29 61 52 0 3 5 519 428 331 307 333 410 492 632 519 453 829 1026 1333 1740 1898 1871 1778 1574 1438 1446 1479 1362 1400 1449 1276 1408 1438 1077 843 1219 870 716 604 691 802 831 733 667 633 491
23 2 0 26 61 198 330 355 128 355 451 411 396 382 378 368 275 438 614 586 612 893 1641 1678 1597 2083 1868 1784 1716 1296 1491 1107 1272 1211 1145 1112 1270 1075 901 660 479 509 508 650 655 460 340 329 459
0 0 0 0 56 161 253 289 105 399 391 353 407 405 414 324 236 299 575 459 351 794 1550 1622 1954 2179 1666 1763 1853 1988 1590 1440 1343 1145 987 972 1094 1078 762 449 388 446 396 469 263 84 124 130 198
0 0 0 0 0 78 175 263 123 78 176 255 303 326 324 224 189 197 310 387 351 604 1154 1356 1844 2029 1841 1901 2034 1873 1717 1545 1334 1349 966 1155 840 945 725 420 605 473 271 171 135 153 112 261 198
0 0 0 0 0 17 110 165 176 118 94 154 163 154 208 198 211 189 245 251 216 422 612 678 887 1823 2005 1862 1964 1756 1703 1188 1173 1234 947 925 677 915 935 574 631 499 489 383 328 300 80 156 211
0 0 0 0 0 97 73 136 214 210 220 247 280 291 313 201 161 167 241 283 452 602 691 660 947 1309 1689 1546 1522 1417 1254 960 965 853 1013 1051 755 906 806 828 791 734 631 511 402 334 315 240 141
0 0 0 0 0 0 100 146 168 241 351 390 413 497 494 515 268 306 509 668 660 674 725 1109 928 1505 1529 1520 1183 1327 1263 1233 1237 1359 1538 1025 905 973 901 1032 925 610 463 316 175 170 286 209 315
0 0 0 0 3 3 80 76 106 209 256 207 371 542 449 667 450 436 587 610 814 807 1181 1247 1409 1508 1515 1529 1417 1610 1326 1012 809 754 776 201 12 39 227 162 48 69 86 86 135 178 266 217 169
0 0 0 16 23 6 25 38 6 74 14 56 135 238 379 467 757 743 705 521 818 1134 1596 1514 1807 1946 1819 1496 1831 1593 674 196 37 165 110 0 0 0 0 0 47 82 28 146 186 411 325 248 170
0 0 0 43 28 6 14 15 37 0 0 0 57 162 262 253 874 950 855 688 951 1385 1934 1791 1959 2108 2110 1478 1800 357 0 0 4 0 0 0 0 0 0 101 15 0 0 0 182 58 184 117 189
0 0 0 0 0 7 9 6 0 2 16 0 1 215 188 207 758 1022 1072 552 1261 1556 1977 2118 1769 1577 932 357 30 0 0 0 0 0 0 0 0 0 0 0 0 0 0 1 0 65 114 79 83
0 0 0 0 0 0 0 19 0 0 13 1 0 135 182 185 239 634 535 624 1468 1721 1702 1978 1603 1146 18 0 0 0 0 0 0 0 0 0 0 0 0 0 0 0 0 0 1 8 0 24 27
0 0 0 0 0 0 0 0 0 10 14 2 1 106 165 125 147 245 166 471 1223 1604 1560 1750 1173 770 0 0 0 0 0 0 0 0 0 0 0 0 0 0 0 0 0 0 0 0 0 25 8
0 0 0 0 0 0 0 0 0 2 13 0 0 0 63 91 146 190 251 460 924 1319 1536 1692 910 443 14 0 0 0 0 1 0 0 0 0 0 0 0 0 0 0 0 0 0 4 69 7 0
0 0 0 0 0 0 0 0 0 31 28 15 0 0 0 46 155 184 259 452 1062 1189 1563 1705 923 528 117 8 0 0 8 11 0 0 0 0 0 0 0 0 0 0 0 0 0 0 0 0 2
0 0 0 0 0 0 0 0 0 32 22 27 17 15 0 21 38 195 269 392 1094 1200 1463 1711 1103 762 246 152 0 19 72 14 1 0 0 0 0 0 21 23 4 0 0 0 18 13 0 0 0
0 0 0 0 0 0 0 0 0 0 0 13 36 38 1 0 41 88 166 235 825 1063 1477 1611 1377 1015 593 362 123 159 236 66 21 16 2 0 0 0 0 0 0 0 0 1 13 49 45 34 45

GFSSGP_con_sbcape_003.txt.gz
CAPE
1538 854 655 989 579 14 70 59 52 27 72 170 238 121 127 74 15 0 14 201 461 621 465 873 1601 1566 1918 1933 2015 1960 1815 1834 2743 2783 3063 3197 2894 2863 2812 2689 2468 2236 2155 2239 2327 2287 2166 2158 1989
1018 910 926 920 2 3 35 43 21 18 166 340 393 258 217 163 95 216 288 870 1065 1110 1041 1304 1778 2349 1920 1847 2013 2479 2147 2107 2911 3115 3398 3325 3122 3374 2902 2333 2197 2111 2095 2046 1966 1940 1859 1893 2003
725 625 759 1114 5 37 48 31 0 118 486 461 283 260 267 186 232 268 322 843 1037 1142 1495 1791 2406 2151 2264 2414 2787 3023 2973 2849 3274 3260 3310 3376 3272 2632 2082 1892 1865 1964 1919 1857 1815 1785 1809 1822 1898
444 110 178 255 0 0 131 50 39 177 216 549 446 421 485 461 345 349 593 1015 1101 1455 1707 2345 2612 2360 2648 2492 3241 3201 3224 3253 3334 3551 3403 3021 2600 2219 2042 1938 2060 2009 1836 1725 1670 1677 1695 1766 1840
181 0 0 0 0 161 212 113 127 154 538 606 558 557 573 500 386 470 682 898 1224 1908 2000 2079 2910 3095 3350 3341 3062 3086 2986 3231 3458 3291 2657 2679 2304 2078 2073 2066 2029 1881 1808 1743 1759 1817 1845 1936 1847
2 0 0 0 2 236 223 150 196 743 844 627 551 546 626 685 491 688 779 964 1590 2126 2206 2339 2839 2928 3253 3077 3245 3319 3003 2548 2976 2500 2510 2535 2546 2457 2132 1928 1773 1653 1526 1625 1638 1802 1929 1988 2167
4 0 1 0 0 216 235 398 865 773 595 640 602 609 854 886 801 865 792 948 1610 2344 2279 2202 2312 2431 2772 3434 3424 3198 2910 2738 2417 2565 2516 2430 2452 2338 2095 1917 1792 1677 1691 1734 1804 2068 2200 2215 2433
0 0 0 0 19 55 192 244 892 726 915 810 587 455 633 939 1136 1013 1070 1326 2092 2344 2448 2319 2312 2284 2581 2920 2973 2607 2868 2484 2266 2363 2260 2336 2262 1899 1901 2061 2320 1927 2133 2103 2054 1885 2113 2302 2269
0 0 1 0 0 9 137 438 970 1051 890 547 683 580 577 1039 1158 1048 1258 1487 1745 2196 2285 2420 2496 2359 2544 2599 2453 2579 2376 2535 2568 2439 2596 2997 1814 1538 1086 1071 1426 1393 1926 2092 1865 1893 1830 1799 1988
14 1 1 0 2 99 56 436 604 836 665 750 783 712 814 1066 1210 1153 1228 1409 1552 1782 2113 2064 2325 2339 2380 2888 2683 2357 1844 2196 1969 2062 2214 1523 979 760 581 923 842 808 1465 1828 1722 1739 1774 1668 866
0 18 1 4 17 0 47 197 320 663 626 672 905 845 839 986 1224 1201 1317 1403 1266 1458 1828 1915 1852 2083 2169 2543 2286 2004 1885 1776 1718 1764 1736 1409 798 751 795 352 588 698 1141 1264 1167 1273 1004 835 667
0 2 0 1 60 0 40 151 533 463 545 594 991 955 952 1065 1256 1266 1409 1365 1322 1504 1569 1688 1950 2003 1959 1902 1995 1765 1752 1647 1686 1480 1416 1110 540 430 263 439 586 676 737 677 605 569 465 636 540
0 0 0 12 1 14 22 136 333 349 480 623 1077 1220 1154 1238 1334 1336 1474 1392 1440 1543 1653 1691 1999 1898 1950 1653 1893 1726 1606 1580 1483 1521 1301 1139 619 426 424 647 632 536 561 489 540 466 399 313 322
0 9 0 2 0 0 148 376 442 458 480 559 1197 1248 1228 1340 1370 1418 1407 1331 1354 1485 1482 1718 2022 1769 1703 1551 1640 1531 1537 1338 1352 1102 1257 1298 725 506 788 520 476 369 442 375 551 471 340 277 231
9 0 0 2 22 19 54 158 511 391 402 634 986 940 1091 1121 1305 1072 1028 1167 1329 1208 1238 1665 1981 1683 1646 1494 1010 853 997 915 1099 1082 989 1109 1010 713 645 472 235 204 230 228 254 111 1 0 17
1 0 16 27 64 38 137 194 507 337 273 330 405 541 705 833 872 499 540 873 999 1093 1465 1673 2085 1870 1683 1528 1296 1043 1127 872 879 846 667 686 882 818 579 220 235 207 146 131 117 1 1 10 0
0 0 0 21 34 53 86 69 452 328 199 213 252 308 374 280 360 396 473 587 393 707 1400 1480 1747 1974 1623 1615 1465 1243 1191 1012 915 828 606 606 578 701 536 115 111 132 141 95 21 1 2 34 10
0 0 0 15 33 0 30 80 337 296 191 185 185 203 244 302 173 254 434 453 223 555 1229 1468 1644 1850 1610 1526 1351 1340 1310 1121 1051 900 534 458 557 598 514 469 347 313 227 152 66 98 13 9 20
0 0 0 0 0 10 40 46 185 232 118 113 168 169 168 193 170 88 286 406 178 317 835 1027 1149 1549 1560 1402 1442 1307 1327 956 761 743 808 597 395 666 455 413 372 273 261 211 143 112 134 185 38
0 0 0 0 0 29 36 69 61 59 53 41 53 66 116 130 105 72 132 169 144 240 518 517 722 1065 1602 1349 985 1093 964 809 809 731 944 940 584 605 505 482 461 528 268 110 32 52 84 128 168
0 0 0 0 0 43 73 66 106 83 84 61 81 92 89 73 81 68 103 115 214 280 441 566 537 1017 1443 1288 930 1120 1075 960 946 827 1129 805 704 759 532 428 307 5 0 0 0 6 28 89 89
0 0 0 0 0 1 53 21 67 119 152 196 217 210 196 169 111 79 151 251 319 320 510 665 707 1165 1329 1157 1180 1359 1435 1053 145 137 464 181 15 2 10 0 0 0 0 0 0 197 152 40 41
0 0 0 0 0 2 13 7 39 57 131 174 203 187 300 361 171 121 182 292 423 485 837 882 1094 1416 1495 1301 1445 1236 551 0 0 0 85 0 0 0 0 0 0 0 0 0 10 0 29 11 35
0 0 0 0 0 0 4 0 0 33 112 134 90 126 363 266 434 215 214 287 425 719 1132 1395 1442 1575 1660 1492 1445 1069 141 0 0 0 0 0 0 0 0 0 0 0 0 0 0 0 0 0 8
0 0 0 0 0 0 0 0 0 1 68 90 63 41 216 284 514 502 491 419 519 977 1298 1628 1616 1609 1498 1368 901 359 0 0 0 0 0 0 0 0 0 0 0 0 0 0 0 0 0 0 0
0 0 0 0 0 0 0 0 0 0 12 39 35 17 130 193 248 661 741 604 603 1168 1399 1711 1748 1601 852 373 83 0 0 0 0 0 0 0 0 0 0 0 0 0 0 0 0 0 0 0 0
0 0 0 0 0 0 0 0 0 0 2 3 0 0 61 142 138 661 828 619 728 1170 1440 1676 1840 1654 521 40 0 0 0 0 0 0 0 0 0 0 0 0 0 0 0 0 0 0 0 0 0
0 0 0 0 0 0 0 0 0 0 0 0 0 0 11 119 115 415 775 475 882 1188 1442 1524 1731 1662 619 0 0 0 0 0 0 0 0 0 0 0 0 0 0 0 0 0 0 0 0 0 0
0 0 0 0 0 0 0 0 0 0 0 0 0 0 2 54 93 188 424 373 628 1148 1407 1475 1496 1383 674 36 0 0 0 0 0 0 0 0 0 0 0 0 0 0 0 0 0 0 0 0 0
0 0 0 0 0 0 0 0 0 0 0 0 2 0 0 2 60 132 228 321 347 678 1081 1344 1406 1109 687 154 3 0 0 0 0 0 0 0 0 0 0 0 0 0 0 0 0 0 0 0 0

GFSSGP_con_sbcape_006.txt.gz
CAPE
1576 1053 608 955 187 1 8 5 11 48 95 107 111 91 86 58 16 1 3 95 280 265 336 950 1882 1184 1088 1195 1198 1107 1251 1847 2325 2701 2658 2351 2326 2442 2172 2165 2275 2190 2030 2025 2134 2161 2145 2096 1819
886 663 872 599 0 2 7 6 0 30 171 209 207 147 170 96 140 135 136 562 629 518 479 772 1685 1669 1344 1440 1937 1669 1539 1946 2444 2667 2907 2652 2581 2331 2203 2159 2036 1942 1972 1972 1979 1895 1766 1811 1812
834 364 766 679 0 2 17 16 93 273 335 336 259 262 191 158 206 185 304 810 945 873 907 1178 1705 1866 1840 1986 2058 2645 2494 2372 2426 2689 2559 2703 2712 2358 2019 1889 1909 1955 1876 1767 1688 1691 1732 1722 1767
355 199 81 4 0 0 30 23 233 376 450 328 284 433 430 241 252 318 740 953 991 1099 1120 1957 1968 1877 2009 2108 2556 2296 2468 2821 2908 3103 2497 2556 2214 1936 1833 1701 1831 1819 1703 1607 1529 1555 1617 1727 1771
25 1 0 0 5 171 79 42 155 223 556 460 437 436 341 383 383 572 838 863 1190 1406 1608 1710 2446 2416 2232 2235 2320 2834 2773 2735 2960 2966 2394 2346 2098 2019 1975 1998 1958 1829 1723 1677 1650 1683 1678 1745 1778
0 0 0 0 16 204 84 26 162 676 637 461 382 349 516 390 350 666 772 839 1527 1690 1764 1953 2290 2358 2464 2621 2473 2788 2897 2826 3000 2256 2309 2199 2182 2059 1997 1879 1700 1581 1521 1600 1591 1734 1842 2024 2127
73 0 2 0 165 239 177 264 647 667 542 485 430 335 641 425 539 692 749 1166 1809 1976 1868 1997 2076 2257 2497 2959 2713 2625 2588 2374 2455 2183 2448 2405 2051 2262 2103 1936 1780 1645 1636 1728 1880 1847 2120 2140 2283
0 0 1 0 145 216 186 546 664 433 642 534 341 335 370 530 739 696 823 1254 1875 2022 1983 1942 1964 1944 2217 2110 2221 2134 2219 1889 2226 2354 2347 2411 2353 2139 1919 1784 2048 1942 1994 2243 2156 1674 1843 2013 1866
0 2 0 0 26 35 156 699 629 741 634 568 518 330 488 819 865 826 999 1469 1657 1814 1966 1937 1933 1793 2001 2159 2078 2070 2201 2044 1998 2017 2201 2326 1572 1430 1795 1185 1634 1774 1725 1877 2051 1721 1713 1893 1555
3 1 2 0 0 110 131 704 731 596 521 629 525 683 943 1020 938 875 805 887 1183 1416 1820 1907 1943 2009 2054 2682 2065 1751 1577 1730 1806 1796 1689 1613 1160 975 233 1198 1179 1133 995 1849 1948 1661 1843 1406 987
0 0 0 0 0 96 83 579 354 363 433 590 492 822 1050 1051 967 954 814 761 997 1331 1679 1740 1822 1880 2054 2310 2009 1620 1597 1381 1552 1578 1584 1368 749 601 908 372 512 668 1291 1146 1254 1018 878 849 764
0 0 0 0 0 41 55 127 454 231 284 502 479 767 1050 1092 1059 987 867 996 983 1261 1575 1632 1581 1782 1798 1614 1842 1421 1616 1503 1379 1267 1297 1151 551 439 366 470 652 695 754 681 624 663 717 685 601
0 0 0 0 0 0 12 139 397 161 371 594 551 842 919 993 1099 1048 1004 1126 983 1144 1372 1432 1548 1708 1798 1561 1601 1505 1330 1530 1432 1241 1142 1047 559 308 231 590 724 666 625 593 669 684 575 448 502
0 0 1 0 0 0 45 196 311 291 677 797 638 737 825 882 1079 1058 1204 1169 1114 1154 1256 1363 1541 1665 1654 1520 1473 1465 1237 1282 1222 1077 1174 1159 542 468 410 504 532 486 521 457 671 610 436 200 160
0 0 0 0 0 71 88 206 194 374 684 934 914 896 889 984 1178 1099 1220 1167 1122 1205 1271 1375 1510 1689 1476 1460 1052 850 1152 1079 1046 1053 989 811 726 468 437 427 364 383 214 278 264 212 34 71 101
0 0 7 0 0 25 22 54 384 380 523 861 1034 1037 1036 1064 1174 1144 1175 1129 1050 1126 1089 1205 1719 1712 1222 1300 977 846 820 869 821 935 803 843 1031 813 522 328 189 221 231 171 209 79 98 130 77
0 0 0 2 0 29 31 49 339 292 417 713 976 938 956 995 914 1034 906 931 950 904 993 1105 1563 1730 1480 930 961 1092 1014 764 615 594 471 525 691 786 591 176 172 205 255 197 117 69 49 127 115
0 0 0 12 16 28 22 57 298 212 223 366 461 436 670 664 661 622 367 602 727 663 946 1176 1446 1553 1270 1174 966 780 804 758 686 706 370 452 511 613 511 297 309 284 252 133 57 71 36 49 56
0 0 1 0 2 15 24 54 311 192 156 165 136 159 292 286 276 260 226 337 309 307 736 1049 1243 1423 1294 1169 1150 1051 1110 898 775 596 623 495 337 602 481 429 260 167 209 173 117 94 109 142 7
0 0 0 0 0 13 25 55 229 205 156 111 97 91 91 150 74 24 109 257 106 160 615 840 1121 1214 1361 1039 915 995 894 683 681 539 555 626 597 530 369 312 234 250 192 43 0 37 66 99 136
0 0 0 0 0 6 33 34 65 171 163 116 77 68 49 54 50 16 19 155 152 100 307 648 792 1066 1218 1059 681 723 688 740 759 761 893 935 543 554 453 297 263 94 0 7 0 0 6 115 90
0 0 0 0 5 1 17 0 14 57 108 90 75 54 51 48 68 40 25 41 135 114 177 431 532 685 812 892 944 1103 1120 1144 670 408 710 718 454 343 80 4 0 0 0 0 0 37 57 29 50
0 0 0 0 0 3 20 0 0 28 41 73 82 60 62 41 49 58 42 34 40 121 178 259 319 333 753 890 1059 1004 814 587 0 0 153 115 0 0 0 0 0 0 0 0 0 3 18 0 26
0 0 0 0 0 0 0 0 0 4 79 110 121 123 122 87 77 64 42 32 65 106 220 340 396 534 814 907 928 911 793 105 0 0 45 0 0 0 0 0 0 0 0 0 0 0 0 0 6
0 0 0 0 0 0 0 0 0 0 48 86 101 131 164 156 137 97 63 77 106 210 354 567 569 690 999 1115 1096 999 620 13 0 0 0 0 0 0 0 0 0 0 0 0 0 0 0 0 0
0 0 0 0 0 0 0 0 3 0 0 33 37 90 105 161 230 185 116 133 157 340 445 693 791 841 1114 1333 1266 1032 334 0 0 0 0 0 0 0 0 0 0 0 0 0 0 0 0 0 0
0 0 0 0 0 0 0 0 0 0 0 0 16 49 58 135 218 361 223 184 216 349 546 783 1006 1060 1112 1179 1084 328 13 0 0 0 0 0 0 0 0 0 0 0 0 0 0 0 0 0 0
0 0 0 0 0 0 0 0 0 0 0 0 0 5 21 69 251 328 430 391 368 417 625 843 1083 1221 1179 963 564 187 0 0 0 0 0 0 0 0 0 0 0 0 0 0 0 0 0 0 0
0 0 0 0 0 0 0 0 0 0 0 0 0 2 0 8 113 200 567 651 577 547 653 895 1177 1370 1273 731 220 56 0 0 0 0 0 0 0 0 0 0 0 0 0 0 0 0 0 0 0
0 0 0 0 0 0 0 0 0 0 0 0 0 0 0 0 84 126 559 715 741 671 709 980 1230 1445 1524 852 123 8 0 0 0 0 0 0 0 0 0 0 0 0 0 0 0 0 0 0 0

GFSSGP_con_sbcape_009.txt.gz
CAPE
1721 1525 936 1162 201 54 84 100 91 142 122 241 56 33 101 106 25 79 69 217 288 398 453 777 1522 1142 1114 1105 970 1379 1417 1807 2178 2647 2394 1864 1493 1827 1953 2219 2270 2112 1993 2023 2058 1978 2013 1902 1835
740 980 1093 821 45 13 57 58 167 122 243 217 238 227 164 100 100 106 221 370 443 563 497 521 1380 1401 1296 1345 1422 1280 1750 1673 2390 2675 2252 2067 1995 1890 1959 2051 1925 1951 2057 1998 1879 1735 1680 1749 1705
919 555 1168 322 7 0 30 55 245 343 342 228 297 263 129 147 116 151 279 517 651 866 745 918 1364 1389 1412 1435 1426 1559 2112 1881 1913 2060 2145 2074 2083 2162 2103 1937 1896 1962 1898 1776 1655 1586 1565 1599 1656
654 531 231 1 0 11 55 108 424 538 510 410 180 134 266 217 168 300 510 670 775 954 842 1430 1724 1815 1699 1714 1646 1945 2414 2132 2565 2247 2211 2239 2185 1878 1775 1730 1839 1839 1732 1653 1554 1588 1657 1777 1720
154 56 0 6 59 239 73 270 567 549 629 380 314 192 197 597 472 447 674 716 787 994 1254 1562 1955 1867 1841 1998 2125 2611 2547 2148 2610 2284 2150 2178 1994 1946 1877 1992 1978 1864 1740 1640 1620 1646 1735 1781 1872
83 3 5 16 196 267 145 288 512 796 670 448 251 180 383 728 365 556 662 772 771 1037 1245 1486 1818 1956 2158 2163 2256 2589 2643 2216 2473 2219 2252 2153 2084 2079 2002 1926 1723 1634 1557 1609 1756 1882 2039 2047 2105
87 47 64 93 357 313 184 284 604 696 599 439 260 336 727 570 342 624 696 989 1073 1131 1329 1750 1956 2206 2399 2946 2272 2453 2529 2429 2250 2355 2219 2176 2257 2180 2104 1946 1838 1723 1694 1884 2120 1875 1873 2005 2072
28 12 33 73 336 234 286 425 736 552 567 519 393 378 465 627 436 694 755 1058 1308 1340 1565 1918 2027 2160 2181 2022 2194 2139 2352 2332 2235 2087 2316 2331 2275 2255 2108 1811 1893 1928 2027 2053 2207 1791 1705 1760 1779
5 31 30 24 245 279 433 413 799 690 735 548 542 533 346 726 575 596 855 1131 1449 1579 1943 1994 1864 2261 2479 2137 2045 2026 2148 2066 2044 2121 2124 2005 1883 1783 1729 1391 1559 1479 1607 1622 2042 1675 1819 1847 1467
14 54 24 3 100 310 471 539 836 872 680 552 734 722 802 946 621 530 648 912 1131 1307 1670 2026 2202 2151 2090 1472 2121 2262 1641 1514 1653 1994 1917 1855 1916 2088 1662 955 1317 1190 1180 1693 1828 1868 1621 1335 1452
19 27 9 10 0 289 502 597 815 694 572 552 824 1016 954 971 718 619 547 640 801 1171 1396 1859 2136 2408 2288 2456 2335 2884 2176 2132 1859 2064 2027 2366 1767 1706 1657 1412 1110 830 1513 1550 1441 1512 1465 1653 1580
0 0 0 1 27 243 485 660 598 532 178 422 841 995 1009 916 832 663 621 700 814 1105 1378 1565 2004 2405 2454 2575 1968 2316 1739 1901 1620 1816 2253 2482 2399 1609 1598 1296 1442 1943 1593 1671 1580 1512 1715 1531 1254
0 0 0 0 74 159 421 599 449 501 277 675 917 1004 972 923 911 873 851 757 937 1069 1543 1794 1972 2303 2473 2376 1893 1830 2153 1497 1546 1957 1840 1736 2243 1938 1759 1572 1667 1769 1514 1492 1559 1638 1613 1401 929
0 0 0 0 66 109 292 401 363 360 764 851 981 1000 962 989 1054 1213 1211 1056 1059 1048 1372 1795 2125 2434 2462 2333 2512 2402 2194 2426 1976 2066 1754 1976 1837 2806 2385 1700 1723 1511 1487 1286 1435 1470 1245 993 1000
0 8 18 8 1 99 291 438 396 394 858 844 861 907 967 1053 1172 1295 1189 1119 1296 1278 1129 1331 1693 2125 2494 2575 2762 2495 2244 2054 1730 1746 2073 2137 2145 2253 2204 2251 2124 1636 1391 1353 1217 1217 953 845 601
0 10 27 9 31 149 115 47 374 666 886 721 671 751 872 921 1040 1227 1301 1281 1525 1417 1353 1234 1108 1457 2027 2235 2536 2151 2165 2149 2044 2955 2608 2027 2160 2267 2332 2700 2268 1386 1427 1184 1271 1166 982 794 535
0 9 23 22 24 151 98 62 339 688 797 788 701 714 816 920 1089 1355 1422 1553 1604 1766 1799 1761 1916 2013 2460 2628 2518 2695 2331 2553 2641 2207 2150 2258 2059 2141 2460 2453 1960 1526 1402 1527 1246 972 992 498 372
0 13 18 57 24 139 83 132 476 589 694 816 922 893 949 1066 1349 1517 1591 1553 1663 1736 1931 2066 2022 2384 2766 2999 2779 2898 2694 2724 2545 2154 2019 2006 2031 1874 1787 1837 1727 1550 1482 1213 1003 1092 859 740 684
0 44 77 52 33 49 91 88 438 520 555 691 1004 1071 1058 1022 1051 1282 1482 1473 1584 1707 1818 2050 2173 2478 2596 2422 2477 2431 2273 2525 2228 2420 2100 1799 1848 1785 1798 2063 1766 1514 1192 1062 1123 807 700 407 648
0 23 68 17 34 57 53 57 203 527 500 522 662 847 904 977 1084 1201 1317 1216 1253 1541 1680 2002 2274 2534 2805 2474 2596 2457 2484 2430 2247 2298 2290 2083 1889 1962 1931 1796 1432 1237 917 1104 702 748 433 478 693
0 7 23 23 8 38 75 35 100 448 487 419 422 475 533 615 785 852 963 1077 1089 1247 1496 1802 2428 2705 2684 2728 2607 2494 2356 2283 2311 2291 2222 2094 2001 1927 1798 1517 1168 1164 684 130 585 462 664 443 566
0 0 19 45 30 11 48 23 54 197 528 515 477 404 391 409 507 563 693 859 1021 1090 1175 1642 2141 2631 2603 2790 2501 2566 2281 2242 2228 2096 2045 2114 2099 1800 1655 1405 738 791 273 595 481 372 638 641 228
0 0 0 8 42 1 37 2 0 131 287 571 560 494 400 367 385 462 566 647 788 993 1033 1225 1973 2486 2537 2702 2917 2613 2579 2369 2186 1611 1846 2350 2095 1770 1250 748 522 528 466 704 321 631 471 415 276
0 0 0 0 0 0 0 4 0 112 197 253 364 414 429 377 395 446 496 503 611 783 911 1133 1889 2371 2242 2341 2641 2681 2646 2580 1949 1284 1017 1348 1548 1089 571 301 383 623 662 536 237 384 397 374 447
0 0 0 0 0 0 0 2 10 21 115 156 167 240 284 321 338 403 537 554 654 879 1003 1192 1916 2206 1797 2027 2318 2461 2585 2787 2345 1857 1050 1003 1145 740 262 306 357 471 647 306 248 350 368 281 288
0 0 0 0 0 0 0 0 3 47 43 64 121 155 182 218 268 380 532 864 869 911 1065 1210 1767 2178 1823 1881 2507 2649 2770 2438 2095 1660 1002 906 934 637 265 314 359 530 173 86 220 219 223 261 217
0 0 0 0 0 0 0 0 0 0 2 3 51 109 229 307 476 528 605 693 1070 1171 1521 1704 1985 2183 1887 1858 2448 2457 2596 2406 2059 1342 819 821 793 244 256 293 396 178 0 52 271 63 214 316 385
0 0 0 0 0 0 0 0 0 7 11 54 22 134 258 448 606 661 969 891 1146 1157 1383 1516 1913 2172 2138 1882 2244 2368 2462 2266 2119 1355 569 487 438 230 293 326 182 50 4 18 264 91 83 195 186
0 0 0 0 0 0 0 0 0 4 150 74 59 93 253 464 748 993 1076 1044 1166 1218 1321 1593 1621 1992 1980 2082 2552 2518 2250 1925 1821 1224 342 274 334 275 308 329 123 81 48 65 168 226 97 100 226
0 0 0 0 0 0 0 0 0 0 0 2 41 24 77 520 872 862 1027 1107 1106 1329 1210 1420 1521 1625 2266 2435 2502 2125 1902 1710 874 1157 145 356 24 210 205 242 194 147 103 145 270 228 0 153 306

GFSSGP_con_sbcape_012.txt.gz
CAPE
1570 1706 2062 2303 1149 157 105 179 142 213 239 268 10 21 164 233 235 449 403 519 504 607 625 805 1091 956 803 977 1184 1395 1810 1563 2211 2146 1646 1497 1832 2008 2236 2256 2027 1997 1997 1999 1855 1670 1691 1720 1691
1907 1690 1585 1295 109 76 206 165 238 330 244 191 227 137 226 246 250 384 595 556 468 417 537 745 1280 1220 844 1020 1280 1569 1250 1329 1856 1735 1457 1604 1759 1918 2045 1892 1840 1945 1921 1813 1748 1676 1632 1620 1641
1130 1034 1159 28 9 92 180 283 393 319 189 237 362 334 215 302 316 427 650 754 639 640 523 872 1249 1306 1227 1231 1361 1735 1637 1728 1860 1647 1575 1690 1828 2167 2000 1785 1852 1863 1762 1644 1507 1442 1527 1699 1730
793 973 956 35 0 0 104 392 552 488 374 284 215 317 322 298 412 597 776 934 886 920 796 858 1174 1467 1455 1479 1623 1800 1888 1906 1836 1669 1757 2044 2182 1883 1690 1737 1819 1684 1593 1555 1579 1607 1645 1674 1775
923 447 32 8 0 0 58 404 628 569 430 297 208 182 413 644 534 830 1052 1072 1093 1041 1046 884 1756 1705 1715 1742 1867 2006 1744 1887 1966 2048 2070 2213 1919 1871 1814 1969 1806 1608 1552 1591 1600 1789 1850 1908 1989
636 134 91 38 11 28 114 359 602 638 673 453 212 438 689 523 769 961 1118 1191 1188 1194 1311 1604 1984 2042 2024 2035 2216 2330 1987 2122 2233 2119 2102 2088 2065 2072 2002 1859 1625 1581 1534 1610 1989 1907 1879 1814 1972
314 112 82 105 28 38 71 223 454 670 716 483 214 545 804 537 831 996 1025 1049 1100 1264 1448 1667 1866 2255 2205 2226 2503 2311 2149 2057 1874 2037 2102 2040 2127 2071 2039 1927 1788 1730 1736 2038 2027 1623 1656 1690 1601
279 115 66 72 138 53 51 206 419 419 687 437 227 534 751 494 677 803 970 1104 1217 1297 1619 1546 1753 1796 1854 2090 2189 2301 2065 1745 1835 2044 2001 2077 2152 2060 1909 1880 1798 1713 1844 1754 1968 1609 1652 1707 1715
273 188 117 104 159 266 172 200 418 462 724 571 509 350 474 407 603 775 1102 1240 1284 1309 1398 1778 1707 2052 2027 1338 1581 1945 2052 2116 1950 1964 2039 1793 1325 1716 1540 1525 1320 1535 1549 1450 1727 1565 1839 1640 1482
66 223 122 42 48 324 223 226 517 635 651 572 730 599 546 475 742 859 1086 1297 1502 1718 1581 1483 1779 1912 1605 1256 1826 1822 1447 1195 1118 1141 1366 1149 1415 1710 1589 1277 1227 1216 1306 1538 1628 1616 1666 1666 1357
0 70 87 35 5 227 315 319 497 272 534 451 748 872 734 664 773 892 1040 1210 1294 1405 1537 1448 1524 1833 1618 1500 1709 1672 1470 1374 1507 1775 1416 1340 1532 1682 1873 1651 1524 1208 1260 1866 1707 1747 1505 1631 1500
0 0 0 0 0 224 359 372 430 237 175 317 557 891 836 814 693 709 877 1001 1145 1344 1339 1502 1562 1772 1720 1847 1664 1645 1434 1375 1131 1146 1741 1849 1511 1731 1983 1559 1500 1866 1469 1640 1602 1525 1708 1642 1554
0 0 0 0 0 111 366 438 414 350 316 487 706 917 810 817 684 718 685 741 927 1289 1413 1446 1749 2132 2157 2222 1512 1453 1389 1208 1053 1198 1464 1391 1437 1650 1471 1651 1896 1617 1637 1502 1589 1604 1676 1655 1273
0 0 0 0 25 206 382 562 523 362 362 730 918 1001 871 827 810 831 760 801 952 1069 1284 1608 1749 2111 2197 2128 1887 1671 1530 1306 1399 1195 1224 1716 1553 2086 1606 1606 1505 1729 1798 1496 1572 1660 1641 1514 1327
0 0 4 0 244 353 363 650 569 455 622 1049 1017 1013 895 840 875 969 994 1036 1025 1103 1161 1647 1933 2013 2327 2316 2337 2191 1710 1541 1376 1274 1780 2080 2304 2006 1705 1526 1524 1499 1759 2028 1875 1612 1490 1344 929
0 0 20 120 280 401 455 322 491 731 756 994 922 979 831 856 845 994 1123 1145 1114 1165 1246 1436 1488 1767 2138 2226 2279 2018 1609 1742 2448 1794 1973 1769 1993 1974 1874 1714 1566 1339 1604 1665 1582 1596 1283 707 343
0 1 11 207 245 394 453 206 462 776 829 1001 801 674 734 864 974 1165 1129 1120 1127 1443 1579 1527 1436 1342 1815 2333 2309 2195 2174 2501 2181 2195 2226 1870 1958 1852 1944 1693 1729 1719 1622 1638 1590 984 643 128 21
0 0 24 36 218 342 348 296 507 769 712 770 925 659 605 681 828 1057 1179 1407 1387 1600 1855 1848 1673 1890 2277 3414 2989 2580 2057 1871 1757 2529 2542 2371 2079 1786 1825 1698 1589 1669 1720 1599 847 739 339 182 19
2 19 46 53 178 271 184 152 409 792 773 714 990 927 641 469 556 954 1326 1418 1456 1773 2024 2317 2327 2500 3170 1872 1703 1902 1763 1749 1844 1952 2177 2264 2149 1971 2048 1713 1608 1809 1498 1001 674 290 22 2 47
0 3 40 88 154 179 140 198 211 441 810 680 794 987 1039 654 555 967 1331 1362 1395 1757 2132 2421 2616 2778 3006 2132 2923 2108 2023 1678 1973 2019 2159 2279 2176 2215 2012 1915 1748 1606 728 801 226 112 18 9 200
0 0 18 99 144 180 106 187 170 125 491 662 689 674 1003 877 719 794 985 1236 1320 1541 2085 2427 2770 2950 3081 2717 2701 2840 2644 2642 2220 2060 2150 2323 2430 2386 2300 2086 1442 1315 479 3 212 174 105 26 206
0 0 4 75 109 114 137 108 55 97 315 567 756 684 535 888 923 861 906 1048 1264 1445 1774 2375 2759 3069 3122 3316 3351 3277 2197 1466 1050 1153 944 1112 1734 1868 1772 1764 1347 420 0 62 261 107 202 320 16
0 0 0 26 77 93 123 135 31 38 127 379 694 768 537 303 627 852 878 858 1117 1303 1583 2049 2734 3268 3227 3301 3808 2905 2904 1531 1336 1260 1286 1377 1652 1448 1174 1583 587 303 139 403 341 210 278 110 70
0 0 9 29 44 83 89 74 4 11 133 87 300 605 673 232 213 433 621 730 996 1172 1404 1669 2739 3672 3255 3276 3388 3356 2719 2198 1371 1648 1280 790 876 1304 1341 1506 479 348 186 482 409 214 208 244 221
0 0 21 42 45 43 41 47 0 0 10 29 36 273 678 321 216 296 487 724 1008 1201 1354 1584 2372 3316 3058 3118 3106 3320 3293 3039 2695 2398 1476 672 597 545 1139 1643 578 298 741 561 326 304 170 253 172
0 0 7 44 29 32 15 4 0 27 9 0 20 67 493 485 170 271 468 694 1002 1131 1359 1610 2224 3230 2908 2846 3118 3659 3509 3058 2758 2681 1019 701 304 338 659 1280 434 403 545 623 192 134 139 167 185
0 0 0 34 46 41 6 1 0 4 5 10 29 83 325 585 235 252 457 680 932 1196 1882 2409 3028 2838 2738 2597 2946 3399 3489 3215 2816 2665 2269 1264 920 335 766 718 477 304 611 255 192 102 249 195 252
0 0 0 8 70 40 7 18 0 18 0 0 45 117 257 549 575 225 492 677 938 1166 1416 1739 2071 2586 2481 2508 2648 2777 2961 3222 3134 2890 2516 2063 1078 865 744 664 291 401 329 164 302 134 177 197 28
0 0 0 1 4 23 37 2 0 0 0 0 3 109 144 472 735 665 467 696 1003 1095 1256 1621 1940 2302 2421 2449 3018 2941 2715 2845 3153 3158 2857 2293 1603 1191 942 881 359 493 216 199 330 215 39 114 118
0 0 0 0 1 9 14 2 1 0 0 0 0 3 43 241 735 912 835 856 1000 1260 1233 1413 1647 1872 2219 2984 3207 2837 2943 2890 2852 3601 2886 2746 1871 1007 1006 819 714 368 248 218 321 142 4 20 17

GFSSGP_con_sbcape_015.txt.gz
CAPE
1155 1137 1410 1616 344 152 158 157 145 200 197 64 42 82 267 218 118 186 59 266 598 423 502 646 999 1012 1081 1168 1542 1603 1434 1913 1918 2131 2220 1791 2034 2308 2093 1977 1991 1998 1910 1739 1644 1588 1612 1617 1635
1621 1885 2332 2180 305 124 97 180 195 224 261 137 136 222 212 344 265 447 391 490 397 276 497 509 1321 1166 1207 1119 1186 1606 1134 1301 1423 1711 1640 1601 1822 1997 1813 1726 1828 1795 1783 1670 1517 1435 1567 1691 1675
2238 1869 1682 862 58 52 139 161 286 220 248 246 261 217 423 278 403 358 451 295 354 360 636 856 1252 1068 1179 1384 1331 1733 1480 1350 1384 1497 1544 1616 1883 1930 1658 1680 1733 1673 1609 1486 1459 1580 1616 1716 1782
1720 1318 984 33 31 111 259 228 195 213 229 212 322 347 470 550 572 613 593 448 378 333 547 1115 1351 1263 1330 1498 1813 1645 1727 1787 1413 1427 1626 1974 1988 1646 1554 1730 1579 1468 1471 1544 1585 1658 1712 1786 1870
1009 962 575 9 1 52 320 296 274 245 281 237 349 528 512 639 774 846 831 547 660 917 748 733 1682 1468 1549 1660 1961 2032 1952 1845 1582 1626 1940 1988 1819 1688 1751 1629 1376 1366 1511 1670 1886 1805 1812 1757 1843
906 206 66 47 1 8 152 305 316 328 371 213 456 592 883 834 900 850 923 913 904 1163 815 989 1637 1720 1713 1824 1993 1710 1725 1763 1884 1929 2021 1907 1928 1814 1728 1375 1400 1433 1492 1719 1936 1581 1586 1643 1594
590 238 20 47 6 5 14 131 204 230 331 250 480 812 806 969 1036 1169 1113 1071 970 1062 1152 1475 1570 1984 2069 2134 1954 1844 2013 2040 1971 1950 1975 1918 1968 1791 1681 1611 1352 1545 1720 1969 1879 1511 1565 1603 1457
577 24 92 142 25 0 1 39 51 158 420 236 488 793 886 1113 1012 990 1212 933 999 1231 1154 1441 1554 1548 1667 1940 2032 1943 2051 1811 1587 1824 1793 1755 1973 1865 1507 1455 1558 1514 1552 1537 1763 1476 1578 1565 1626
155 102 193 55 175 9 0 26 19 202 280 172 321 643 804 948 893 834 877 1115 932 1204 1202 1140 1199 1367 2011 1903 2308 2149 1945 1538 1562 1693 1832 1666 1542 1824 1979 1728 1327 1363 1469 1352 1597 1467 1661 1563 1656
27 33 126 51 126 47 6 16 21 87 163 328 377 662 742 890 930 912 921 1016 1121 1192 1330 1317 1525 1316 1254 879 1643 1311 1001 967 1020 1045 1625 1136 1847 2102 1389 1443 1430 1310 1361 1407 1532 1609 1742 1958 1923
9 83 58 52 29 143 38 46 24 97 92 279 441 610 642 797 986 959 968 967 953 1199 1433 1459 1814 2107 1200 2070 1253 1448 1433 1330 1211 1470 1432 1220 1592 1712 2117 1613 1933 1959 1574 1661 1832 1701 1980 1772 1235
0 8 6 42 19 67 81 122 30 15 101 128 421 505 598 798 921 951 942 1022 1170 1347 1164 1043 1551 1602 1360 1532 1284 1176 1059 979 1048 1357 1725 1979 1722 1987 1718 2350 2009 2350 2135 1780 2130 1937 1973 1381 1326
0 8 3 0 5 30 132 124 67 15 15 120 446 516 599 746 864 877 842 863 1049 1082 1157 1095 1365 1899 1799 2003 1261 1544 1066 1007 1005 1121 1679 1585 1405 2271 1610 1494 1652 1953 1877 1673 1894 2159 1936 2025 1633
1 0 1 1 4 12 128 123 117 13 27 240 609 600 614 639 695 789 800 848 969 1099 1168 1231 1555 1929 2012 2350 2182 1585 1960 1625 1034 1937 1300 1748 1638 2386 2921 2808 1451 1467 2274 2171 2069 1991 2031 2309 1997
0 0 3 0 1 9 45 87 91 8 217 377 577 633 485 531 539 721 726 786 900 1135 1260 1347 1495 1812 2088 2168 2155 1840 1430 1186 1664 1304 1510 1989 2073 1946 2351 2031 1616 2226 1913 2133 1855 1680 1817 1746 1385
0 0 67 7 0 36 116 151 70 172 222 366 441 623 492 513 485 664 684 737 855 1042 1267 1434 1303 1494 1941 2472 2372 1939 1473 2031 2044 1542 2218 1932 2326 2338 2321 1806 1792 2055 2041 2054 2314 1622 1888 865 123
0 4 17 4 17 159 99 10 137 239 178 194 396 401 530 556 581 686 685 784 832 1075 1306 1516 1592 1521 1976 2895 2358 2244 2853 2687 2007 2176 1413 2718 2215 2382 2488 2042 1782 1997 1725 2228 1746 1721 950 117 5
8 22 78 135 21 188 104 285 303 391 252 117 190 200 335 419 580 705 798 866 941 1118 1389 1633 1604 2279 2647 3808 2871 2863 1835 2064 1879 1658 2154 2243 2122 2147 2383 1702 1833 1915 2212 1868 2020 876 355 133 59
19 66 12 70 31 94 158 183 258 506 474 266 255 148 172 227 475 587 899 896 951 1175 1564 1937 2460 3670 2634 1982 2686 2118 1906 2163 1524 1369 2007 2571 2308 2338 2033 2165 2289 2025 1739 1576 723 373 22 1 136
0 36 65 38 40 63 150 200 296 597 508 537 458 325 223 179 228 478 830 881 1122 1283 2042 3020 3252 4003 3521 2480 2875 2565 2083 1415 1364 1221 2150 2007 2195 2546 2035 2623 1661 2085 1151 1101 442 126 22 7 301
0 11 47 74 146 94 129 148 194 220 532 549 438 544 411 208 68 347 620 920 1089 1431 2121 3206 4019 4280 3988 3735 3138 2831 3269 2326 1745 1284 1988 2097 2085 2041 2181 2104 2176 1786 993 87 320 181 86 44 82
0 0 14 63 57 147 29 160 185 121 194 439 671 553 607 341 189 170 617 954 992 1426 1814 3184 4014 4325 4024 4221 3026 3582 2234 1478 877 1110 901 1588 1557 1450 2181 1835 1206 1109 400 1059 321 90 235 172 69
0 0 14 37 142 202 77 106 58 75 133 174 434 666 638 446 372 257 445 742 909 1159 1441 2529 4175 4430 4485 4462 3650 2669 2904 1146 1007 811 1960 1808 2312 1216 1004 1030 1255 723 10 255 487 119 298 273 81
0 0 26 37 73 111 160 125 193 55 126 167 166 433 753 697 364 577 472 651 772 965 1323 2316 4154 4608 4573 4535 4404 4413 4341 2713 1483 1686 1416 835 781 1118 1109 1062 1065 403 396 463 353 244 191 246 298
0 0 22 62 72 49 108 140 216 125 89 75 67 115 472 816 571 349 768 644 1116 1528 1894 2453 3952 4599 4578 4107 4090 4077 4339 4269 3348 2656 1401 1419 642 815 2189 1719 1331 407 676 593 459 466 333 207 200
0 0 1 30 52 51 53 84 84 109 53 65 43 32 90 540 719 283 395 900 1346 1376 2331 2589 3494 4413 4544 4256 4532 4568 4641 2714 2328 2773 1582 771 633 856 2807 1666 1157 463 619 653 628 268 132 508 92
0 0 0 23 71 90 73 62 41 53 108 78 40 20 24 362 666 449 267 379 982 1342 2195 2641 3483 4139 4334 3238 4648 4682 4617 4462 2654 3201 3465 1702 1741 703 1153 1645 1021 616 663 706 777 162 550 269 306
0 0 0 15 132 137 80 84 67 67 49 27 29 6 10 130 633 531 332 354 897 882 1501 2422 3071 3942 3641 3764 4137 3927 4284 4659 4431 4495 4161 2856 2343 1931 2078 1412 960 705 710 637 581 634 372 330 204
0 0 0 2 45 80 100 102 80 116 56 23 15 11 18 61 501 651 395 399 634 679 1041 1654 2295 3220 3457 3581 3696 3833 3711 3851 4517 4317 4078 3805 2606 2670 1907 1950 1123 668 926 373 429 512 293 409 545
0 0 0 24 28 29 119 88 35 21 21 17 27 25 50 44 261 608 541 500 576 899 769 1037 1522 1582 2649 3060 3814 3886 4009 3961 3808 4364 4249 4189 3441 2714 2356 2032 1410 1112 850 777 660 459 226 198 133

GFSSGP_con_sbcape_018.txt.gz
CAPE
735 669 881 132 152 19 52 193 183 177 37 104 91 42 52 200 15 65 48 234 332 266 426 472 1161 1087 933 1505 2087 2249 2516 2649 2669 2785 2774 2837 2889 2803 2667 2539 2391 2259 2017 1664 1605 1623 1659 1639 1578
658 849 701 19 109 39 142 217 158 115 90 214 206 178 135 93 36 52 309 420 345 241 262 433 1453 1494 1288 1826 2084 2144 2214 2236 2449 2469 2429 2741 2726 2501 2252 1831 1745 1689 1597 1511 1466 1599 1647 1730 1652
926 910 751 1163 221 20 255 193 334 277 242 190 237 196 199 154 264 314 340 513 169 242 464 858 1524 1795 1741 1848 2109 2142 2151 2098 2325 2316 2313 2627 2455 2173 1696 1681 1585 1454 1419 1491 1546 1631 1631 1640 1753
1746 1264 1902 917 132 155 97 77 234 101 304 191 287 304 381 303 326 320 430 207 424 635 456 1425 1713 1565 2056 1996 2108 2059 2315 2060 2123 2095 2409 2369 1979 1549 1724 1530 1301 1307 1412 1566 1778 1706 1671 1683 1662
1873 857 612 349 51 282 142 160 195 81 174 311 318 528 589 336 372 345 285 312 436 502 521 1005 1994 2061 2107 2244 2235 2248 1881 1660 2028 2104 2014 1836 1663 1577 1699 1283 1188 1276 1451 1703 1739 1461 1549 1453 1515
145 689 564 7 0 98 123 385 136 77 223 285 303 465 582 852 575 602 467 412 477 462 371 793 1795 2078 2090 2218 2347 2360 1846 1666 1829 1791 1851 1785 1681 1564 1442 1133 1226 1302 1488 1804 1752 1368 1509 1406 1233
244 336 159 39 0 4 20 198 243 75 105 283 621 497 628 828 988 802 721 823 677 667 956 1086 1283 1782 1914 2498 2073 2056 1909 1909 1873 1798 1816 1741 1726 1547 1358 1249 1217 1347 1636 1610 1687 1330 1377 1378 1232
119 191 370 36 1 0 0 31 28 42 282 219 380 373 643 909 1060 986 949 901 860 985 1037 1513 1639 1373 1777 1778 1906 1906 1863 1725 1568 1626 1634 1569 1638 1668 1411 1611 1434 1355 1313 1359 1514 1365 1314 1259 1465
184 19 53 14 1 0 0 0 78 177 104 177 453 394 628 610 1272 858 1129 1023 1192 1109 1041 1291 1292 1971 2302 1991 1567 1974 1824 1511 1320 1534 1731 2084 1475 1983 2031 1885 1751 1296 1393 1211 1446 1510 1672 1776 1982
13 142 2 18 54 0 5 0 0 0 1 133 594 578 521 568 1179 1066 938 888 700 973 955 813 1241 1712 1834 1123 2325 2230 1419 922 1092 1401 2080 1751 1000 2010 1748 1730 1429 1346 1487 1199 1764 2309 2147 2116 1922
1 1 2 39 26 10 29 15 0 3 7 101 614 690 606 542 518 1033 943 801 1008 818 919 1145 1747 1784 1579 2015 1809 1478 1352 1358 1560 2669 2086 2549 1452 808 1486 1967 1097 1688 1771 1520 1637 2044 1537 2319 1817
26 1 16 49 96 73 21 13 0 23 27 85 651 787 716 557 506 433 686 695 1063 1105 1316 1422 1817 1897 2383 1579 1182 1551 1626 1718 1684 2059 2915 3190 3000 2648 1466 2507 1691 1877 1910 1621 2221 1807 1923 2190 1972
2 1 33 10 0 10 18 11 3 19 45 88 301 521 676 643 489 418 604 724 1141 872 1521 1784 2196 2481 3307 2305 2378 1697 2267 1301 1580 2398 2535 2081 2887 1383 2224 2844 2157 2896 2192 2291 1464 2240 2022 1635 1852
0 0 1 1 11 0 71 57 5 3 17 46 221 356 501 609 512 648 719 928 1290 1114 1325 2119 2349 2848 3470 2637 3162 2593 456 2138 771 1293 2417 3209 2919 3371 2677 2619 2316 1738 2305 2808 2599 2725 2590 2548 2308
0 0 0 0 0 12 85 38 41 4 12 92 188 284 383 523 636 692 695 922 1167 1212 1453 2035 2080 2271 2827 3241 3444 3364 2896 1891 1104 1905 2714 2431 3427 3381 3496 2679 2818 2660 2312 2222 2945 2175 2658 2161 1768
0 0 0 5 0 14 48 109 28 4 0 5 193 198 307 375 393 711 642 792 1043 1121 1933 2185 1270 2006 2379 2980 3503 2415 1815 2388 1968 1688 2982 2534 3364 3246 3246 2977 2524 2001 1906 2163 1509 1929 1950 1709 1472
0 0 0 1 3 27 17 144 182 85 0 13 109 164 163 482 484 728 542 886 882 1617 2376 2275 2173 2251 2549 3174 2914 2795 2586 2571 2916 2729 1771 2703 2443 3212 3028 2575 2584 2180 2783 2456 2035 2093 1558 1067 595
0 0 1 14 30 59 149 160 8 11 50 41 26 98 236 142 340 642 629 681 976 1561 2299 2329 2470 3520 3033 2664 3407 3359 2770 2190 1889 3273 2469 2490 3285 3023 2926 2761 2369 2783 2905 2260 2077 1484 1462 726 444
0 0 1 7 19 5 320 32 14 26 163 51 73 62 135 262 408 648 669 701 838 1449 2222 2379 2739 3512 3724 3399 2285 2568 2616 3007 2685 3066 2856 2564 3121 3213 2648 2547 2387 2937 1998 2258 1372 1382 584 572 632
0 0 8 30 40 62 143 416 189 211 235 118 65 27 23 38 224 615 821 716 876 1534 1945 2589 2763 3927 3340 3162 3031 2688 2425 2326 2545 1114 2885 2964 2960 3361 3032 2892 2545 2116 2194 1588 1570 718 620 628 1035
0 0 0 0 24 35 46 60 219 202 194 202 111 108 28 30 41 579 788 795 1051 1458 2155 2780 3083 3438 3059 3429 2922 3304 3083 2588 2500 2557 3078 2382 3210 3000 2645 2720 2617 2652 1813 1806 1329 937 763 434 1102
0 0 0 2 31 20 22 39 367 124 453 284 227 250 251 93 81 281 699 1061 1035 1520 2261 2909 3212 3317 3617 3110 3136 3110 2193 2454 2655 3014 2581 3151 2708 2728 3093 3087 2782 2602 1904 1647 1212 963 535 998 497
0 0 0 0 5 80 191 76 240 315 395 558 328 295 277 552 178 129 561 885 1019 1531 1990 2799 3511 3768 3555 3754 3084 3158 2830 2392 2081 1886 3295 2906 3634 2511 2743 2960 2573 2134 949 2003 1331 937 707 1050 787
0 0 0 0 1 25 43 56 141 270 104 18 258 371 503 496 569 336 429 751 1054 1340 2064 2228 3703 3747 3639 3884 3479 3721 2712 2310 2355 3099 2536 2578 2097 2078 2698 2163 2503 1834 1107 1598 1236 1016 803 745 1163
0 0 0 1 27 8 51 119 109 154 142 44 0 157 583 701 743 606 520 833 1173 1368 1812 2457 3498 3711 3700 3910 3825 3395 3918 3421 3724 3973 2589 1785 945 1546 2282 2638 1954 1363 1437 1899 1504 1574 1325 813 886
0 0 0 0 1 4 16 34 114 345 93 34 41 152 368 713 638 714 786 748 1274 1276 1866 2284 3407 3683 3976 3569 4179 3927 3808 3862 3033 3513 2655 2236 1786 1833 1731 2010 1814 1735 1404 1426 1642 1426 712 1003 695
0 0 0 0 0 23 21 33 23 102 171 5 9 67 76 546 721 776 880 985 1403 1379 1611 2241 3391 3757 4022 3952 3842 4215 3663 3705 3251 3121 3133 2439 2180 2863 1704 1785 1964 1316 1649 1558 1738 905 867 972 1166
0 0 0 0 1 15 22 77 103 173 291 188 13 57 64 44 829 883 773 1083 1265 1549 1647 2266 2870 3649 4056 4015 3907 3870 3929 3594 3337 3322 3448 2300 2706 2169 2184 2078 1788 1243 1141 1603 1300 673 992 1116 916
0 0 0 0 0 2 26 30 156 393 593 436 120 49 49 21 593 715 877 706 1269 1466 1686 2026 2438 3442 3918 3887 3803 3954 3945 3965 3565 3886 3275 2995 3075 2296 2356 2118 1525 1211 1045 1328 845 527 592 481 857
0 0 0 0 0 0 0 20 73 199 163 303 127 124 69 71 216 640 970 724 858 1115 1377 1917 2310 2862 3473 3681 3550 3837 3983 3965 4038 3502 3988 3593 3121 3153 2468 2026 1517 1173 850 1000 635 402 307 532 596

GFSSGP_con_sbcape_021.txt.gz
CAPE
861 679 374 116 208 2 64 107 130 61 85 26 9 24 32 12 4 0 3 64 95 93 280 425 1106 1312 1444 1732 2337 2401 2443 2770 2940 2948 2975 2755 2174 2272 2450 2103 1931 2161 1929 1581 1632 1682 1644 1552 1513
553 613 581 4 143 49 172 20 87 179 18 43 124 53 10 4 0 2 45 151 171 134 133 544 1307 1614 1559 2013 2467 2382 2147 2055 2643 2813 2905 2773 2317 2445 2148 1792 1740 1640 1592 1507 1578 1567 1665 1629 1565
627 300 598 193 75 136 140 38 129 229 271 190 184 71 22 70 108 95 142 196 162 132 212 657 1585 1936 1731 1877 2378 2375 2296 1979 2251 2510 2849 2700 2419 1910 1699 1598 1506 1484 1540 1589 1642 1608 1569 1667 1715
759 760 429 543 116 156 155 235 187 280 262 224 207 147 198 224 223 243 254 78 45 291 726 1659 1853 1426 1957 2000 2195 1846 1999 2142 2381 2551 2835 2550 2267 1713 1537 1337 1345 1381 1539 1773 1666 1681 1575 1645 1640
998 591 433 362 175 76 99 106 200 299 263 278 163 208 154 340 231 392 203 202 229 434 869 1308 2238 2241 2266 2060 1957 2286 1837 1854 2425 2746 2652 2558 2241 1722 1395 1222 1193 1275 1471 1751 1552 1409 1497 1447 1532
790 539 362 243 202 158 160 65 125 273 575 494 280 253 187 348 288 169 333 339 287 511 850 1182 1932 2152 2538 2066 1947 2151 1900 1814 2455 2654 2547 2468 2377 2204 1734 1215 1219 1248 1484 1705 1650 1297 1496 1385 1293
30 11 69 91 28 170 274 88 317 298 442 458 527 323 254 239 199 256 335 357 277 363 596 1029 1345 1587 2211 2751 2284 1992 2038 2110 2388 2550 2397 2212 2060 1586 1533 1409 1237 1310 1448 1433 1544 1299 1397 1532 1433
113 46 205 95 62 9 188 88 129 180 420 440 810 639 453 412 367 334 327 340 171 480 755 950 1202 1282 1690 1768 1922 1847 2020 1908 1926 2058 1772 1744 1617 1577 1362 1768 1619 1305 1212 1279 1395 1535 1622 1804 2016
105 76 56 42 43 0 37 87 213 274 428 548 546 697 771 638 531 612 672 509 744 717 741 946 1093 1191 1281 1214 1489 2011 1874 1812 1824 1752 2028 2088 1367 1205 1568 1685 1776 1280 1380 1305 1427 2126 2301 2325 2692
59 47 19 12 6 20 66 173 167 212 291 296 556 709 904 836 719 687 687 711 750 760 923 953 979 1176 1159 1292 1335 1463 1363 1119 904 1131 1090 1390 961 538 1553 1749 1991 1362 1482 1748 1932 2194 2349 2212 1417
32 20 76 51 21 36 6 0 0 34 398 302 508 724 903 868 750 709 619 757 836 584 942 902 1147 1254 1044 1016 1081 1251 1058 653 439 595 989 1013 1086 634 559 800 695 904 1399 958 1277 1593 1491 912 1360
0 9 24 11 89 13 8 0 7 0 210 437 309 199 997 741 743 649 673 594 623 563 664 797 1070 1176 982 1254 1064 1051 827 582 580 889 1466 1305 1010 402 990 1164 603 937 1242 1056 1290 1178 867 1239 682
0 6 37 35 44 48 17 5 22 47 522 547 451 322 550 736 716 529 463 614 456 605 642 853 959 912 1074 836 369 602 795 897 914 1161 1450 948 1126 845 435 1510 937 1129 863 1281 925 1494 1136 1066 1196
0 0 1 31 60 53 15 15 21 100 622 664 597 435 342 175 387 592 433 516 556 742 812 1037 1082 1032 1047 889 1254 1204 701 1036 1083 1487 1294 1229 935 782 1379 1322 1049 1425 1319 1668 1385 1082 1126 1146 1414
0 0 0 0 2 73 64 35 1 27 367 583 563 503 447 368 212 171 680 575 394 652 777 1129 890 1664 1443 994 1863 1687 1456 477 216 1329 1537 1472 1557 1262 1552 1445 1134 1642 1453 1592 1323 1031 1165 1316 1253
0 0 0 0 0 8 27 15 20 0 174 316 308 417 482 427 288 216 540 574 253 574 1097 1229 1474 1500 1914 1346 1940 1350 949 1403 1082 627 1565 1578 1625 1760 1315 1749 1603 1255 1223 895 792 847 823 872 397
0 0 0 0 0 0 22 0 0 0 79 96 185 178 271 298 268 299 260 458 425 839 1253 1244 1202 1036 1159 1691 2154 1357 1069 1586 789 1493 1322 1589 1925 1748 1375 1632 1498 1424 1133 989 958 519 512 15 0
0 0 0 0 0 12 8 1 0 0 0 89 60 69 95 146 186 316 187 335 470 1085 1131 960 1125 1107 894 1919 1853 1651 1410 1666 1632 1309 745 855 1653 1861 1427 1297 1493 1236 916 1026 544 488 301 0 0
0 0 0 0 18 47 17 4 7 0 0 0 34 0 60 79 83 236 195 357 633 1259 1069 1221 1309 1468 1280 1741 1767 1870 1368 1730 1129 1130 1460 1572 1555 1693 1370 1125 1347 1466 1080 928 467 158 0 0 15
0 0 0 0 20 44 106 18 0 0 0 0 1 8 36 64 49 172 163 191 482 1068 1057 972 1377 2367 1549 1577 1515 1484 1458 1592 1575 1590 1986 1827 1754 1741 1241 1198 1372 1287 1274 836 23 0 0 3 105
0 0 0 0 0 50 116 56 0 0 0 0 0 1 28 31 49 163 148 164 254 797 1188 1201 1300 2292 2099 1629 1654 1586 1566 1633 1353 1407 1589 1831 1870 1941 1576 1472 1352 1315 803 149 0 0 7 3 133
0 0 0 0 0 0 78 43 7 0 10 4 0 0 2 32 61 126 182 184 206 744 1293 1261 1479 2355 1669 1872 1476 1474 1201 1167 1375 1530 1710 1950 1816 1628 1558 1464 1294 745 373 121 17 3 2 34 0
0 0 0 0 0 7 0 0 44 38 20 27 0 0 0 0 2 70 264 185 318 803 1082 1555 1574 1742 1769 1983 1437 1394 1303 942 1316 1017 1408 2168 1557 1523 1589 1510 1361 331 173 256 51 0 0 41 87
0 0 0 0 0 1 0 0 1 56 14 27 44 7 1 0 0 41 135 280 252 851 1218 1823 1786 1758 2166 1358 1813 1691 1686 1419 1277 1192 1795 1657 1580 1168 1650 1451 599 193 0 120 23 87 20 3 52
0 0 0 0 0 0 0 0 0 16 11 124 118 59 78 22 0 0 100 321 359 882 1451 1875 1879 1982 2144 2195 1809 1856 1765 1252 1101 1605 1391 1418 871 635 1189 1077 447 139 80 205 157 30 35 15 51
0 0 0 0 0 0 0 0 0 44 39 167 115 6 92 66 18 2 98 197 482 683 1297 2051 2156 2106 2469 2351 2415 1993 2220 1472 1466 1854 1182 574 603 571 934 1045 290 118 49 564 381 116 131 60 28
0 0 0 0 0 0 0 0 0 13 40 68 10 4 2 0 178 70 59 128 405 601 1418 1467 2483 2311 2403 2624 2584 2257 2012 2476 2533 1900 1900 706 124 720 788 1129 401 118 121 166 382 170 37 227 50
0 0 0 0 0 0 0 0 0 0 30 27 5 2 7 0 157 192 73 145 457 637 1206 1535 2577 2489 2570 2092 2725 2830 2474 2195 2419 1876 1788 1455 673 1374 696 1116 577 383 170 192 379 134 252 121 205
0 0 0 0 0 0 0 0 0 0 82 62 3 1 1 0 37 260 206 225 594 718 1062 1539 2328 2519 2689 2637 2303 2769 3006 2505 2304 2310 1798 1454 1399 954 928 1022 756 310 366 401 423 110 61 339 38
0 0 0 0 0 0 0 0 0 0 80 98 38 0 0 0 171 314 350 353 792 791 841 1529 2633 2683 2815 2948 2737 2467 2806 2851 2396 2148 2119 1912 1218 1133 1229 1035 911 444 133 406 444 95 180 82 288

GFSSGP_con_sbcape_024.txt.gz
CAPE
441 329 311 65 110 9 26 130 173 36 14 0 11 9 0 0 0 0 5 2 13 38 211 517 981 1416 1756 2424 2641 2583 2636 2416 2897 2869 2319 2008 2020 2090 2027 1901 1809 1739 1603 1615 1750 1823 1694 1664 1570
711 610 363 29 103 70 44 64 132 58 3 2 3 0 0 0 0 5 26 0 33 143 244 533 1147 1502 2020 2247 2558 2655 2299 2068 2778 2556 2283 1982 2079 2038 1853 1791 1666 1546 1583 1619 1625 1683 1748 1684 1614
573 103 67 64 103 109 13 12 75 78 133 72 11 0 0 4 0 0 2 52 99 120 377 696 1434 1933 2067 2157 2420 2501 2318 1879 2155 2047 1805 1795 1857 1783 1621 1525 1485 1586 1667 1730 1703 1625 1637 1725 1625
662 268 704 815 176 94 111 360 123 266 222 60 30 45 74 57 32 33 127 96 77 153 483 1289 1560 1401 1931 1946 2070 1776 1790 1711 2017 2273 1869 1758 1800 1572 1386 1392 1424 1578 1806 1843 1643 1622 1578 1622 1651
762 386 65 269 84 90 169 459 458 218 224 177 118 149 109 149 121 195 191 110 146 321 662 1084 1983 2069 1949 1950 1747 1902 1647 1603 2080 2210 1783 1715 1732 1428 1323 1290 1355 1487 1668 1847 1466 1500 1443 1552 1610
675 258 85 36 16 76 282 452 414 299 276 207 198 177 89 190 253 236 73 157 422 665 1048 1319 1731 2103 2105 1689 1653 1658 1488 1679 2148 2108 1914 1762 1760 1481 1285 1276 1293 1391 1635 1728 1634 1401 1552 1443 1409
6 4 13 10 0 31 398 432 389 402 295 256 175 166 201 288 335 105 236 336 425 850 1075 1282 1309 1178 1671 2226 1813 1689 1481 1645 1940 1936 2070 1940 1658 1537 1206 1215 1299 1419 1537 1550 1619 1387 1444 1459 1415
45 0 53 34 0 113 241 498 475 409 479 329 286 229 254 254 207 304 251 332 421 752 890 1031 1167 1347 1695 2029 1995 1909 1697 1725 1867 1964 1861 1789 1769 1587 1460 1599 1679 1481 1370 1329 1436 1599 1641 1514 1444
41 0 52 0 1 125 279 499 599 572 523 352 634 280 229 238 262 362 241 238 455 511 835 1028 1070 1213 1434 1427 1591 2045 1826 1816 1885 1840 1867 2099 1259 1149 1612 1713 1789 2075 1521 1481 1449 1741 1858 1806 1772
6 0 24 8 1 64 80 327 487 659 580 713 528 390 291 272 301 316 276 250 409 586 670 974 1006 1124 1098 1401 1169 1257 1263 1379 1227 1318 1150 1446 988 717 1351 1689 2095 1773 1634 1752 1772 1901 2107 1627 926
14 14 24 51 61 95 191 380 448 658 652 661 594 524 412 379 409 547 371 560 556 633 770 824 901 966 971 1036 980 1017 931 789 537 509 611 695 802 642 1011 554 1132 1024 1466 740 1063 1398 1004 1149 985
1 16 12 53 72 44 92 392 486 448 411 504 835 664 538 528 498 571 460 649 589 667 865 806 820 890 796 564 1023 937 833 479 224 164 361 623 686 274 325 539 773 504 937 1024 1059 1162 886 1088 663
0 0 12 48 62 15 17 43 443 381 406 581 867 821 621 602 522 509 542 610 551 754 858 840 859 887 726 660 576 472 663 430 231 229 495 777 683 285 374 739 863 771 573 905 770 1112 937 893 1082
0 0 0 5 20 21 13 10 187 365 547 749 900 872 749 660 484 453 525 637 483 726 657 874 835 860 675 847 345 280 440 502 401 607 764 732 680 392 419 715 941 1156 1073 1026 1055 913 772 990 1024
0 0 0 0 0 37 4 82 554 574 391 480 929 896 868 756 646 433 539 536 382 554 568 706 816 701 722 627 320 373 593 761 548 741 855 944 613 665 1170 1112 679 1139 937 1385 826 689 606 921 504
0 0 0 0 9 24 0 0 637 574 452 219 526 953 811 640 636 434 434 457 260 506 470 627 757 807 701 466 533 1009 781 217 412 841 899 1059 1009 838 1056 1054 1146 779 851 561 449 569 451 23 0
0 0 0 0 1 31 1 0 0 630 553 402 334 344 467 327 350 450 335 400 315 494 578 709 597 686 1073 564 1140 708 500 787 346 572 1056 985 1181 1241 821 1016 934 1004 829 733 702 229 189 0 0
0 0 0 0 0 20 13 0 0 572 548 510 481 397 351 299 249 69 432 373 140 425 752 763 603 836 1200 805 1287 771 446 728 772 778 950 1266 1400 1415 843 903 1124 795 566 681 210 197 171 0 0
0 0 0 0 0 3 6 2 0 344 357 400 432 426 373 301 273 101 484 397 191 409 856 776 850 817 861 1191 1248 1046 796 958 941 759 485 661 1256 1313 968 799 1010 796 421 526 135 2 0 0 0
0 0 0 0 0 2 10 15 0 1 74 227 214 242 299 227 210 139 160 414 399 806 904 800 778 677 504 996 1068 1109 931 986 1003 762 924 649 1064 1337 1053 663 807 897 804 418 8 0 0 0 0
0 0 0 0 0 15 11 21 1 0 0 0 78 110 144 96 72 89 89 288 344 795 752 709 863 859 649 749 1038 935 905 975 1126 1054 1425 1513 1284 1373 1042 637 795 801 549 169 0 0 0 0 0
0 0 0 0 0 0 4 1 11 0 0 0 0 12 75 66 32 40 92 81 291 577 703 700 1027 1115 935 997 1275 1205 1189 1079 851 889 1083 1424 1422 1357 1175 932 743 335 282 0 0 0 0 0 0
0 0 0 0 0 0 0 0 0 8 0 0 0 4 19 20 16 8 84 59 161 451 597 544 924 1576 1364 1194 1151 1146 833 691 692 832 1124 1082 1358 1261 1102 915 677 105 34 0 0 0 2 1 0
0 0 0 0 0 0 0 0 0 0 0 0 0 0 0 3 0 0 39 42 46 313 657 662 665 1451 1499 1235 1131 1067 860 624 622 692 818 1324 1188 1057 1049 956 695 30 0 0 0 0 0 21 7
0 0 0 0 0 0 0 0 0 0 0 0 0 0 0 0 0 0 17 13 25 189 616 789 782 991 1294 1389 1036 977 914 691 659 533 988 1163 1028 551 1088 888 362 3 0 0 0 5 6 0 2
0 0 0 0 0 0 0 0 0 0 0 0 7 0 0 0 0 1 2 59 37 138 620 1001 935 872 1253 1206 1381 1103 983 1053 943 715 928 1121 1024 522 769 671 153 3 0 0 0 0 3 0 0
0 0 0 0 0 0 0 0 0 0 0 0 9 9 0 0 0 0 48 101 109 245 728 1124 1131 1014 1376 1321 1098 1338 1503 1277 1131 815 713 780 701 256 514 485 92 6 1 67 69 0 0 17 0
0 0 0 0 0 0 0 0 0 0 0 0 0 10 0 1 0 3 0 83 172 197 822 1093 1317 1229 1389 1650 1514 1343 1258 1629 1411 1187 1144 533 181 398 430 507 111 39 0 92 101 22 0 20 37
0 0 0 0 0 0 0 0 0 0 0 0 7 28 24 31 27 13 2 68 154 256 857 1288 1492 1362 1663 1742 1740 1784 1615 1297 1693 1878 1329 992 284 245 332 609 219 76 24 0 132 40 61 0 0
0 0 0 0 0 0 0 0 0 0 0 0 0 1 36 83 13 66 59 27 96 371 885 1290 1847 1630 1765 2019 2035 2024 1909 1769 1565 1766 1762 1252 741 354 447 489 427 178 85 22 88 60 59 70 8

GFSSGP_con_sbcape_027.txt.gz
CAPE
351 283 209 123 118 3 57 118 111 4 12 6 2 0 0 0 0 0 0 10 32 46 198 648 1198 1245 1666 1756 2390 2436 2245 2156 2209 2031 1877 1887 1900 1944 1892 1838 1803 1663 1622 1628 1867 1763 1755 1637 1441
293 315 307 14 47 14 30 55 96 23 8 0 0 0 0 2 5 15 19 9 29 112 189 576 1357 1568 1730 1853 2394 2468 2115 2179 1992 2016 2005 1969 2004 1882 1778 1747 1566 1557 1626 1638 1635 1751 1739 1678 1577
586 263 101 23 15 22 2 80 56 27 11 51 3 8 0 3 8 5 0 0 36 180 346 721 1327 1572 1740 1831 2116 2466 2218 1957 1852 1854 1943 1982 1879 1727 1597 1525 1586 1628 1718 1739 1700 1659 1719 1779 1534
44 289 534 224 254 123 122 132 141 155 59 15 4 14 40 1 1 5 5 95 118 289 500 1028 1464 1560 1754 1736 1817 1795 1856 1919 1862 1714 1837 1904 1713 1511 1434 1463 1590 1723 1876 1672 1613 1592 1681 1702 1500
334 272 119 213 138 97 255 106 226 153 95 36 46 57 29 50 19 6 106 111 139 375 568 1067 1758 2079 1959 1698 1617 1545 1585 1984 2029 1842 1799 1851 1570 1376 1378 1386 1486 1615 1827 1811 1492 1626 1463 1579 1434
239 119 68 47 30 186 314 315 251 213 149 60 37 60 104 125 86 194 115 78 153 440 764 1110 1604 1714 1828 1702 1656 1587 1543 1901 2063 1866 1798 1834 1657 1396 1395 1364 1390 1519 1764 1722 1567 1515 1555 1315 1211
4 5 1 23 21 334 374 373 240 225 156 95 49 80 168 162 204 221 125 212 219 816 1023 1097 1037 1229 1611 1720 1671 1562 1549 1887 1966 1997 1867 1765 1786 1511 1373 1346 1381 1456 1438 1577 1617 1387 1418 1364 1253
11 0 0 5 73 155 418 362 203 189 241 141 76 88 149 226 274 141 230 341 412 1000 1126 1100 920 937 1301 1372 1705 1547 1516 1683 1932 1936 1937 1883 1733 1491 1468 1465 1482 1527 1389 1340 1467 1361 1474 1411 1630
5 0 1 27 11 91 403 427 224 321 180 128 225 119 125 318 203 231 354 355 635 911 984 1006 1013 974 1424 1580 1482 1685 1580 1645 1788 1861 1885 2158 1319 1157 1519 1647 1781 1839 1581 1505 1506 1491 1515 1761 1679
0 0 0 0 0 99 420 414 309 369 156 410 218 183 288 374 299 279 360 328 507 631 930 1020 930 1190 1301 1775 1366 1427 1178 1228 1516 1543 1337 1575 942 706 1228 1702 1967 1665 1686 1727 1860 1613 1791 1267 940
10 167 17 16 43 198 466 469 477 415 263 429 163 258 297 282 349 308 330 260 354 513 793 977 947 1119 1137 1345 947 1051 947 1010 956 874 805 747 898 513 973 758 1207 847 1390 738 935 1130 658 1200 678
51 5 22 31 17 25 431 478 513 375 296 447 181 234 284 292 360 307 275 292 265 449 549 825 879 998 868 643 891 959 853 632 479 255 270 389 437 469 413 515 604 404 574 889 901 943 893 699 669
68 17 1 24 9 0 368 448 600 550 476 428 335 289 271 265 299 327 260 356 368 477 498 646 740 785 856 447 765 631 605 532 273 112 104 366 454 392 175 452 615 424 569 1022 781 949 858 566 862
0 0 0 0 0 3 364 506 515 670 656 636 500 377 312 295 327 445 325 460 464 531 588 631 613 597 629 419 235 315 337 355 189 120 154 548 549 504 261 301 808 892 1121 975 1071 936 579 738 826
0 0 0 0 0 0 59 262 418 442 650 810 645 534 447 381 396 486 456 560 508 553 660 636 600 569 536 432 353 144 157 336 356 360 353 504 628 443 272 454 533 727 784 1177 922 492 469 336 12
0 0 0 0 0 0 0 0 283 388 604 838 790 729 636 509 458 459 499 510 501 515 665 610 775 673 537 529 306 265 185 494 595 356 674 664 631 377 577 589 562 664 858 803 311 318 126 0 0
0 0 0 0 0 0 0 0 339 443 630 767 826 814 759 625 567 401 440 551 529 388 472 547 685 635 589 443 303 351 654 472 353 295 571 736 705 715 738 838 859 641 496 573 512 122 22 0 0
0 0 0 0 0 0 0 0 421 431 550 798 783 799 844 732 687 518 365 487 380 318 301 431 579 488 659 255 379 409 315 416 223 410 672 707 863 1175 734 598 804 755 552 501 80 22 9 0 0
0 0 0 0 0 0 0 0 422 379 326 379 755 821 862 735 642 546 395 379 348 287 302 360 391 345 541 440 642 539 353 338 603 629 623 793 988 1155 875 578 740 561 423 419 52 0 0 0 0
0 0 0 0 0 0 0 0 0 393 391 339 364 501 640 702 459 152 353 268 264 259 336 417 375 271 480 679 701 787 481 381 493 638 481 446 1002 1067 870 508 710 582 369 248 11 0 0 0 0
0 0 0 0 0 0 0 0 0 288 447 448 382 295 260 255 184 42 122 302 223 122 331 471 445 420 450 683 637 581 554 634 746 627 642 651 495 987 989 485 525 575 430 289 0 0 0 0 0
0 0 0 0 0 0 0 0 0 24 361 353 316 306 242 189 173 93 73 286 248 149 235 493 480 478 377 592 818 874 726 645 664 781 784 1136 1297 1004 868 620 459 500 410 68 0 0 0 0 0
0 0 0 0 0 0 0 0 0 0 0 0 75 141 154 164 162 126 38 194 281 272 378 553 512 503 410 317 700 679 585 643 499 519 841 823 984 982 970 678 490 247 165 0 0 0 0 0 0
0 0 0 0 0 0 0 0 0 0 0 0 0 9 45 56 92 102 79 45 224 320 549 550 517 558 510 387 574 696 721 559 461 388 666 730 830 961 927 731 425 17 8 0 0 0 0 0 0
0 0 0 0 0 0 0 0 0 0 0 0 0 0 2 4 16 28 8 28 34 201 544 594 529 760 729 661 706 829 786 539 438 360 462 606 817 717 853 704 455 6 0 0 0 0 0 0 0
0 0 0 0 0 0 0 0 0 0 0 0 0 0 0 0 4 3 2 6 32 89 347 510 521 828 993 947 851 833 803 620 552 240 351 605 862 759 847 737 494 16 0 0 0 0 0 0 0
0 0 0 0 0 0 0 0 0 0 0 0 0 0 0 0 0 0 2 2 28 25 168 437 449 646 1128 1122 949 858 775 697 574 367 354 582 730 778 462 765 452 29 0 0 0 0 0 0 0
0 0 0 0 0 0 0 0 0 0 0 0 0 0 0 0 0 0 0 2 4 19 69 394 512 506 806 1174 1076 896 833 800 683 464 544 598 583 509 329 540 328 32 0 0 0 0 0 0 0
0 0 0 0 0 0 0 0 0 0 0 0 0 0 0 0 0 0 7 10 14 19 28 302 568 575 605 916 1053 1081 1037 991 832 734 697 670 334 122 261 435 197 47 0 0 0 0 0 0 0
0 0 0 0 0 0 0 0 0 0 0 0 0 0 0 0 0 0 2 12 23 49 43 339 653 692 673 923 945 902 933 1070 1249 1115 946 855 502 73 110 299 197 78 23 0 26 3 6 0 0

GFSSGP_con_sbcape_030.txt.gz
CAPE
364 327 139 207 132 23 70 79 76 1 5 8 0 0 0 6 1 0 0 0 3 10 172 305 1319 1602 1761 2437 2520 2329 2068 1956 2143 2164 1917 1806 1863 1767 1699 1780 1677 1604 1615 1893 1759 1736 1699 1571 1298
451 202 284 1 5 6 33 26 49 0 0 0 0 0 0 2 0 4 11 8 6 56 241 321 1630 1930 1897 2254 2311 2463 1817 1845 1902 1928 1970 1965 1848 1732 1687 1560 1516 1626 1686 1589 1693 1743 1667 1616 1296
382 513 61 27 0 43 1 30 27 2 0 7 0 0 0 17 5 7 0 8 50 116 261 693 1499 1942 1803 1805 2005 2547 1978 1930 1920 1915 1969 1905 1743 1631 1502 1496 1609 1668 1787 1714 1639 1710 1775 1559 1340
210 268 408 258 167 111 39 39 30 35 20 7 0 1 0 1 0 0 1 11 83 276 373 1345 1631 1640 1910 1778 2066 2119 1792 1738 1766 1882 1906 1777 1593 1460 1447 1517 1640 1828 1841 1631 1583 1569 1630 1525 1333
359 192 179 241 277 105 145 89 122 91 55 36 27 0 9 30 1 5 39 68 193 346 607 1221 2135 2064 1999 1751 1906 1868 1861 1823 1726 1817 1879 1666 1470 1399 1379 1400 1535 1706 1912 1746 1615 1463 1457 1397 1298
132 124 80 66 65 138 247 107 178 109 93 53 15 12 93 17 16 40 70 86 306 433 724 1036 1787 1871 1832 1613 1594 1594 1834 1945 1806 1733 1820 1697 1451 1428 1388 1350 1409 1655 1749 1742 1453 1568 1457 1232 1208
3 12 3 63 40 235 318 146 177 83 82 71 40 58 139 29 72 76 67 77 329 543 785 912 1023 1469 1643 1664 1565 1518 1658 1933 1907 1847 1782 1818 1604 1386 1391 1355 1425 1473 1460 1587 1437 1383 1397 1344 1282
0 0 0 25 90 131 320 246 139 55 101 40 67 50 96 84 138 95 104 93 360 768 864 794 806 1001 1148 1347 1614 1487 1602 1873 1911 1940 1841 1698 1681 1471 1488 1471 1487 1719 1474 1367 1490 1355 1513 1467 1495
1 0 0 1 32 89 274 247 183 123 88 91 90 80 70 186 164 169 198 190 631 905 879 801 717 666 989 1047 1239 1500 1505 1621 1815 1782 1851 1654 1271 1156 1533 1849 2011 1867 1673 1501 1530 1462 1566 1722 1782
0 0 0 0 0 50 324 311 215 152 75 245 120 100 177 269 179 206 163 167 413 662 864 828 755 749 1092 1507 1239 1108 947 1048 1100 1454 1309 1453 1108 586 1450 1902 2244 1738 1718 1449 1696 1776 1557 1314 1313
12 172 0 0 109 84 371 358 336 179 89 247 124 152 278 242 225 252 203 170 292 493 841 933 794 849 1117 1503 1113 1013 910 926 1002 1091 1011 788 1043 645 708 1018 1086 801 1286 1145 786 1059 918 1271 841
85 0 22 53 9 299 437 393 390 105 130 198 158 176 346 199 260 279 297 245 245 461 673 906 827 940 935 899 930 859 835 709 670 625 510 346 305 316 462 732 658 591 651 1173 1247 1100 1072 749 995
91 21 29 25 12 10 331 429 453 372 257 194 173 319 334 238 261 259 282 213 211 342 566 810 798 904 898 561 703 699 695 712 501 285 148 210 362 447 234 357 589 625 733 939 1005 1201 919 635 949
0 4 1 0 0 0 66 438 423 539 352 155 240 298 264 261 289 256 261 223 185 262 381 601 714 743 790 599 374 520 390 428 275 166 68 143 345 334 258 317 588 1093 1040 1164 1105 982 932 931 913
0 0 0 0 0 0 26 341 432 437 397 250 203 230 236 224 294 259 258 252 224 275 259 438 556 546 574 491 121 143 232 290 206 133 106 206 369 463 479 358 530 683 860 948 924 608 662 66 5
0 0 0 0 0 0 132 104 383 400 463 424 286 230 207 198 244 255 279 257 288 353 380 414 518 461 336 297 131 76 39 78 176 196 489 467 455 404 402 534 526 655 690 985 488 462 182 0 0
0 0 0 0 0 0 14 0 83 331 498 521 437 323 278 236 239 302 397 308 360 380 470 480 439 385 321 198 132 175 75 75 283 274 383 427 481 487 495 638 685 568 604 611 586 194 27 0 0
0 0 0 0 0 0 0 0 20 293 479 577 516 452 424 367 324 319 383 369 410 366 479 485 472 444 349 243 152 91 227 249 161 136 365 543 675 753 641 630 814 778 587 559 189 94 0 0 0
0 0 0 0 0 0 0 0 170 225 360 541 549 576 537 514 405 386 294 321 383 278 385 395 461 462 410 210 152 257 360 294 311 275 434 645 738 995 813 583 746 735 647 590 128 5 0 0 0
0 0 0 0 0 0 0 0 76 274 348 423 577 579 606 584 478 474 310 192 303 228 230 317 409 411 436 418 288 325 400 177 353 496 499 638 824 954 911 614 704 562 419 298 69 0 0 0 0
0 0 0 0 0 0 0 0 0 192 227 324 522 532 560 588 564 462 386 205 185 144 207 210 320 359 327 468 345 271 219 313 352 370 470 367 686 1020 1035 605 601 543 404 281 52 0 0 0 0
0 0 0 0 0 0 0 0 0 10 199 205 159 366 535 562 605 419 339 311 107 131 106 200 206 238 215 336 423 546 625 619 549 434 464 608 488 640 1034 648 488 541 454 279 45 0 0 0 0
0 0 0 0 0 0 0 0 0 0 97 212 221 163 202 239 341 401 81 92 252 108 72 154 215 220 230 293 454 461 543 541 220 341 534 583 852 854 967 777 511 472 427 226 2 0 0 0 0
0 0 0 0 0 0 0 0 0 0 0 135 241 254 249 190 134 117 54 6 71 143 41 114 192 239 235 240 443 474 494 295 214 260 491 498 632 793 897 725 590 413 264 107 0 0 0 0 0
0 0 0 0 0 0 0 0 0 0 0 11 50 88 156 210 164 122 74 7 83 128 80 64 230 257 283 235 332 484 529 360 356 276 497 407 531 678 792 726 482 172 56 42 0 0 0 0 0
0 0 0 0 0 0 0 0 0 0 0 0 0 7 1 12 59 83 87 41 4 142 136 201 264 330 333 297 259 373 452 437 438 326 403 400 528 663 864 814 690 294 37 9 0 0 0 0 0
0 0 0 0 0 0 0 0 0 0 0 0 0 0 0 0 0 5 23 37 45 29 122 298 341 322 345 408 378 370 464 532 514 355 283 384 498 675 714 819 774 480 64 6 0 0 0 0 0
0 0 0 0 0 0 0 0 0 0 0 0 0 0 0 0 0 0 0 0 8 18 71 247 411 392 457 552 561 563 592 663 616 350 289 385 438 759 620 809 808 559 69 7 0 0 0 0 0
0 0 0 0 0 0 0 0 0 0 0 0 0 0 0 0 0 0 0 3 5 19 11 101 332 409 494 806 787 762 743 753 671 416 434 414 477 551 523 742 775 544 161 5 2 0 0 0 0
0 0 0 0 0 0 0 0 0 0 0 0 0 0 0 0 0 0 0 0 4 4 19 39 270 366 451 849 969 912 824 801 755 602 583 557 465 399 464 555 673 536 266 80 37 21 14 0 0

GFSSGP_con_sbcape_033.txt.gz
CAPE
321 398 364 331 324 122 99 146 173 94 60 45 23 13 29 35 10 6 10 105 175 147 295 501 1278 1580 1661 1873 2650 2680 2455 2245 2453 2226 1739 1784 1849 1727 1754 1679 1593 1569 1603 1742 1501 1698 1623 1247 1272
425 340 352 40 114 174 134 109 137 86 45 6 3 0 7 12 10 22 57 112 55 162 236 593 1354 1975 1946 2330 2684 2577 1910 1964 2030 1845 1787 1724 1748 1747 1660 1575 1675 1866 1756 1711 1801 1753 1594 1263 1214
327 446 227 141 111 143 87 108 107 42 7 0 3 0 0 16 11 15 19 86 50 69 306 1194 1607 2303 2135 2170 2304 2498 2248 1907 1944 1892 1876 1819 1718 1620 1539 1649 1801 2014 1884 1668 1730 1737 1696 1403 1154
576 324 360 395 182 189 119 162 122 122 49 25 9 10 15 16 17 13 43 46 56 162 420 1479 1985 1807 2104 2095 2199 1878 1915 1926 1926 1936 1842 1689 1579 1471 1550 1669 1898 1936 1676 1528 1499 1633 1617 1380 1284
143 190 352 286 204 170 222 156 208 181 83 23 6 6 34 91 39 49 95 80 149 272 782 1149 2263 2310 2078 2105 2160 1788 1755 1796 1899 1920 1790 1620 1460 1426 1474 1537 1671 1848 1821 1558 1490 1383 1428 1319 1267
596 219 111 98 119 200 280 202 288 237 91 5 9 24 98 128 57 108 99 151 213 373 677 952 1719 2027 2069 1950 1880 1815 1793 1780 1852 1918 1776 1576 1513 1483 1439 1450 1583 1750 1653 1442 1475 1462 1314 1223 1475
120 68 20 44 81 300 396 329 409 250 85 41 36 67 130 101 81 142 150 314 375 545 800 907 955 1567 1652 1707 1673 1782 1914 1869 1837 1800 1866 1712 1503 1458 1418 1433 1498 1447 1468 1432 1317 1399 1396 1274 1564
40 1 10 45 154 247 511 339 320 186 102 49 67 112 70 152 159 220 215 412 497 638 816 1174 809 1039 1218 1397 1562 1561 1786 1906 1919 1840 1762 1651 1633 1458 1520 1522 1438 1697 1364 1398 1409 1393 1462 1452 1482
7 16 89 19 103 113 593 470 256 193 100 52 115 86 78 220 222 250 277 444 612 746 798 891 923 1425 1667 1481 1423 1472 1621 1793 1844 1830 1786 1614 1722 1736 1759 1822 2042 1765 1512 1433 1502 1443 1570 1758 1782
13 166 136 13 73 20 551 533 368 294 111 109 180 116 114 256 273 258 290 360 428 642 798 871 908 1166 1377 1146 1536 1568 1218 1023 1326 1440 1859 1692 1697 1584 1669 1970 1964 1595 1526 1494 1533 1679 1845 1550 1575
486 360 235 0 46 169 555 575 487 386 191 190 316 247 242 278 278 256 231 235 366 469 603 835 974 1238 1171 1044 1326 1487 1204 1170 1341 1805 1827 1619 1719 1673 1686 1872 1739 1812 1494 1561 1416 1724 1563 1864 1426
296 353 293 136 94 410 607 647 529 470 112 96 314 255 323 306 271 240 198 207 320 514 569 728 897 1185 1193 1079 1207 1257 1251 1195 1056 1168 1798 1580 1213 1405 1759 1817 1866 1866 1617 1583 1893 1810 1806 1651 1682
684 242 36 113 27 7 505 636 669 649 262 360 495 364 353 297 267 246 244 278 388 514 528 704 921 1190 1289 1415 1087 1088 1349 1064 853 1163 1215 1021 1170 1689 1847 1701 1694 1918 1457 1427 2279 1864 1712 1558 1392
1 37 0 0 0 0 37 126 592 689 484 668 514 388 331 292 299 334 368 398 383 450 516 759 940 1107 1265 1262 1435 1496 1457 1157 1168 821 821 1046 1154 1857 1855 1778 1542 1802 1919 2093 1736 2094 1599 1677 1574
0 0 0 0 0 0 0 15 438 597 646 651 500 389 355 317 415 476 537 577 445 426 536 702 954 1036 1253 1292 1320 1496 1302 1063 746 666 1041 951 1104 1699 2034 2079 1714 2014 2011 2314 2142 1540 1393 81 17
0 0 0 0 0 0 0 0 53 625 686 669 487 435 498 477 548 590 618 690 618 456 643 761 738 931 1160 1185 1267 1170 1085 860 583 584 650 877 1080 1615 1877 1993 1698 1709 2173 2641 1890 1234 1173 439 22
0 0 0 0 0 0 1 0 14 610 749 750 586 525 515 540 632 696 678 728 755 722 700 755 843 872 1036 1167 1147 1102 920 581 462 506 592 975 1358 1631 1729 1827 1772 2007 1840 2183 1689 1368 967 153 57
0 0 0 0 0 0 5 2 36 575 755 818 653 533 568 535 530 616 645 672 768 865 961 859 847 972 1086 980 1007 853 696 392 281 423 860 1173 1638 1777 1950 1811 2137 1977 1830 1875 1651 1369 642 85 155
0 0 0 0 0 0 0 0 26 514 717 826 808 654 617 584 518 537 604 717 732 863 1006 1147 1137 1537 1080 919 731 504 307 423 831 1269 1591 1700 1766 2015 2201 1913 2103 2078 2007 1976 1764 1111 750 0 158
0 0 0 0 0 0 0 0 2 408 713 793 872 852 786 706 580 585 634 737 827 973 1124 1399 1574 1655 1355 1075 1093 612 736 607 1226 1657 1740 1756 1919 2239 2230 2137 2044 2088 1921 2099 1741 1036 470 192 124
0 0 0 0 0 0 0 0 0 143 465 658 901 840 835 833 747 726 699 735 858 1123 1307 1670 1991 1960 1620 1529 1037 907 1032 1227 1370 1601 1766 1853 2034 2280 2347 2330 2073 2207 2097 1758 1800 1013 584 48 140
0 0 0 0 0 0 0 0 0 6 391 553 659 850 866 925 856 838 827 842 778 1280 1238 1730 1816 2079 1700 2004 1478 1639 954 837 1016 1500 1738 1803 2052 2176 2267 2343 2145 2320 1953 1938 1720 1092 569 105 111
0 0 0 0 0 0 0 0 0 0 107 427 588 734 805 861 908 915 951 1173 926 832 945 1164 1806 1993 2014 1987 1946 1627 1618 1099 1121 1357 2156 2703 2229 2081 2007 2322 2286 2303 2112 2103 1912 1167 563 129 91
0 0 0 0 0 0 0 0 0 0 0 91 400 562 706 854 865 972 1034 1075 992 866 771 839 1678 1896 1990 1956 2009 2163 2144 1959 1378 1479 1473 1470 1525 1693 2069 2118 2379 2348 2180 2183 1921 1422 854 309 151
0 0 0 0 0 0 0 0 0 0 0 0 105 477 560 636 902 969 1081 1064 1268 1381 1232 1200 1558 1723 1850 1789 1874 2024 2093 2298 2321 2059 1485 1793 1504 1573 2182 2516 2489 2281 2309 2150 1822 1451 874 559 240
0 0 0 0 0 0 0 0 0 0 0 0 0 83 466 634 608 704 1067 1327 1194 1131 1421 1257 1432 1639 1756 1701 1813 1988 2137 1641 1828 1864 1388 1440 1376 1639 2262 2527 2477 2434 2212 1904 1581 1337 836 523 506
0 0 0 0 0 0 0 0 0 0 0 0 0 0 100 411 623 707 831 1019 1032 1030 1273 1397 1391 1551 1677 1628 1753 1862 1997 2034 1885 2197 2273 1526 2175 1537 2011 2373 2467 2425 2177 1738 1482 1176 879 473 504
0 0 0 0 0 0 0 0 0 0 0 0 0 0 0 50 233 492 820 1044 1050 789 1180 1347 1345 1506 1629 1669 1678 1660 1760 1976 2062 2246 2224 2161 2212 2055 1871 2096 2187 2336 2255 1807 1427 1059 883 543 326
0 0 0 0 0 0 0 0 0 0 0 0 0 0 0 0 30 67 513 893 1123 842 900 1258 1409 1550 1705 1743 1757 1766 1737 1849 2021 2105 2207 2283 2380 2095 2321 2180 2158 2297 2264 1903 1596 1301 921 627 565
0 0 0 0 0 0 0 0 0 0 0 0 0 0 0 1 65 28 31 274 467 1031 984 923 1337 1477 1632 1727 1847 1883 1943 1959 2021 2121 2209 2316 2400 2279 2686 2450 2198 2310 2219 1974 1740 1477 984 831 733

GFSSGP_con_sbcape_036.txt.gz
CAPE
122 236 270 484 628 520 152 210 248 272 275 228 39 55 22 70 52 81 110 131 254 137 231 616 1439 1643 2003 2266 2731 2743 2277 1977 2316 2154 1871 1931 1857 1838 1731 1573 1566 1767 1677 1596 1719 1628 1341 1394 1465
498 465 281 171 612 293 216 297 271 344 247 159 96 100 82 142 102 102 295 229 113 142 786 872 1726 2090 2106 2312 2604 2683 1938 2023 1991 1951 1996 1872 1882 1768 1626 1654 1907 1808 1687 1896 1829 1652 1322 1263 1213
586 422 536 652 391 221 226 341 490 353 145 217 187 151 157 82 151 169 137 195 226 335 729 1180 1687 2092 2142 2224 2336 2480 1998 1970 1932 1918 1892 1882 1780 1638 1680 1872 1616 1816 1653 1723 1746 1760 1527 1262 1091
504 726 397 801 240 295 293 443 380 316 212 125 175 189 41 64 157 283 291 46 363 416 686 1148 1728 1972 2213 2081 1985 1919 1984 1973 2020 1950 1816 1690 1570 1616 1688 2003 1844 1818 1603 1604 1677 1629 1427 1246 1176
325 362 717 691 241 331 427 465 385 372 342 202 129 46 28 79 213 503 263 266 441 493 775 1302 2251 2424 2398 2119 1943 1936 1921 2012 1990 1816 1720 1607 1504 1529 1577 1725 1976 1883 1650 1601 1493 1479 1427 1384 1318
813 462 463 130 180 443 490 490 491 430 341 139 176 210 323 218 221 312 285 254 335 438 417 930 2105 2194 2337 2074 1882 1768 1821 1958 1989 1852 1730 1633 1554 1497 1502 1576 1756 1708 1595 1468 1484 1373 1261 1381 1462
926 285 211 143 216 368 553 605 516 346 203 146 228 538 379 238 318 217 196 258 310 322 313 543 1003 1655 2114 2047 1838 1837 1821 1858 1929 1891 1758 1623 1555 1516 1482 1489 1514 1461 1534 1379 1429 1489 1428 1456 1501
892 126 202 278 282 508 644 644 614 283 255 202 280 372 397 223 418 376 309 324 414 342 285 491 805 991 1214 1508 1757 1867 1913 1871 1839 1798 1707 1623 1578 1481 1588 1429 1525 1539 1343 1479 1453 1494 1572 1618 1585
461 285 261 195 291 281 770 732 502 282 244 182 253 377 433 422 449 530 381 349 445 394 353 388 524 877 1092 966 1274 1584 1782 1868 1870 1786 1591 1463 1825 1740 1742 1444 1858 1388 1313 1342 1451 1452 1578 1733 1899
596 324 198 129 51 99 568 650 609 337 242 227 456 405 439 443 561 590 660 584 778 505 359 348 425 670 909 653 1115 1149 869 861 1027 1417 1548 1892 1913 1891 1688 1674 1877 1456 1370 1481 1528 1710 1609 1562 1365
422 297 214 24 59 402 572 749 694 489 226 352 562 575 614 558 710 723 830 853 681 537 372 359 518 846 844 714 1018 1043 826 871 1311 1772 1750 1802 1821 2029 1763 1890 1666 1807 1635 1790 1475 1567 1378 1537 1187
508 309 343 101 71 194 710 806 789 615 211 328 692 587 782 755 847 763 736 697 640 631 569 572 674 926 846 784 880 831 579 610 649 822 1656 1962 1868 1794 1915 1718 1671 1816 1936 1319 1013 858 1058 1343 1245
393 230 40 88 95 38 70 427 386 725 369 389 673 619 775 821 802 714 668 624 662 709 727 759 936 1225 1158 1052 700 617 705 497 395 750 1196 1452 1486 1911 1834 1725 1556 1632 1760 1114 1272 1114 968 1112 751
46 117 13 0 0 0 0 71 205 419 627 657 701 729 766 734 730 689 585 561 610 674 688 718 922 1142 1228 1222 1137 938 942 603 590 495 761 1495 1587 2169 1884 1738 1491 1474 1658 1616 643 1095 1077 1392 1093
0 0 0 0 0 0 0 0 18 179 791 909 868 855 755 719 704 696 593 565 600 706 751 743 970 1061 1314 1330 1389 1321 845 721 518 459 950 1413 1657 2137 1844 1491 1608 1377 1422 1331 1284 1680 1688 767 400
0 0 0 0 0 0 0 14 30 172 768 1085 1031 960 788 678 653 709 686 638 656 724 855 876 816 914 1292 1325 1390 1077 972 791 478 428 810 1255 1453 2082 2177 2037 1652 2025 1374 1128 1247 1589 1085 608 215
0 0 0 0 0 0 0 22 46 151 712 986 1140 980 779 739 643 668 632 620 590 686 820 970 1016 933 1163 1452 1390 1305 1098 993 428 418 801 1132 1566 1903 2364 1875 1742 2328 2296 1310 1388 1321 954 323 160
0 0 0 0 0 0 0 6 7 176 588 852 1099 1032 915 803 681 713 722 622 725 756 878 1163 1121 1274 1496 1450 1629 1198 906 779 345 507 754 1174 1648 1795 2444 1909 1671 1785 1770 1551 1572 1624 915 135 35
0 0 0 0 0 0 0 0 3 173 534 719 1055 1166 1117 1051 861 795 847 732 816 954 1125 1297 1383 1850 1655 1485 1267 968 622 437 298 538 911 1689 1990 2345 2798 2260 2234 2190 1716 1765 1718 1177 1208 166 8
0 0 0 0 0 0 0 6 12 104 536 779 971 1036 1169 1148 957 856 924 898 880 1075 1336 1727 1724 1957 2085 1561 1523 711 512 167 289 790 1373 2323 2569 2637 2907 2945 2250 2364 2058 2265 1967 1677 538 258 11
0 0 0 0 0 0 0 0 4 6 180 451 799 933 997 1170 1110 927 850 886 863 977 1282 1846 2400 2329 2315 2306 1360 1085 593 489 485 1018 1784 2449 2481 2679 3055 2698 2636 2452 2449 1846 2247 1882 1284 238 0
0 0 0 0 0 0 0 1 29 9 44 97 302 901 963 1149 1222 1035 829 865 879 1163 1362 2104 2398 2725 2485 2431 1947 2455 888 645 550 1259 1566 1750 2488 2548 2646 2861 2919 3031 2226 2048 2206 1829 1431 1177 14
0 0 0 0 0 0 0 0 0 0 0 21 108 481 950 1171 1216 1213 995 807 834 1108 1296 1713 2425 3236 3344 2754 2640 1893 2072 727 713 903 2715 3261 2738 2607 2315 2778 2973 2959 2781 2492 2639 2229 2137 1055 128
0 0 0 0 0 0 0 0 0 0 0 8 63 290 715 996 1128 1285 1275 895 834 951 1293 1706 2931 3568 3075 2853 2579 3480 3292 2443 1258 1805 1720 1833 1789 2006 2478 2387 3015 3075 2819 2759 2835 2711 2204 1756 723
0 0 0 0 0 0 0 0 0 0 0 0 0 47 585 1081 1059 1154 1377 1369 1005 1050 1363 1632 2680 3337 3120 2780 2844 2929 3349 3342 3468 2710 2042 2528 1511 1376 2631 2630 2785 2836 3193 2833 3016 2884 2092 2062 1385
0 0 0 0 0 0 0 0 0 0 0 0 0 0 158 836 1114 1090 1351 1540 1579 1475 1927 2094 2753 3286 3334 2985 3668 3843 3969 2357 2270 2866 2100 1932 1558 1633 1756 2203 2552 2853 2869 3120 3109 2689 2200 1799 1741
0 0 0 0 0 0 0 0 0 0 0 0 0 0 0 576 971 1193 1251 1442 1734 1924 2476 2645 3080 3390 3019 2602 3708 3826 3713 3503 2461 3172 3429 2302 2999 1789 1883 2104 2786 2839 2832 3126 3059 2460 2108 1596 1833
0 0 0 0 0 0 0 0 0 0 0 0 0 0 0 68 738 885 1214 1387 1602 1867 2060 2526 3012 3383 3372 2749 2918 2802 3106 3752 3632 3737 3725 3344 2940 2994 2264 2324 2621 2768 2826 3051 3054 2506 2211 1878 1518
0 0 0 0 0 0 0 0 0 0 0 0 0 0 0 28 392 770 872 1054 1286 1544 1866 2028 2420 2939 2985 3062 3300 3261 2858 2913 3191 3492 3773 3840 3234 3654 3013 3097 2547 2445 2625 2952 3123 2813 2219 2029 1811
0 0 0 0 0 0 0 0 0 0 0 0 0 0 0 0 55 179 360 644 1022 1362 1493 1612 1861 2092 2244 2895 3458 3329 3107 3231 3003 3356 3496 3955 3839 3549 3551 3289 3047 2764 2499 2872 3143 2891 2226 2153 1968

GFSSGP_con_sbcape_039.txt.gz
CAPE
63 59 172 653 790 732 209 96 82 204 152 48 10 54 131 82 89 149 3 60 13 119 362 719 1602 1923 1929 2281 2693 2429 2083 2033 2238 2004 1875 1946 1895 1742 1532 1650 1865 1780 1690 1773 1696 1470 1420 1443 1553
149 334 733 609 586 330 105 106 95 200 337 146 164 37 251 158 69 40 7 134 2 0 292 798 1709 2145 2247 2344 2543 2591 1965 2099 1979 2048 1951 1898 1807 1630 1602 1766 1695 1692 1967 1825 1663 1434 1283 1259 1194
305 296 647 1016 467 90 76 113 293 320 275 174 271 138 265 402 139 9 21 10 3 113 605 1304 1626 2024 2354 2330 2196 2401 1970 1967 2002 1875 1900 1864 1672 1666 1877 1592 1804 1696 1751 1752 1734 1479 1419 1221 1087
893 933 907 444 457 226 151 252 290 307 201 243 242 285 303 429 326 262 346 11 12 732 690 1297 1838 2149 2113 2011 1966 1944 1964 1966 1985 1874 1760 1644 1664 1758 1987 1901 1918 1635 1639 1616 1581 1389 1297 1252 1189
744 781 864 830 205 101 244 301 366 331 406 269 253 324 224 163 353 522 140 178 368 610 901 1295 2194 2403 2075 1934 1898 1968 1950 2028 1895 1732 1614 1601 1631 1660 1774 2022 1978 1716 1605 1560 1495 1467 1456 1446 1484
1051 785 179 126 112 119 159 303 262 392 467 411 451 407 425 391 548 331 347 441 547 832 717 1313 2056 2373 2155 1838 1920 1954 1985 1966 1808 1782 1654 1630 1607 1614 1666 1815 1817 1744 1522 1503 1430 1333 1414 1523 1600
1041 829 283 60 123 249 221 203 163 340 313 541 507 652 476 594 553 206 354 363 514 584 948 1012 1189 1761 2001 1876 1851 1769 1830 1886 1827 1804 1698 1673 1637 1574 1506 1584 1591 1629 1582 1509 1522 1464 1451 1528 1656
1449 696 221 198 29 139 125 209 163 293 435 528 664 706 633 658 515 333 359 321 565 429 321 316 592 998 1259 1434 1750 1740 1753 1784 1797 1750 1705 1684 1659 1681 1578 1502 1597 1440 1511 1585 1532 1557 1621 1636 1836
1055 689 220 58 8 171 142 85 118 243 349 447 510 714 707 558 511 318 346 333 382 299 146 173 374 827 1182 1134 1545 1745 1757 1769 1669 1648 1570 1680 2161 2154 1972 1728 1351 1247 1329 1417 1498 1568 1537 1526 1784
600 418 49 22 34 41 250 58 57 163 275 333 691 758 669 617 404 598 458 408 464 313 187 237 362 597 728 455 1106 1079 881 851 1014 1359 1452 1297 2040 1917 1617 1451 1581 1364 1381 1477 1479 1544 1825 1364 1183
290 175 164 38 94 98 121 140 57 76 236 376 765 799 670 872 835 720 686 601 502 450 251 264 475 651 549 853 692 826 638 852 1206 2398 1895 2301 2025 1549 1101 1457 1408 1431 1590 1129 1694 1159 1498 987 976
154 211 248 95 70 308 181 151 173 97 69 429 629 789 718 825 914 984 990 900 810 482 318 230 470 832 633 760 597 603 512 712 853 1332 1899 2528 1865 1888 2695 1595 2058 1160 1377 1371 1210 1351 1134 1128 614
100 202 307 255 158 115 303 340 430 338 84 303 643 773 809 858 849 893 893 804 735 509 340 318 522 1379 1349 1100 634 622 523 430 514 995 1621 2216 2180 2289 1801 1753 1739 2416 1425 1218 1765 1700 913 614 826
78 153 294 103 120 53 69 132 187 631 338 646 677 863 867 932 908 903 861 752 580 488 453 436 664 1172 1219 1576 1464 776 668 519 496 609 1044 1665 1817 2041 2576 2079 2065 2325 1467 705 839 1791 1154 1266 885
73 47 204 195 49 2 20 65 168 528 630 774 809 864 951 979 921 825 737 703 528 552 571 606 846 1075 1318 1398 1385 1162 719 597 495 573 1107 1491 1801 1919 2256 1390 2221 1718 1572 1833 2269 1261 1438 820 341
7 19 33 3 11 1 0 58 37 195 902 937 882 878 837 879 827 778 718 705 627 578 803 739 608 891 1225 1415 1444 1114 711 550 521 491 1000 1492 1752 1986 2023 1794 1868 2271 1509 1012 1716 1024 1128 1232 265
0 1 24 21 5 19 0 21 15 85 639 1054 1084 1018 830 787 808 797 665 626 602 723 1042 986 904 853 1218 1968 1414 1303 1697 874 530 428 708 2005 1772 2010 2374 2247 1788 2616 2149 1071 1081 1016 572 46 97
0 0 11 13 18 12 18 6 34 100 403 731 1169 1154 1029 794 703 760 678 600 620 760 962 1383 1042 2186 2649 1849 2233 1189 792 835 661 412 597 1915 1846 2012 2361 2233 2015 1775 1715 1991 2042 1497 187 71 1
0 6 11 91 22 25 53 77 50 85 317 595 1064 1202 1162 1023 733 647 719 598 578 717 992 1958 1980 2879 2092 1533 1319 1183 720 847 547 438 845 1307 1689 2031 2630 2385 2262 1870 2289 1914 1015 1536 691 67 0
0 5 29 43 23 6 61 54 72 106 330 569 923 1068 1140 1089 958 632 725 630 525 809 1574 2424 2758 3431 2973 1890 2176 1307 1407 435 394 305 1789 1514 2035 2462 2716 3595 1866 2519 2694 2010 1345 1244 1066 110 0
0 0 0 17 33 3 11 33 81 83 161 583 787 886 1018 1161 1164 948 725 733 655 1012 1982 2344 3125 3444 3124 2824 2418 2254 1506 1241 364 454 871 1711 2129 2474 3251 2454 2226 2354 2188 2822 2319 1462 918 570 0
0 0 0 0 10 35 0 31 39 41 104 261 717 845 893 1063 1199 1215 843 742 706 1075 1346 2744 3452 3682 3459 3524 2149 2415 967 480 214 461 500 1672 2605 2437 2666 2453 1972 2482 2391 2818 2506 1558 1652 1297 224
0 0 0 0 0 7 12 47 46 47 57 93 177 582 777 923 1144 1238 1137 785 704 898 1036 2119 3733 3933 3708 3617 3095 2008 1935 445 386 384 1874 2622 3740 2725 2295 3341 3454 3240 2439 3325 2194 2166 2241 1409 688
0 0 0 0 0 0 0 0 9 18 62 77 82 109 438 776 993 1255 1267 976 697 623 865 1858 3520 4155 4213 4088 3756 4045 2643 2048 881 955 1077 1364 1533 2454 3477 2879 3908 3616 3199 2705 2465 2797 2457 2136 892
0 0 0 0 0 0 0 0 0 4 15 41 43 111 150 625 1079 1206 1255 1117 1032 1161 1538 2004 3438 4207 4295 4224 3873 3773 3709 3339 4059 3209 1279 1846 1276 1125 2988 3716 3705 2678 3729 3297 3711 4041 2810 2353 1939
0 0 0 0 0 0 0 0 0 0 3 19 27 81 130 288 908 1194 1340 1307 1626 1498 1980 2020 3287 4203 4362 4177 4226 4220 4215 2671 2460 2814 1687 1520 1296 1233 3030 3982 3649 3722 3632 3206 4154 2968 2649 2978 2112
0 0 0 0 0 0 0 0 0 0 0 0 0 13 32 164 796 1079 1274 1423 1879 1723 2230 2467 3198 4015 4277 4129 4239 4387 4314 3965 2768 3140 3566 2597 2796 1534 2960 3248 3582 3421 3565 3916 4204 2511 3456 2913 2603
0 0 0 0 0 0 0 0 0 0 0 0 0 0 0 61 609 1089 1197 1409 1987 1698 1913 2543 3068 3941 4192 4046 4208 4245 4345 4357 3945 3916 3977 3200 3335 3723 3449 3251 3079 3376 3797 3994 4236 3103 3513 3327 2207
0 0 0 0 0 0 0 0 0 0 0 0 0 0 0 0 376 996 1226 1333 1714 1785 1821 2215 2750 3673 4089 4189 4162 4170 4211 4119 4352 4092 4149 4112 4082 4442 3871 4099 3650 3884 3950 4040 4261 3843 3582 3470 3117
0 0 0 0 0 0 0 0 0 0 0 0 0 0 0 0 154 838 928 1248 1394 1716 1918 2123 2528 2459 3573 3655 4175 4143 4197 4104 4164 4278 4157 4315 4402 4246 4498 4487 4178 4155 3909 4068 4231 3771 2558 3576 3070

GFSSGP_con_sbcape_042.txt.gz
CAPE
27 15 114 177 1016 475 425 150 123 112 110 30 86 68 187 78 50 61 23 5 4 94 318 1022 2180 2275 2385 2561 2437 2535 2488 2470 2423 2347 2401 2183 1820 1962 2085 2022 1821 1749 1820 1772 1561 1511 1529 1520 1538
30 45 428 599 508 157 62 230 178 147 156 60 156 121 223 165 17 6 19 14 0 39 373 1018 2170 2314 2337 2333 2581 2475 2427 2019 2371 2415 2164 2123 1602 1968 2036 1716 1726 2053 1850 1722 1546 1384 1338 1297 1228
384 273 466 600 258 129 134 142 170 234 175 198 291 295 415 137 1 7 8 1 5 47 408 1453 1945 2120 2131 2592 2548 2516 2378 2136 2108 2006 2010 1629 1715 1896 1693 1778 1662 1736 1695 1677 1539 1495 1293 1158 1097
622 638 617 771 246 86 225 250 230 271 204 263 178 299 246 54 0 1 1 0 0 442 836 1767 2148 2049 2442 2550 2475 2342 2213 1991 2091 1917 1612 1640 1793 1983 1897 1820 1622 1667 1630 1574 1476 1422 1340 1225 1309
847 555 29 7 422 255 250 184 398 275 254 301 284 259 49 22 0 3 0 0 216 454 1051 1513 2326 2335 2592 2437 2371 2279 2069 1848 1932 1740 1562 1575 1640 1791 1995 1909 1654 1614 1617 1576 1540 1526 1524 1483 1447
852 9 13 6 9 143 152 269 241 231 442 533 223 221 214 281 78 51 0 0 563 603 649 1400 2201 2363 2415 2138 2183 2319 1918 1720 1762 1647 1562 1591 1574 1638 1828 1800 1691 1515 1491 1480 1368 1377 1484 1535 1599
658 37 79 62 6 176 125 175 123 140 514 555 385 446 265 341 233 0 48 413 586 630 895 1344 1598 1799 2075 2325 1959 1893 1819 1774 1768 1597 1540 1548 1572 1531 1567 1616 1652 1603 1540 1537 1501 1436 1491 1473 1580
994 799 327 269 50 68 155 46 76 315 633 555 383 387 461 342 93 529 403 500 495 575 802 1235 1348 997 1233 1418 1639 1733 1762 1694 1702 1656 1575 1558 1559 1563 1393 1954 1893 1605 1661 1565 1528 1471 1506 1597 1609
210 696 591 85 9 38 54 230 211 203 881 670 748 652 560 333 207 356 412 455 691 580 499 515 504 1362 1770 1555 1483 1688 1672 1576 1571 1529 1477 1772 2155 1665 1683 2220 2082 1387 1344 1477 1400 1357 1517 1641 1945
313 26 69 89 2 67 23 17 103 140 220 767 642 752 457 439 376 319 459 448 483 183 139 192 489 975 1176 576 1680 1875 1259 1059 1445 1289 0 0 1687 1847 1807 1615 2209 1247 1282 1360 1573 1106 1419 1351 964
201 69 8 110 7 116 38 25 80 76 179 785 778 724 629 431 457 384 394 409 337 414 48 200 791 1202 895 995 1084 1253 1168 1234 873 463 21 241 1099 2078 1856 1654 1015 163 974 1238 1368 648 1441 1681 1297
141 6 35 42 102 130 126 148 59 23 114 794 730 610 649 581 475 407 436 537 400 450 238 294 891 1294 1050 1030 535 1017 956 933 1334 1708 1649 2273 1384 1031 1069 1283 930 311 739 1380 1334 1638 1317 1303 1638
61 48 60 106 160 143 79 199 1 46 143 655 704 636 623 670 532 592 603 470 556 508 293 516 1044 1736 2331 2386 911 909 1650 1055 1579 2144 2445 2205 1079 1597 1331 1804 1149 1573 1310 1354 2206 1723 1339 103 1063
42 78 151 224 116 255 284 285 56 67 83 484 642 646 667 661 710 1033 914 802 747 468 442 887 1234 1746 2579 2394 3233 1523 2144 1017 1395 1500 2080 2574 1715 1875 2866 2014 1810 2049 735 943 2055 2417 2102 1484 884
23 34 97 79 66 66 16 376 299 18 174 293 513 660 597 569 1201 1051 1030 1065 834 566 536 960 1300 1343 2262 2375 2275 2436 2134 597 1094 1521 2666 2063 2645 2942 3221 2295 1955 1221 2389 2635 1954 2171 834 425 1142
23 33 50 85 128 39 0 45 481 208 409 469 460 566 666 512 355 848 1007 702 705 451 842 1114 442 1155 1458 1959 2340 2075 1352 1449 1506 1497 2183 2408 2508 2690 2359 573 1572 1436 2901 2340 2340 852 1727 1118 1057
16 19 65 96 108 59 0 1 1 486 378 600 569 510 552 819 645 788 430 684 528 692 1275 1433 1294 1286 1454 2376 2059 1714 1832 1962 1797 1766 2007 2690 2988 2980 2857 1289 647 920 2685 1668 1993 1361 1777 1208 413
25 5 39 80 40 26 32 2 35 36 478 638 836 654 632 623 695 721 496 539 644 1083 1565 1440 1419 2218 1961 1819 2222 1692 1373 1623 1649 1927 1874 2761 2882 2967 2762 1154 923 2230 951 2630 2506 2086 824 1110 150
12 10 0 46 109 21 22 19 52 21 32 682 608 940 744 706 722 837 667 596 764 1086 1635 1593 1965 2549 2078 1841 1701 1680 1175 1466 1758 1877 2214 3105 3129 3237 3053 2590 1859 2794 2257 1542 2835 1265 1587 1289 136
0 2 1 2 67 38 37 25 22 71 80 682 852 938 913 698 668 876 827 625 579 1006 1597 1948 1933 2600 2399 2017 1903 1685 1994 1314 1303 1591 2507 2571 2776 3094 3680 2283 2794 2330 2467 2851 2222 2600 1893 977 980
0 0 0 13 19 3 14 40 71 33 1 214 728 830 928 1007 826 802 859 735 629 1224 1579 2002 2101 2847 2637 2262 2383 2700 2483 2680 1867 1294 1394 2207 2842 3252 3193 2964 2798 2593 3483 3027 2975 2182 2111 546 287
0 0 0 10 62 58 51 56 104 46 90 247 461 545 993 1122 1136 908 962 905 781 1074 1463 2041 2242 2379 2724 2707 2103 2354 1409 1124 985 1263 1238 1855 2279 2721 3262 3024 2596 3404 2580 2296 2599 3032 2799 1896 736
0 0 0 0 0 5 16 23 77 55 88 278 407 558 646 1117 1091 1055 909 957 894 1032 1485 1953 2356 2541 2834 2167 2911 2026 1855 1168 1094 1338 1597 2417 2819 3243 3274 3360 3147 3970 2797 2978 2697 3113 2666 2960 1947
0 0 0 0 0 1 0 16 46 35 32 59 205 705 703 974 1201 1346 1109 1047 974 1128 1631 1865 2582 2677 2955 2887 2318 3335 1995 1893 960 1047 1471 2127 2847 2756 3650 3476 3386 3551 3542 3383 3337 4075 3527 3078 2877
0 0 0 0 0 0 0 0 0 22 65 39 235 206 806 933 1197 1523 1500 1222 1068 1196 1546 1891 2754 2810 2866 3138 2684 2311 3415 1991 2467 3258 1055 1508 1800 2402 2788 3403 3542 3234 3309 3533 3689 4023 3969 3398 2979
0 0 0 0 0 0 0 0 0 0 3 25 111 102 233 615 1016 1337 1652 1460 1243 1172 1430 1813 2765 3005 3227 3080 3181 2633 2940 2833 1641 2592 1732 1281 1730 1898 2998 2677 3271 3000 3276 3288 3871 3898 3326 3406 2823
0 0 0 0 0 0 0 0 0 0 0 4 33 129 155 413 696 1101 1745 1636 1429 1212 1405 1619 2308 3004 3233 3069 3292 3333 2495 3152 2289 1855 2735 2677 2099 2552 3632 2957 3179 3008 3373 3122 3840 3104 3534 3657 2961
0 0 0 0 0 0 0 0 0 0 0 0 11 37 153 294 635 1282 1627 1725 1585 1313 1362 1661 2189 2784 3236 3341 3233 3422 3274 2928 2760 2410 2809 2339 3304 2694 4148 3391 3187 3372 3395 3562 3547 3485 3448 3331 3125
0 0 0 0 0 0 0 5 23 22 0 2 2 0 38 365 613 1028 1564 1781 1831 1549 1464 1636 1900 2880 3354 3514 3569 3495 3565 3267 2972 2684 2913 3488 2859 4182 3152 3883 3436 3395 3351 3352 3774 3062 3066 3499 2891
0 0 0 0 0 0 0 1 0 1 0 0 0 0 4 194 767 983 1438 1674 1979 1899 1693 1748 1962 2355 3228 3781 3784 3594 3600 3834 3562 3055 2945 3210 3788 3239 4178 3766 3488 3312 3224 3452 3317 3301 2368 3213 2974

GFSSGP_con_sbcape_045.txt.gz
CAPE
20 5 5 143 149 76 158 123 215 159 38 122 13 71 155 112 5 0 0 0 27 188 631 1640 2378 2453 2370 2250 2549 2290 2152 1838 2032 2252 2422 1868 1737 2011 1910 1800 1805 1859 1720 1597 1638 1575 1569 1569 1328
3 1 318 215 710 60 89 64 90 108 20 15 115 154 121 22 0 13 0 0 17 146 774 1438 2352 2406 1933 2395 2515 2323 1735 1921 2115 2497 2353 1956 2274 2248 1830 1904 2098 1888 1697 1572 1449 1460 1464 1375 1334
4 80 168 219 76 64 94 111 122 65 155 254 212 172 190 4 13 2 0 2 2 180 1032 1455 2282 2459 2324 2300 2334 2581 2289 1802 1947 2250 1857 1978 2501 1973 1828 1717 1774 1727 1685 1578 1555 1395 1303 1225 1149
402 491 422 231 173 178 84 165 261 188 262 209 158 91 0 0 2 3 9 1 0 738 1195 2046 2218 2175 2412 2325 2309 1988 1898 1746 2182 2220 1900 2076 2161 1919 1832 1732 1765 1702 1640 1574 1513 1451 1364 1327 1254
690 314 4 4 0 184 163 202 223 264 265 212 186 0 0 3 0 2 10 6 294 876 1405 1702 2374 2335 2508 2233 2020 2095 1893 1829 2010 1975 1766 1886 1997 2076 1929 1782 1781 1745 1690 1640 1615 1605 1552 1553 1325
518 42 28 8 9 49 69 266 298 333 399 94 26 62 24 0 0 0 0 0 611 884 1273 1540 1973 2504 2411 1788 1771 2208 1779 1722 2062 1958 1656 1730 1801 1962 2512 1803 1683 1677 1641 1510 1453 1495 1542 1639 1402
284 0 0 36 83 153 349 283 394 470 361 191 120 161 13 0 0 0 0 150 524 704 1158 1426 1587 1525 1796 2345 1938 1948 1716 1803 1804 1665 1622 1606 1617 1687 1796 1883 2054 1711 1686 1603 1536 1479 1493 1612 1499
392 0 0 52 122 27 184 232 415 485 388 399 272 166 101 4 0 0 3 219 367 840 1191 1232 1226 1171 1430 1561 1862 1828 1738 1827 1735 1694 1610 1539 1454 1389 1588 2003 2077 1768 1650 1578 1500 1506 1538 1632 1594
472 250 159 218 8 22 15 390 530 493 439 372 285 260 140 0 0 77 150 194 306 668 967 939 855 865 958 1062 1375 1649 1693 1737 1766 1713 1689 1474 1160 1175 1213 1493 1906 1547 1459 1487 1391 1480 1675 1749 1713
162 167 209 119 60 5 0 65 610 609 602 485 367 299 20 16 112 195 229 303 319 492 591 540 526 603 788 956 1122 1174 1240 1160 1133 1000 0 0 80 888 1407 1574 2074 1572 1545 1822 1554 1361 1735 1399 739
114 197 78 44 35 59 6 19 31 584 702 536 465 290 167 357 202 209 220 318 300 182 174 77 502 661 524 786 900 1027 747 632 839 115 14 1 971 745 734 840 561 0 86 612 848 432 562 779 845
65 210 18 40 9 58 55 5 10 641 774 585 507 325 209 342 204 225 264 199 198 35 0 0 319 509 347 356 475 664 620 620 349 440 120 0 423 0 420 738 210 130 203 480 1007 773 746 593 873
13 42 50 35 0 83 41 19 31 724 838 606 439 375 288 251 238 213 286 88 127 35 0 16 207 355 418 205 35 244 393 536 505 737 445 611 403 98 880 934 544 289 344 451 1065 1045 669 133 76
1 51 54 5 20 66 5 60 2 718 598 605 526 358 383 271 301 245 147 98 61 24 0 106 193 511 375 825 554 180 883 346 1124 1378 1219 642 649 733 907 862 842 790 491 0 1233 1137 1012 698 508
0 23 81 96 92 188 32 79 18 584 615 543 561 423 329 280 245 241 141 109 49 23 51 130 204 795 675 732 824 1035 918 217 250 1287 1249 1068 535 637 1018 1065 898 495 613 304 1315 956 249 134 178
0 0 0 61 2 98 85 72 113 268 557 534 520 550 477 339 346 225 193 117 84 94 228 272 271 727 1035 734 816 1018 706 805 401 1077 1036 1221 1404 1545 444 477 838 724 1037 1169 888 1019 512 121 429
0 0 1 39 0 48 142 141 140 76 381 522 500 476 426 377 443 296 221 122 139 65 274 305 244 395 1018 783 1039 721 764 814 786 1107 997 1033 1274 1650 555 419 208 0 1047 1288 1029 335 725 411 443
0 0 3 6 21 58 38 6 88 94 109 347 454 371 272 464 489 515 414 305 126 6 142 88 319 265 542 985 1106 634 465 701 737 688 1090 1379 1497 1802 1383 684 168 139 845 1442 1264 226 25 41 24
0 0 0 0 30 13 17 0 168 73 199 372 539 412 370 235 73 416 402 135 0 117 318 77 519 569 350 1203 925 943 449 533 616 499 1569 1565 1573 1740 1342 668 636 664 1041 588 1311 149 202 74 16
0 0 0 0 0 1 0 0 21 122 269 291 389 267 388 369 255 172 47 59 65 364 257 410 700 879 517 856 540 734 705 480 577 424 1327 1716 1773 1827 1737 1330 1249 1209 1002 937 1190 576 413 39 19
0 0 0 0 0 0 1 2 21 221 225 83 250 377 356 388 320 177 76 69 131 465 313 477 570 1215 762 888 812 801 809 668 707 470 243 1634 1475 1558 1976 1447 1449 863 1364 1078 1062 621 692 1 14
0 0 0 0 0 21 0 0 0 12 224 210 531 619 279 358 302 264 153 127 148 499 577 438 771 1551 1061 1094 1028 858 696 508 754 343 329 1037 1661 1749 1638 1719 1444 1350 1342 1332 1118 901 342 0 0
0 0 0 0 0 0 0 0 0 2 0 310 616 320 116 420 313 320 255 263 107 364 790 681 748 1309 1344 1139 939 1016 837 601 221 510 316 917 986 1266 2238 1651 1606 1384 1577 979 919 1651 1063 127 80
0 0 0 0 0 0 0 0 0 0 1 538 512 374 391 632 455 285 356 316 213 543 852 984 839 1107 1372 1228 1264 870 1004 476 562 95 237 796 1380 1546 1958 2082 1837 1948 1611 1388 1389 1364 775 1215 853
0 0 0 0 0 0 0 0 0 0 0 37 201 410 286 483 521 434 397 330 345 584 703 1086 1031 943 1401 1253 958 1464 834 849 352 318 58 588 1784 1625 2023 2380 1890 1914 1902 2013 1842 2119 1443 989 1147
0 0 0 0 0 0 0 0 0 0 0 4 174 346 472 419 639 559 398 412 355 424 742 1152 1136 1126 1155 1627 1173 766 1648 1065 752 921 810 209 1105 1425 1329 1981 2139 1760 1882 1972 2111 1967 2234 1751 1080
0 0 0 0 0 0 0 0 0 0 0 0 0 379 241 291 657 623 492 501 365 535 866 962 1356 1177 1407 1543 1638 1193 941 2036 867 364 996 338 715 1057 1607 1810 2306 1886 1924 1838 1821 2484 2012 2098 1541
0 0 0 0 0 0 0 0 0 0 0 0 0 6 227 446 797 815 668 596 483 509 851 1014 1395 1460 1525 1618 1786 1786 1260 932 1829 681 586 1555 844 736 1753 1867 1860 1951 2036 1981 1886 2401 2369 1912 1891
0 0 0 0 0 0 0 0 0 0 0 0 0 0 14 391 858 1118 953 804 617 498 770 1023 1316 1806 1847 1881 1707 2049 1939 1493 1344 1674 685 1279 1418 1914 1427 2065 1883 2059 2167 2230 1962 2066 2157 2347 2094
0 0 0 0 0 0 0 0 0 0 0 0 0 0 0 190 706 1247 1143 1045 832 628 692 917 1202 1867 2045 2164 2135 2012 2288 2243 1531 1555 1830 666 1842 1559 2337 2498 2295 2425 2232 2186 2434 2226 2295 1837 2173

GFSSGP_con_sbcape_048.txt.gz
CAPE
19 5 1 98 18 89 87 94 212 127 93 289 1 2 33 2 13 1 0 0 4 198 958 1321 2173 2094 1919 2406 2095 2211 1653 1889 2183 1912 1919 1946 1994 1935 1909 2034 1875 1895 1785 1852 1636 1716 1757 1475 1059
4 0 201 198 470 56 82 152 129 181 183 119 102 152 74 5 7 7 0 0 80 419 1182 1693 2278 2142 1852 2218 2183 2189 1893 1956 2010 1875 1914 2151 1963 1874 2296 2023 1968 1817 1679 1630 1676 1650 1423 1538 1367
0 21 206 153 27 96 117 82 152 167 121 232 173 49 14 11 4 0 0 18 144 827 1226 1590 2500 2486 1949 1859 2178 2060 2042 2161 1691 1842 2067 1999 2177 1790 1799 1896 1759 1784 1723 1693 1553 1470 1407 1359 1269
5 387 294 91 19 145 177 362 183 157 277 180 81 0 0 0 0 0 2 15 345 943 1203 2120 2321 1803 1922 2083 1707 1916 1689 2104 1777 1979 2229 2162 1946 1796 1854 1789 1756 1735 1709 1656 1593 1511 1429 1469 1248
545 147 0 4 10 14 77 143 242 236 269 194 11 2 4 11 0 0 0 65 746 1084 1455 1683 2707 2449 2219 1867 1839 1645 1799 1801 1805 1957 2019 2166 2088 2025 1932 1968 1893 1854 1794 1749 1755 1696 1657 1477 1353
233 18 15 6 15 35 95 196 376 321 70 0 0 0 9 0 0 0 0 582 869 1279 1503 1694 2339 2530 2097 1698 1755 1782 1736 1605 1770 1783 1866 1955 2145 2085 1912 1820 1796 1740 1658 1556 1608 1636 1710 1613 1340
25 0 1 0 24 67 196 1 430 282 182 61 6 2 4 0 0 0 38 628 991 1332 1421 1567 1539 1563 1708 1894 1961 1684 1732 1723 1740 1778 1756 1754 1794 1861 1924 1872 1796 1724 1693 1648 1661 1701 1653 1594 1353
9 0 13 34 0 10 42 177 439 321 250 149 1 0 7 0 0 0 95 637 936 1198 1362 1278 1124 1129 1437 1566 1889 1709 1842 1794 1751 1733 1698 1608 1502 1499 1639 1898 2107 1675 1591 1545 1584 1704 1732 1603 1676
1 21 26 105 24 7 14 332 320 319 260 237 178 0 0 0 0 0 143 540 862 1191 1235 1073 947 1061 1105 1211 1465 1653 1884 1865 1809 1623 1720 1455 851 981 1204 1519 1655 1518 1450 1467 1310 1543 1772 1648 1578
427 84 23 60 17 2 47 281 360 348 352 171 106 27 0 0 0 4 235 522 741 905 1023 894 808 787 822 1301 1175 1011 1221 1332 1125 666 2 0 217 760 1267 1399 1646 1511 1677 1681 1622 1202 1450 1435 589
398 144 104 31 41 40 1 481 518 471 343 205 127 0 0 0 0 126 241 475 624 780 872 630 554 537 694 855 827 759 804 761 582 7 0 7 655 666 780 795 115 0 25 211 713 509 73 619 632
52 113 94 17 10 54 6 13 630 627 399 301 88 0 0 0 156 197 199 311 507 638 634 399 359 516 255 622 604 593 508 360 324 85 0 99 34 259 102 390 16 37 5 65 450 789 741 698 589
37 75 138 91 15 20 2 41 373 688 435 293 33 0 1 71 248 284 278 281 305 317 237 240 329 322 154 156 154 328 315 349 207 250 28 108 0 0 66 279 369 134 245 280 504 755 731 293 36
5 31 41 134 9 34 42 13 174 630 458 248 123 160 220 194 267 247 256 223 142 88 55 89 315 180 199 16 0 20 106 191 246 361 321 336 273 293 515 544 579 331 287 390 86 716 622 245 96
0 0 2 6 18 47 56 0 880 669 538 347 212 229 267 186 158 234 250 150 209 6 0 33 175 153 92 0 0 0 176 125 387 618 694 393 3 390 609 419 612 538 363 315 223 649 89 34 124
0 0 0 36 32 125 3 2 778 567 450 400 250 221 245 210 135 215 163 125 117 16 0 18 137 318 5 499 307 472 123 4 324 819 853 503 254 585 562 595 518 450 630 760 722 649 200 33 186
0 0 0 6 67 131 6 4 767 574 435 375 270 263 287 183 180 188 145 132 92 0 0 25 26 487 30 454 252 379 380 321 309 581 596 877 980 434 35 223 388 223 228 1137 744 329 305 145 186
0 0 0 0 14 79 39 7 558 574 492 455 357 282 300 195 127 126 148 133 85 0 0 0 13 482 143 382 158 154 136 113 278 687 529 653 1047 560 162 269 0 0 795 725 700 337 68 95 91
0 0 0 0 0 64 10 59 48 556 413 521 458 397 304 260 187 134 138 119 98 65 55 33 21 243 318 438 270 99 42 14 104 153 626 735 877 1243 761 507 236 159 635 684 310 0 0 0 16
0 0 0 0 0 8 38 63 74 451 411 445 466 492 427 393 234 260 156 90 102 87 93 50 17 15 412 331 344 126 7 0 43 25 875 848 1010 1269 852 490 476 507 889 338 572 77 145 0 3
0 0 0 0 0 0 15 8 62 93 428 464 435 451 441 322 331 243 258 140 154 50 108 78 57 4 162 414 202 308 257 100 128 66 365 996 1095 1281 1241 869 964 789 841 632 637 258 2 0 12
0 0 0 0 0 0 0 0 2 74 175 365 379 330 277 257 272 333 301 242 131 20 73 173 215 141 57 436 254 426 455 572 178 101 0 915 1101 1248 1453 1044 1012 638 771 901 796 101 163 0 0
0 0 0 0 0 0 0 1 1 44 205 139 86 48 39 287 215 129 298 199 70 63 109 140 528 322 269 506 358 228 272 297 78 142 61 255 1027 903 1035 1283 1056 760 902 830 535 908 294 0 0
0 0 0 0 0 0 0 0 0 25 209 122 26 40 58 274 300 168 76 14 15 126 58 244 605 527 454 548 434 352 251 186 187 74 25 14 486 737 1365 1215 1038 878 854 974 502 956 513 169 0
0 0 0 0 0 0 0 0 0 19 204 72 66 141 187 331 324 247 115 52 54 261 205 178 398 808 660 597 611 496 410 241 232 87 4 7 591 651 873 1614 1241 1177 1047 966 729 938 675 416 769
0 0 0 0 0 0 0 0 0 0 0 186 139 297 508 138 226 269 198 97 73 270 432 311 340 548 873 734 617 551 366 493 289 96 0 0 295 891 902 1493 1461 1243 1404 1271 1308 1197 934 398 590
0 0 0 0 0 0 0 0 0 0 0 71 339 542 546 256 163 344 268 186 157 263 560 576 418 373 845 889 796 804 660 535 582 254 24 0 91 990 955 1332 1787 1322 1334 1365 1403 1381 1555 1340 750
0 0 0 0 0 0 0 0 0 0 0 0 245 569 679 357 507 278 278 314 215 259 480 715 656 511 594 1008 825 636 726 1278 775 297 251 839 14 647 1099 1014 1750 1648 1362 1277 1210 1448 1586 1738 1366
0 0 0 0 0 0 0 0 0 0 0 0 5 401 466 427 621 244 426 394 282 292 518 756 827 734 773 805 1143 990 695 479 1368 692 98 178 648 144 677 1119 1329 1717 1618 1362 1229 1174 1694 1498 1588
0 0 0 0 0 0 0 0 0 0 0 0 0 183 363 448 450 300 579 444 389 345 524 659 957 917 886 1019 1095 1313 1204 873 518 1368 836 381 362 713 578 1124 1301 1576 1664 1565 1443 1362 1612 1854 1624

GFSSGP_con_sbcape_051.txt.gz
CAPE
66 50 0 46 83 159 32 83 265 184 191 357 0 1 3 28 26 1 0 0 56 377 1127 1817 2234 1998 1796 2212 1913 2047 1940 2225 2239 2399 2118 1950 2023 2039 1964 1991 2086 2084 1873 1567 1828 1689 1195 1009 1109
28 30 113 195 437 27 25 66 164 129 125 71 99 74 27 3 5 17 1 16 277 705 1084 1519 2304 2235 1776 2301 1812 2357 2227 1633 1969 2207 2187 2029 1962 2070 2131 2047 2039 1826 1877 1845 1701 1542 1363 1143 969
27 61 97 100 25 66 53 125 111 155 161 197 87 18 0 12 5 7 0 152 665 1006 1266 1337 2108 2229 1791 2082 1896 2033 2153 1708 1953 2203 2352 2044 1972 2098 1986 1964 1983 1867 1746 1661 1533 1533 1501 1187 1063
32 150 278 92 30 80 121 107 148 121 238 94 0 0 1 2 1 0 41 394 941 1337 1352 1696 1845 1602 2141 1734 2106 1902 1949 1789 2088 2362 2279 1882 1863 1838 1846 1866 1871 1863 1787 1600 1533 1553 1552 1403 908
222 85 0 1 23 38 107 105 199 158 259 107 0 3 8 12 0 5 117 710 906 1090 1299 1572 2276 2007 1993 1709 1758 1998 1857 1864 2102 2201 2271 2093 2108 2104 2060 2050 2027 1937 1876 1825 1800 1753 1552 1437 1216
237 10 0 0 0 12 103 141 351 330 11 0 0 2 14 7 0 19 317 718 1017 1223 1411 1687 1870 1966 1773 1833 1615 1849 1729 1851 1962 2077 2200 2275 2154 2076 2058 2005 1922 1767 1638 1698 1682 1820 1723 1346 1198
16 0 0 0 3 46 96 0 171 191 8 0 0 5 10 3 6 28 617 828 1170 1334 1444 1551 1253 1435 1663 1702 1731 1758 1630 1810 1818 1860 1949 2066 2084 2036 1942 1946 1930 1865 1836 1789 1689 1667 1185 1063 1267
6 0 0 5 0 9 24 0 175 285 115 15 7 2 21 0 6 285 671 891 1230 1305 1430 1256 1178 1084 1276 1508 1691 1813 1787 1817 1853 1798 1750 1661 1700 1814 1811 1999 2167 1758 1714 1717 1656 1619 1399 1588 1417
0 0 0 0 5 29 88 236 405 160 99 141 47 20 0 0 0 512 688 867 1093 1288 1201 888 911 1106 1128 1272 1345 1801 1887 1840 1813 1640 1787 1585 894 964 1349 1520 1778 1709 1659 1585 1512 1692 1612 1599 1641
205 19 2 11 36 0 196 223 364 200 222 31 18 2 0 0 0 245 519 389 657 926 1110 742 842 991 990 1449 1149 1171 1451 1419 1202 1106 470 115 334 724 1152 1226 1575 1639 1753 1854 1663 1169 1723 1077 360
281 79 129 42 67 15 51 84 429 297 151 73 0 0 4 0 0 141 500 399 638 840 1118 686 734 740 849 1162 847 796 947 1013 699 108 0 17 627 968 1129 840 118 0 83 139 630 371 97 473 416
135 212 226 17 62 26 25 122 519 367 367 62 0 0 0 0 0 212 518 516 604 767 882 585 539 561 561 459 710 632 643 500 398 9 0 214 210 330 230 227 0 56 10 13 165 539 608 584 519
35 63 131 252 84 5 0 0 522 413 278 4 0 0 0 0 1 178 376 491 534 609 615 450 317 405 381 273 392 374 401 361 311 90 1 1 0 82 5 85 208 112 170 192 198 570 503 62 10
1 0 4 25 39 12 2 190 542 453 162 0 0 0 0 0 79 106 189 416 490 483 425 237 197 309 126 130 31 156 184 223 191 134 156 11 0 0 7 249 360 343 198 214 67 202 57 84 34
0 0 0 0 0 24 58 5 232 397 151 2 0 0 0 8 127 122 151 299 359 305 180 111 130 177 45 53 0 1 89 109 191 162 257 165 176 263 461 349 448 441 342 293 73 349 28 23 24
0 0 0 0 10 31 18 2 666 318 148 65 3 0 0 0 123 141 152 127 162 108 32 21 243 139 25 0 0 0 0 56 141 251 398 404 97 120 427 378 499 362 296 390 401 285 22 28 7
0 0 0 0 4 101 27 1 648 310 158 108 100 98 65 9 136 134 126 94 55 0 0 0 72 85 10 0 0 34 0 0 99 462 562 438 149 410 399 389 331 272 49 703 519 162 142 53 56
0 0 0 0 10 50 21 0 616 419 250 160 156 206 240 117 93 94 80 68 65 0 0 0 0 30 9 7 0 57 90 108 73 408 436 515 651 301 109 178 142 0 213 406 304 257 55 68 141
0 0 0 0 0 62 56 15 688 409 331 284 184 150 197 196 99 11 72 45 23 0 0 0 0 0 80 53 62 0 0 2 109 237 447 518 848 231 92 220 0 0 481 400 172 0 0 0 5
0 0 0 0 0 11 68 42 510 473 333 315 247 194 224 179 124 57 86 28 23 0 0 0 0 0 107 31 171 0 0 0 8 54 393 481 696 942 486 331 192 238 567 296 344 0 26 0 8
0 0 0 0 0 1 9 50 9 568 461 413 286 218 220 237 135 87 80 105 16 0 0 0 0 0 117 77 2 11 0 7 0 13 215 545 698 1047 887 346 331 458 585 353 190 11 0 0 12
0 0 0 0 0 0 0 0 17 279 460 403 374 296 230 251 189 132 95 108 70 0 0 0 0 0 44 47 70 102 6 3 0 0 0 631 804 1004 1055 752 660 619 562 498 408 11 0 0 1
0 0 0 0 0 0 0 0 0 93 424 389 337 349 350 280 246 192 133 130 114 2 16 0 0 0 0 91 43 20 0 0 0 0 0 247 750 894 1191 966 738 562 430 631 465 131 0 0 0
0 0 0 0 0 0 0 0 0 5 62 368 402 365 386 347 328 293 191 189 151 59 23 0 0 0 0 66 31 0 15 9 22 41 0 0 469 717 812 1051 733 527 586 602 391 514 122 0 0
0 0 0 0 0 0 0 0 0 0 0 17 238 378 346 282 322 253 248 224 241 156 43 0 18 15 0 37 81 0 3 0 20 1 5 0 21 361 640 843 782 635 511 599 425 342 412 200 0
0 0 0 0 0 0 0 0 0 0 0 19 85 256 215 103 62 299 189 282 293 207 54 60 97 76 53 74 129 71 2 0 3 0 0 0 4 165 572 919 981 824 779 719 489 454 554 149 422
0 0 0 0 0 0 0 0 0 0 0 0 31 104 60 98 89 195 242 208 163 160 96 91 102 201 149 152 181 166 92 70 36 0 0 0 0 192 350 557 1077 1056 1088 923 867 825 917 565 59
0 0 0 0 0 0 0 0 0 0 0 0 75 102 92 77 99 213 250 177 97 129 142 71 114 227 301 270 274 279 247 208 169 19 0 0 0 48 555 661 920 1087 1079 1088 961 978 982 1049 711
0 0 0 0 0 0 0 0 0 0 0 0 0 100 137 142 175 132 156 225 154 121 255 170 111 153 284 431 383 376 386 333 308 208 84 75 8 0 349 587 957 1319 1123 1053 951 998 1146 1167 1298
0 0 0 0 0 0 0 0 0 0 0 0 0 84 184 232 341 265 93 211 193 107 215 319 237 174 200 455 469 451 496 629 746 481 120 65 207 46 33 547 778 1113 1349 1211 1069 987 1122 1291 1225

GFSSGP_con_sbcape_054.txt.gz
CAPE
46 35 10 43 127 115 30 66 264 122 133 114 0 5 18 65 29 0 0 0 61 354 1104 1510 2195 1854 1823 1908 1951 2220 2180 2168 2084 2076 2184 2067 1996 1995 1963 1959 1825 1530 1664 1816 1375 1148 1194 1018 1027
28 18 45 229 124 7 12 53 120 114 146 11 48 51 28 50 0 14 0 16 375 830 1237 1406 2080 2212 1895 1821 1917 2197 1914 2025 2209 2281 2156 2079 1948 1976 1658 1814 1970 1930 1644 1662 1700 1328 1284 1231 1273
22 29 164 165 15 53 76 181 86 111 41 13 32 10 3 9 5 1 0 190 641 961 1133 1443 2144 2108 1889 2080 2166 2023 1752 2215 2284 2022 1949 1842 1858 1942 2062 2009 1812 1727 1689 1551 1335 1377 1331 1255 1262
12 78 172 39 10 75 140 94 110 112 107 6 0 1 0 4 5 0 155 540 785 1030 1087 2012 1847 1886 1663 1945 2120 1660 1820 2136 2279 2234 1866 1929 1947 1866 1935 1857 1963 1761 1571 1705 1541 1525 1243 931 916
20 112 0 3 38 79 97 180 200 213 142 14 0 8 13 7 0 46 432 702 1007 972 904 1349 2148 2137 1720 1812 2198 1642 1923 2164 2181 2226 2094 1959 1781 1811 1786 1794 1761 1963 1971 1816 1724 1588 1187 1171 1224
467 1 0 0 1 17 97 98 515 190 22 0 0 1 19 13 2 189 621 821 935 1003 1090 1353 1722 2051 1707 1566 2001 1674 1905 2075 2074 1773 2064 2252 2145 2119 1991 1843 1763 1760 1707 1700 1682 1376 1191 1242 1302
95 0 0 0 4 41 74 88 396 119 0 0 0 5 24 6 19 351 588 853 1034 1180 1350 1150 1268 1474 1591 1466 1731 1602 1814 1908 1989 1997 2082 2218 2120 2079 2019 1964 1892 1880 1717 1341 1261 1218 1250 1398 1481
47 0 0 4 16 21 55 62 243 198 22 0 0 0 28 7 52 453 661 880 1070 1202 1285 918 1018 994 1145 1402 1633 1494 1706 1773 1843 1883 1892 1952 2049 2004 1909 1807 1667 1869 1659 1366 1138 1064 1241 1561 1589
0 0 0 19 19 77 77 106 452 94 0 2 0 1 5 4 235 392 621 836 997 1198 1092 879 833 824 928 1207 1294 1586 1770 1821 1801 1649 1742 1485 873 961 1366 1692 1706 1700 1532 1517 1650 1373 1666 1461 1465
119 0 0 5 33 52 331 509 192 97 20 0 0 0 7 14 310 132 180 399 765 874 1026 721 738 831 928 1406 1094 1227 1411 1316 1149 1111 654 389 473 770 1090 1353 1593 1758 1550 1655 1406 1635 1436 806 842
282 141 60 26 69 17 150 151 253 145 80 0 0 2 5 57 261 84 87 124 350 544 1112 649 696 702 888 1196 791 915 1003 1002 753 334 3 50 593 947 984 804 17 0 297 363 625 303 311 471 660
191 223 234 39 63 2 43 199 345 224 197 3 0 0 0 29 205 85 75 121 229 414 747 602 590 583 625 660 699 664 749 668 501 104 0 233 407 438 494 375 0 48 58 143 368 687 801 654 711
146 88 83 269 226 29 9 306 531 295 43 0 0 11 0 0 83 109 138 252 424 482 747 574 436 417 406 371 532 438 465 490 412 123 0 126 151 195 50 169 219 188 258 310 254 707 518 104 25
0 15 0 0 0 48 0 7 387 120 0 5 0 5 8 0 13 270 388 316 439 539 623 470 351 263 224 148 279 271 218 255 265 185 142 0 0 44 23 226 392 404 318 360 147 581 228 81 30
0 0 0 0 0 10 0 11 329 31 0 0 0 0 4 0 16 225 382 346 322 365 381 273 182 115 87 69 3 51 99 171 208 177 197 15 118 46 96 296 480 476 479 268 127 464 80 56 6
0 0 0 0 0 26 56 17 393 21 0 0 0 0 0 0 12 81 244 341 318 259 194 112 237 61 0 0 0 0 14 87 144 182 231 237 229 132 338 353 601 519 513 465 497 398 8 66 16
0 0 0 0 0 69 49 20 363 51 0 0 0 0 0 0 29 69 123 273 289 189 57 14 22 12 0 0 0 0 0 2 25 145 276 364 397 146 505 334 437 458 318 880 637 188 132 87 82
0 0 0 0 0 21 41 55 348 103 5 0 0 0 0 0 0 67 79 121 187 88 0 0 0 2 0 0 0 0 0 0 0 151 374 441 381 565 361 121 394 20 257 589 728 208 39 136 115
0 0 0 0 0 33 40 70 493 177 64 9 0 0 0 0 0 57 57 80 78 0 0 0 0 0 0 0 0 0 28 13 46 113 405 515 645 699 97 258 112 0 543 586 268 0 0 16 14
0 0 0 0 0 17 21 28 520 285 160 115 90 60 32 15 1 36 55 30 81 0 0 0 0 0 0 0 0 0 0 0 0 29 352 551 808 689 181 350 147 247 485 210 122 0 23 7 8
0 0 0 0 0 0 15 5 224 394 273 125 92 81 81 104 85 28 35 49 19 6 0 0 0 0 0 0 0 0 0 0 0 11 189 403 672 1010 746 394 299 391 687 419 443 14 0 8 9
0 0 0 0 0 0 0 0 0 348 319 225 171 126 69 86 102 70 40 42 3 0 0 0 0 0 0 0 6 40 27 25 0 0 4 426 592 836 986 685 446 609 740 453 459 188 0 0 4
0 0 0 0 0 0 0 0 0 83 321 304 229 153 122 81 115 100 70 43 47 0 0 0 0 0 0 0 10 23 0 0 0 0 0 151 547 699 1076 940 797 690 666 542 711 151 5 0 0
0 0 0 0 0 0 0 0 0 0 162 367 339 276 213 132 133 140 78 46 24 0 0 0 0 0 0 0 0 0 0 0 0 0 0 0 313 616 846 1126 897 793 670 684 441 501 65 0 0
0 0 0 0 0 0 0 0 0 0 9 186 335 370 337 251 156 140 105 69 42 21 0 0 0 0 0 0 0 0 0 0 0 0 0 0 0 410 630 872 906 831 707 741 705 616 536 11 0
0 0 0 0 0 0 0 0 0 0 0 102 157 301 288 311 233 183 124 118 93 67 31 11 0 0 0 0 0 0 0 0 0 0 0 0 0 120 626 736 928 939 857 709 690 482 668 437 205
0 0 0 0 0 0 0 0 0 0 0 0 27 68 188 281 260 246 240 168 139 99 31 26 3 0 0 0 0 1 0 0 0 0 0 0 0 48 233 673 1002 965 915 872 793 682 724 741 505
0 0 0 0 0 0 0 0 0 0 0 0 0 0 61 240 237 195 202 219 182 155 97 0 23 3 30 14 6 26 19 0 0 0 0 0 0 19 270 399 801 1069 1086 1115 978 1018 949 972 805
0 0 0 0 0 0 0 0 0 0 0 0 1 29 84 181 213 76 42 137 171 213 174 32 23 10 17 62 80 93 112 77 54 0 0 0 0 0 135 412 583 794 975 1098 1149 1249 1266 1226 1319
0 0 0 0 0 0 0 0 0 0 0 0 0 10 137 155 126 122 91 75 78 165 189 79 52 49 113 154 171 186 198 193 141 94 16 0 0 0 0 284 506 872 1144 1147 1204 1319 1457 1412 1441

GFSSGP_con_sbcape_057.txt.gz
CAPE
17 30 33 59 175 190 129 79 176 218 145 25 0 3 17 73 48 115 4 57 107 321 991 1187 2403 2021 1824 2007 2154 2373 2245 2180 2155 2163 2188 1955 1791 2095 2113 1844 1617 1611 1865 1319 1264 1280 1045 1307 1556
7 18 24 201 46 149 82 85 74 47 135 8 65 51 80 99 2 11 34 105 44 391 1024 935 2333 2197 1912 1938 2125 2320 2192 2104 2202 2097 2180 2080 1995 1847 1974 1907 1764 1653 1837 1734 1449 1414 1340 1356 1479
12 3 270 302 108 227 104 188 258 35 14 3 166 45 56 51 5 3 38 82 133 717 1117 1112 2238 2216 1883 2043 1911 2152 2113 2166 2113 2153 2104 1908 1923 1841 2041 1887 1662 1516 1510 1461 1528 1455 1441 1289 1215
37 143 196 67 16 113 123 150 261 150 46 67 21 24 6 7 4 3 212 169 215 722 898 1511 2134 1567 2145 2164 1519 2037 2025 2219 2223 1815 1848 1877 1893 2070 2020 1725 1585 1408 1511 1478 1524 1530 1372 1311 1428
84 339 26 52 45 75 219 194 325 306 232 80 1 5 11 13 10 98 369 244 400 519 1014 1168 2431 1794 1947 2058 1565 1942 2027 2033 2134 2122 2288 2138 2081 1907 1842 1711 1664 1280 1535 1464 1741 1266 1242 1413 1369
380 29 19 18 57 73 141 223 515 436 106 4 0 2 18 29 46 270 375 343 445 806 735 1024 2005 1779 2002 2015 1613 2037 2108 2100 2026 1961 1995 2265 2234 1994 1806 1882 1831 1759 1656 1407 1398 1163 1310 1336 1464
52 53 13 3 39 107 248 255 438 300 109 31 0 2 26 36 117 290 434 604 533 704 810 961 1747 1667 1612 2003 1614 1905 2041 2011 1850 1819 2027 2214 2226 2134 2014 1901 1778 1462 1253 1232 1163 1339 1485 1514 1622
286 0 5 48 111 147 146 117 431 187 105 5 0 4 17 29 171 277 640 741 495 516 803 991 1539 994 997 1270 1556 1731 1826 1890 1986 1939 2120 2148 2086 1993 1744 1740 1827 1386 1155 1055 1121 1291 1573 1715 1613
0 31 43 22 39 176 117 235 379 109 15 5 0 2 2 39 218 269 748 725 431 564 734 890 1201 1339 1465 1368 1261 1612 1714 1798 1809 1767 1970 1816 2021 1686 1285 1567 1654 1498 1529 1406 1240 1441 1516 1654 1704
153 190 90 3 44 162 271 474 370 196 66 12 0 0 9 64 214 228 458 370 199 704 661 773 1081 1080 1247 979 1423 1635 1561 1437 1532 1801 1789 1609 1689 1692 1282 1449 1671 1642 1717 1582 1600 1407 1630 1189 1281
212 426 110 50 39 436 541 571 384 322 247 82 28 7 28 82 106 73 135 85 123 652 516 856 1122 1205 1306 1184 1580 1537 1612 1597 1749 1816 1274 1469 1618 1772 1305 1538 855 790 1026 892 848 1010 933 1102 1139
310 359 395 246 123 47 141 291 537 388 372 162 35 6 21 73 78 22 59 113 200 516 620 774 1083 1171 1322 1367 1378 1435 1427 1465 1400 1259 676 1496 1670 1696 1338 1134 731 722 977 1443 1629 1650 1657 1494 1356
188 267 207 271 229 174 79 250 620 509 372 77 29 0 3 24 32 18 65 177 199 257 721 792 1152 1142 1375 1528 1330 1312 1435 1297 1112 1123 194 1161 1467 1647 1191 1127 1060 1394 1347 1473 1749 1468 1086 844 829
12 40 175 124 144 89 147 59 494 317 168 74 26 5 21 20 20 8 91 202 243 329 658 862 1094 1021 1225 1151 1490 1269 1265 1115 1118 1166 311 524 1132 1422 918 1063 1376 1519 1480 1480 1520 1543 1054 686 731
0 0 0 0 4 122 48 114 225 230 140 74 45 23 22 44 16 21 73 216 539 674 702 850 950 874 989 1014 1100 933 818 790 1048 1193 1165 450 527 1017 1168 1514 1532 1609 1792 1509 1950 1648 1096 265 578
0 0 0 16 0 0 72 202 354 201 148 82 78 52 20 23 37 70 109 197 405 542 754 865 544 547 624 585 639 541 428 649 996 1137 1055 828 1128 1438 1760 1649 1603 1664 1574 1797 2480 1666 848 511 388
0 0 0 11 0 75 164 238 543 203 194 108 98 87 30 19 18 196 246 312 293 451 715 790 724 495 453 554 464 386 384 603 876 1057 1151 1337 1296 1023 1634 1586 1692 1875 1766 1807 1716 1380 929 567 242
0 0 0 14 41 21 153 218 636 192 203 145 122 91 73 41 18 126 262 390 487 446 614 672 613 610 559 528 667 398 253 484 808 951 1031 1431 1447 1457 1564 1708 1698 1510 1936 2186 1813 1812 1233 896 182
0 0 0 0 6 54 107 91 649 424 190 167 116 93 80 26 0 72 209 357 473 643 567 585 622 758 515 401 384 485 492 633 795 1039 1306 1562 1547 1667 1863 1590 1649 1351 1620 2214 1589 1031 745 777 91
0 0 0 0 0 9 56 88 330 590 406 218 118 93 96 22 14 81 220 260 392 565 617 631 650 702 694 428 606 624 866 885 1117 1282 1473 1691 1663 1934 1839 1582 1501 1376 1558 1846 1521 1009 94 233 133
0 0 0 0 0 0 3 27 87 614 557 393 90 41 28 19 22 62 218 241 311 477 619 653 845 849 815 851 662 697 839 767 876 1196 1550 1724 1859 1997 2037 1598 1573 1481 2581 2361 1884 996 514 196 326
0 0 0 0 0 0 0 22 17 285 700 524 437 206 30 0 6 15 139 253 296 567 436 710 806 915 723 974 915 1356 765 825 859 1117 1282 1803 1926 2004 2117 2033 1697 1843 2113 2556 1859 1483 924 473 302
0 0 0 0 0 0 0 0 0 104 628 747 618 491 380 215 52 23 39 158 183 287 380 258 793 1110 1127 1166 1224 993 1196 886 942 782 1316 1816 2037 1948 2043 2218 1960 1955 2049 2321 2040 1994 1663 523 219
0 0 0 0 0 0 0 0 0 0 268 692 746 688 552 447 408 383 210 125 216 145 280 298 770 903 1123 999 1167 1561 1658 1233 846 832 846 938 1328 1722 1978 2051 2259 2315 2105 2119 2099 2158 1857 1157 317
0 0 0 0 0 0 0 0 0 0 6 226 624 754 740 634 492 493 451 339 320 509 464 544 661 841 942 970 1172 1336 1537 1762 1529 1293 781 995 824 1260 1848 2256 2370 2222 2486 2295 2215 2271 2249 1716 782
0 0 0 0 0 0 0 0 0 0 0 2 181 509 696 758 620 554 532 604 673 698 742 655 689 814 824 900 1213 1403 1550 747 680 1138 652 619 491 803 1524 2092 2212 2340 2448 2402 2337 2155 2121 2098 1665
0 0 0 0 0 0 0 0 0 0 0 0 1 246 629 778 755 643 604 527 702 709 853 770 891 875 828 503 1126 1347 1394 1330 944 1375 1117 672 1060 450 1069 1606 1933 2130 2297 2512 2498 2199 2246 2225 2286
0 0 0 0 0 0 0 0 0 0 0 0 0 102 415 728 828 793 670 684 689 542 685 761 893 924 962 833 899 1094 1243 1324 1333 1270 1345 1305 860 759 641 1375 1719 1971 2158 2429 2555 2167 2373 2407 2149
0 0 0 0 0 0 0 0 0 0 0 0 0 2 71 427 756 810 836 805 779 519 752 838 722 1029 986 831 940 1044 1063 924 999 1016 1165 1526 1045 1067 1197 1496 1635 1855 2018 2214 2527 2476 2354 2600 2618
0 0 0 1 0 0 0 0 0 0 0 0 0 14 38 198 614 761 794 795 762 965 894 821 717 598 800 980 1053 1033 1104 1139 844 1186 1098 1373 1592 1097 1191 1434 1691 1777 1797 1947 2194 2147 1806 2314 2660

GFSSGP_con_sbcape_060.txt.gz
CAPE
1 3 56 87 217 328 411 338 367 449 113 79 24 2 49 233 393 773 450 563 622 697 757 1355 2340 2113 2113 2152 2202 2295 2281 2239 2157 2119 2097 2069 2232 2331 2140 1874 1533 1979 1407 1393 1342 1175 1553 1542 1269
8 15 35 313 257 550 358 412 401 201 170 70 63 45 186 313 144 239 466 553 693 738 632 1426 2256 2388 2115 2349 2333 2330 2287 2303 2263 2263 2132 1936 2121 2080 2142 1781 1716 1881 1714 1552 1513 1375 1380 1655 1559
12 69 293 568 588 422 195 549 360 45 41 147 205 264 414 402 149 270 484 482 483 398 389 1794 2184 2420 2246 2162 2162 2096 2126 2210 2313 2196 2088 1927 1844 2017 1936 1772 1531 1650 1591 1691 1650 1531 1400 1472 1602
48 391 609 674 233 410 108 631 386 288 62 122 214 342 178 107 147 275 397 500 525 397 394 1861 2005 1716 2240 1941 2119 2172 2158 2260 2079 2157 2021 2056 1751 1805 1639 1550 1563 1566 1534 1614 1693 1620 1393 1521 1284
328 610 419 345 86 102 529 540 532 461 263 301 290 375 16 15 38 303 350 494 425 274 523 1732 2357 1966 2030 1623 1985 2100 2296 2266 1996 2095 2093 2048 1919 1709 1598 1524 1362 1568 1543 1722 1448 1351 1453 1504 1515
553 620 295 28 54 358 593 593 698 611 579 336 387 282 92 15 62 278 336 308 150 185 338 1525 1843 2085 2088 1615 2127 2049 2111 2024 1994 2046 2073 2119 2121 2096 2007 1972 1849 1651 1543 1632 1297 1309 1475 1523 1814
438 547 438 205 307 575 773 796 749 872 590 252 321 606 181 108 114 205 244 61 107 142 367 1303 918 1908 1839 1669 1962 2009 2095 2026 1871 1813 1841 2245 2155 2027 1835 1703 1483 1404 1331 1130 1352 1483 1620 1544 1802
888 156 218 261 414 619 516 761 839 772 683 365 252 382 260 247 181 118 126 56 173 144 345 1103 748 936 1755 1201 1881 1949 2037 2056 1944 1701 2031 2121 1969 1603 1553 1888 1421 1215 1157 1143 1304 1567 1518 1484 1601
295 372 375 166 235 720 489 731 728 634 517 353 291 364 333 167 209 102 162 93 185 131 302 891 482 750 1058 1261 1780 1866 1924 1980 2031 2026 2233 2041 1135 1117 1282 1644 1301 1424 1277 1164 1269 1504 1574 1753 1739
376 521 455 99 348 343 468 907 874 719 547 365 272 209 172 179 227 206 157 130 99 103 183 510 462 715 933 674 1335 1376 1268 1249 1372 1361 1528 1258 1334 1412 1224 1514 1712 1526 1523 1536 1454 1516 1503 1752 1094
343 503 280 244 468 646 428 883 863 818 713 556 480 290 191 225 417 312 144 90 66 52 122 392 561 804 836 888 1138 1211 1204 1202 1496 1654 1365 1339 1292 1118 1193 1070 1209 1093 1375 970 1346 1483 1173 1221 986
114 223 583 459 248 636 772 865 859 760 801 654 477 286 226 313 282 245 130 94 8 44 113 344 535 827 984 988 1014 992 969 930 939 1232 1748 1693 1633 1429 1144 889 966 1286 1226 1616 1223 1159 1615 1468 1447
0 196 450 505 341 325 295 530 875 836 831 558 389 264 254 287 179 161 173 42 14 72 80 254 540 915 1205 1152 996 884 934 1021 1025 1483 1221 1322 1257 1344 1087 1201 1190 1199 1323 1149 1149 1038 1047 1181 1406
0 0 64 366 509 342 431 353 660 839 728 573 374 295 261 233 99 114 123 5 51 88 71 206 540 876 1159 1204 1353 1185 1184 1243 1214 1134 857 1802 2120 1594 1166 1405 1368 1175 1172 986 980 952 553 641 946
0 0 0 6 398 448 372 395 403 815 685 601 417 312 232 232 92 78 84 54 74 90 162 240 514 662 1089 1235 1487 1220 1103 864 1040 1134 1272 1022 1617 1876 1501 1414 1378 1249 1569 1634 1441 1200 951 123 378
0 0 0 11 271 334 275 407 454 768 745 671 485 331 232 212 97 60 79 58 124 96 279 359 218 374 814 924 1191 803 787 892 961 1141 1233 1056 1506 1877 2289 1648 1329 1627 1439 923 742 1071 274 121 243
0 0 0 360 284 380 315 454 804 689 775 796 569 393 274 258 152 51 65 71 112 299 469 482 312 301 425 688 719 692 920 1076 1155 1280 1284 1693 1659 1785 1815 1349 1709 2035 1467 780 735 608 403 151 213
0 0 0 121 296 382 444 510 811 745 776 836 678 441 338 335 253 89 56 60 139 397 571 571 373 379 478 458 581 473 721 1027 1246 1351 1381 1863 1715 1808 2061 1731 2280 1428 876 949 863 1020 584 715 527
0 0 0 0 215 350 449 429 927 706 770 792 783 619 422 345 312 240 184 166 100 282 550 668 521 576 585 401 296 451 651 942 1164 1184 1566 2007 1869 2080 2285 1529 2073 2146 962 689 1444 1631 1380 280 275
0 0 0 0 21 262 399 342 340 933 699 825 824 754 514 420 322 241 353 238 141 295 443 749 727 786 820 261 469 355 743 890 1056 1371 1855 2107 2079 2230 2093 1927 1825 1910 1001 1284 1557 1264 531 637 310
0 0 0 0 0 6 263 371 304 533 811 721 717 757 590 460 429 265 375 294 207 331 581 739 958 952 913 630 321 937 1131 1295 1577 1626 1626 1978 2186 2271 2224 2322 1976 2288 1352 1222 1635 1153 719 394 629
0 0 0 0 0 0 63 276 259 279 876 849 764 742 697 555 416 363 356 389 289 356 607 892 1085 1151 990 887 953 1798 1197 874 682 1126 992 1484 2190 2199 2347 2399 2261 1961 1246 1547 1115 1028 716 790 415
0 0 0 0 0 0 1 106 136 231 468 968 891 722 631 590 443 355 374 535 416 398 573 938 1306 1948 1855 1647 1490 1074 1581 453 580 847 1589 2057 2473 2314 2145 2570 2568 2537 1499 1690 1635 1795 1803 460 201
0 0 0 0 0 0 0 7 40 97 212 452 866 818 765 578 450 368 351 476 549 492 459 823 1878 2078 2076 1602 977 1795 2073 1477 839 1457 1318 1267 1334 1904 2376 2477 2748 2727 2144 1714 1615 1849 2158 1571 1114
0 0 0 0 0 0 0 0 0 40 151 176 436 800 897 920 667 438 329 325 627 642 623 770 1645 2394 2163 1554 1304 1345 1595 1944 1599 1583 1255 1661 829 1036 1680 2600 2812 2590 3119 2407 2208 2975 2090 2179 1706
0 0 0 0 0 0 0 0 0 0 3 55 178 628 969 1070 1010 918 619 450 424 637 696 800 1464 2252 2047 1814 2329 2274 2322 1142 1294 1468 1103 974 725 735 1104 2303 2370 2586 2509 2699 2614 2128 2064 2064 2080
2 0 0 0 0 0 0 0 0 0 0 0 14 179 392 702 957 1033 1100 1063 786 609 1081 1297 1754 1695 1892 1355 2370 2441 2427 2134 1335 2353 1543 1077 1803 739 910 1338 2173 2104 2284 2559 2537 2290 2542 2365 2291
0 0 0 0 0 0 0 0 0 0 0 0 0 4 134 424 872 1008 1108 1193 1158 839 784 868 1039 1680 1505 1508 1623 1673 1636 2104 2122 1755 2180 1843 1262 1400 999 1244 1530 1551 1789 2377 2766 2317 2618 2904 2491
0 0 25 4 1 0 0 0 0 0 0 0 0 0 16 425 901 1041 1094 1139 1215 1062 815 928 1002 1178 1342 1584 1869 1779 1546 1472 1681 1584 1723 1932 1711 1580 1820 1402 1297 1303 1914 2300 2703 2569 2137 2793 3021
2 36 16 57 12 0 0 1 0 0 0 0 0 0 11 81 474 904 965 1070 1182 1234 977 890 1013 1088 1187 1760 2303 1892 1841 1859 1381 1744 1788 1908 1987 1833 1958 1849 1660 1297 1505 2058 2592 2530 1872 2350 2569

GFSSGP_con_sbcape_063.txt.gz
CAPE
0 0 34 38 492 528 489 185 495 365 367 187 122 157 334 469 446 1078 614 707 676 828 873 1270 1962 2000 2054 2053 2006 1960 1932 2072 2154 2145 2163 2382 2156 2249 1963 1535 1894 1466 1614 1349 1334 1663 1491 1400 1923
11 15 168 662 810 917 243 456 391 293 290 202 36 201 332 569 451 344 571 509 578 708 792 901 2273 2508 2093 2147 2335 2285 2302 2335 2368 2188 2028 2125 2177 2069 1894 1729 1793 1586 1671 1579 1388 1538 1540 1542 1798
133 27 671 895 985 292 541 615 739 410 249 323 499 344 703 371 538 548 726 592 546 448 409 1280 2311 2444 2354 2277 2297 2243 2243 2266 2177 2140 2057 1979 1939 1858 1890 1681 1716 1653 1859 1635 1636 1500 1594 1802 1490
30 373 894 1151 494 688 341 463 401 20 276 354 294 621 478 389 435 450 718 596 331 504 470 1744 1992 2113 2139 2204 2147 2159 2169 2124 2200 2122 2023 1852 1809 1799 1708 1726 1650 1576 1711 1721 1706 1589 1502 1430 1551
157 768 793 721 525 314 156 483 224 238 375 408 604 639 410 140 343 383 465 366 214 457 525 1492 2360 2004 2016 2181 2128 2108 2114 1881 2090 2034 2003 1869 1857 1640 1622 1578 1691 1618 1614 1495 1473 1569 1655 1509 1623
443 748 661 587 157 454 496 715 433 397 491 578 714 473 371 285 228 404 346 575 136 188 425 734 1979 1877 1931 1887 1973 2112 2025 2012 1931 1938 1887 1798 1908 2169 2057 1876 1646 1588 1683 1400 1371 1429 1534 1643 1593
558 864 514 124 152 529 742 869 733 473 658 633 670 1037 281 278 225 233 416 209 77 128 420 789 1534 1837 1762 1952 1904 2050 2050 2030 2132 2131 2072 2236 1941 1908 1828 1638 1589 1393 1135 1401 1388 1195 1539 1730 1846
876 1024 376 372 537 510 865 792 580 661 691 607 835 863 307 312 207 170 243 176 75 211 319 458 941 1424 947 1858 1802 1975 2054 1944 1762 1662 1985 2064 1705 1239 1074 2002 1625 1272 1150 1383 1201 1311 1462 1693 1740
514 501 454 365 448 606 649 890 898 720 761 671 671 689 438 208 216 215 83 126 96 86 313 274 523 1139 904 1677 1919 1959 2063 1999 1872 1881 1936 1849 1115 1399 1358 1668 1470 1255 1130 1166 1186 1236 1523 1711 1727
533 693 394 30 509 895 702 854 955 759 703 562 548 642 329 286 283 149 78 174 59 63 156 198 413 529 673 671 1502 1598 1526 1198 1319 1032 1704 1666 1706 1733 904 1256 1420 1448 1389 1324 1338 1210 703 1670 1178
365 715 601 392 786 663 761 785 806 558 520 607 646 385 201 304 286 130 78 136 36 36 155 81 352 465 407 1048 1211 909 1425 937 1283 1160 1121 889 875 1106 693 1186 1208 1305 1679 1085 1193 1327 1385 1442 1113
124 169 417 391 758 470 638 604 623 749 549 524 769 535 297 395 273 182 117 97 28 26 64 66 297 591 569 459 814 1176 786 537 767 1144 1312 1477 1903 1438 1729 1617 1294 1414 1022 1202 1108 1132 1114 1211 837
20 41 503 560 462 643 599 463 512 627 652 681 643 535 283 393 225 209 171 83 30 17 39 117 344 723 1060 1322 2175 759 490 419 962 1237 1443 1438 1753 1457 1948 976 835 2148 1269 917 1093 639 1102 1262 1131
0 0 148 508 502 427 269 229 448 727 781 779 635 567 378 422 301 218 194 75 27 12 24 182 400 804 954 1610 2047 754 437 2031 1008 1418 1137 1677 1750 2167 1217 2006 1546 1105 522 996 1276 1686 1296 1587 946
0 0 0 62 502 421 368 278 289 690 831 861 638 593 286 280 385 265 260 64 30 6 14 196 420 684 993 2136 1069 800 837 1011 1337 1598 1695 1477 2101 1699 2499 1975 554 1057 1402 2049 1159 808 76 395 918
0 0 0 24 175 475 443 422 272 858 887 922 625 580 468 332 403 338 291 57 85 13 6 140 154 582 882 1219 1187 917 672 1049 1244 1275 1519 1395 1652 1705 2328 1319 1461 1168 923 975 608 200 1100 100 435
0 0 0 0 5 157 471 295 25 725 879 973 686 624 472 353 319 351 234 63 77 48 31 123 247 496 837 1204 1169 1244 1122 1485 1462 2165 1774 1733 1965 1881 2232 1464 1954 1949 1569 1082 523 42 841 412 54
0 0 0 0 213 245 440 341 338 935 762 1007 793 614 565 485 395 316 207 92 67 52 144 254 268 1141 1510 1291 1188 850 950 1304 1661 1542 2026 1973 2029 1883 2131 1565 1515 1376 1091 371 1654 578 1176 1164 470
0 0 0 0 283 227 252 305 339 772 730 999 922 576 582 571 485 305 224 121 69 94 273 433 882 2143 1114 809 690 697 813 998 1774 1641 1673 1759 1877 1916 2109 1736 1863 1562 1540 1140 759 730 482 48 1054
0 0 0 0 43 238 222 292 410 648 706 948 975 750 580 636 518 336 253 149 80 175 452 1238 1374 2284 1359 794 1221 934 1281 787 811 814 1714 1773 1628 2016 1863 2386 2055 1971 1566 1205 1429 1392 919 156 515
0 0 0 0 0 142 226 282 297 363 628 808 926 975 514 650 687 503 343 206 122 258 476 1417 1956 2246 1763 1494 1200 1244 1307 1422 866 1560 1406 1874 1908 2058 2101 2114 1740 1639 1723 1204 1453 1389 1860 927 327
0 0 0 0 0 10 79 250 161 58 687 726 918 1003 915 486 683 671 557 387 237 205 381 1523 1796 2354 1891 2012 826 1877 1016 805 651 1182 928 1578 1901 1980 2169 2341 2272 1964 1631 2517 2109 1234 1829 1714 484
0 0 0 0 0 0 2 30 381 386 690 663 830 956 950 808 559 658 623 606 400 254 377 581 2174 2571 2202 2060 1843 1140 1796 650 595 626 2912 2946 3367 2019 1794 2391 2184 2283 1654 1833 1472 1713 2016 868 1072
0 0 0 0 0 0 0 15 93 51 164 636 792 852 916 917 750 640 618 671 580 347 361 946 2256 2854 2822 2474 2000 2567 2094 1991 456 903 1535 1007 1631 1852 2204 2077 3028 2185 1925 2008 1985 2158 1788 3104 1554
0 0 0 0 0 0 0 0 8 142 184 159 666 797 853 869 899 771 641 593 750 904 888 1237 2415 2966 2868 2697 1872 2059 2676 2745 3015 2515 1027 1299 579 708 3052 3079 2771 2776 2821 2185 2205 2730 2017 2122 1711
0 0 0 0 0 0 0 0 0 1 89 99 17 539 796 819 829 858 787 688 1102 1209 1276 1463 2319 3146 3107 2699 2621 2151 2587 910 862 1890 976 692 473 618 3491 2531 2132 2362 2640 2133 2752 2101 2014 3218 1932
0 0 0 0 5 0 0 0 0 0 0 64 2 310 423 824 860 815 864 816 1099 1279 1643 1654 2196 3038 3107 2201 3016 3134 2495 1759 856 2192 2675 1570 1942 807 818 1584 2183 2076 2168 2678 3285 2022 3148 2199 2507
5 2 0 0 4 0 0 0 0 0 0 0 14 94 259 625 920 1007 989 843 822 914 1048 1578 2089 2964 2572 2575 2873 2769 2546 2549 2398 2884 3391 2365 2440 2675 1456 2001 1619 2127 2492 2451 3734 2844 3209 2895 2399
0 0 9 31 4 3 0 0 0 0 0 0 0 0 198 791 800 921 1042 1159 924 821 919 1091 1517 2238 2366 2652 2710 2437 2374 1997 2461 2948 3126 3050 2813 3270 3045 2695 2336 2014 2151 2740 3717 3695 2793 3332 3375
0 2 0 65 42 13 0 10 0 1 0 0 2 8 27 129 537 756 876 1155 1286 1296 1026 1039 1100 1197 1819 2262 2754 2633 2829 2228 2183 2633 2739 3382 3453 3186 3430 3050 2957 2361 2089 2940 3612 2884 2564 2553 2766

GFSSGP_con_sbcape_066.txt.gz
CAPE
0 0 0 82 165 452 477 317 153 247 185 50 175 240 382 421 566 637 140 199 520 738 1092 1260 1925 1972 1984 2109 1994 1981 2278 2280 2163 2041 2111 2369 2100 1836 1583 1820 1591 1763 1333 1466 1726 1521 1701 2010 2152
0 0 56 606 409 642 282 239 472 253 175 72 123 214 296 416 198 116 469 568 568 824 1010 1111 1845 2108 2209 2008 2441 2344 1984 2081 2114 2064 2205 2040 1929 1797 1810 1674 1635 1842 1761 1445 1726 1553 1611 1955 2015
47 29 421 736 798 75 370 113 354 180 87 140 316 458 345 298 244 417 495 343 505 475 664 1140 2549 2424 2285 2407 2122 2273 2279 2248 2229 2067 2029 1781 1806 1819 1658 1598 1756 1850 1696 1681 1599 1816 1874 1565 1987
241 249 457 836 652 80 556 182 436 219 243 470 275 401 203 355 325 293 310 299 70 80 518 1734 2510 1993 2436 2120 2225 2262 2208 2276 2069 2130 1973 1931 2137 1856 1873 1783 1649 1848 1740 1682 1690 1569 1558 1643 1458
259 609 494 811 608 222 559 359 115 341 280 468 488 258 136 255 341 296 140 203 57 289 673 1151 2416 2125 2088 2185 2107 2227 2058 2156 2069 1996 2084 2053 1976 1753 1756 1782 1655 1646 1686 1589 1697 1710 1582 1623 1517
275 581 713 676 222 108 388 326 137 255 410 415 324 154 156 255 223 208 182 175 193 228 400 1165 1819 1971 2134 2069 2280 2079 2025 2091 1832 2327 2206 2056 2243 1895 1752 1609 1644 1784 1510 1445 1535 1563 1540 1474 1496
175 677 376 204 218 303 597 564 347 408 426 483 265 355 198 177 184 177 123 58 17 65 250 983 1184 1825 1924 2152 2101 1973 2161 2090 2570 2282 2567 2725 2544 2096 2070 2069 1489 1297 1389 1170 1284 1597 1641 1682 1577
491 594 580 395 253 57 54 617 556 458 438 590 632 332 190 275 255 213 241 26 58 98 303 1148 1020 920 1604 1696 1952 2028 2018 2067 2318 2551 2609 2545 2077 1376 1555 2162 1960 1169 1419 1179 1306 1517 1729 1731 1549
245 674 680 268 101 290 176 680 575 558 572 575 666 414 189 149 217 136 80 17 224 52 170 338 573 846 2013 1892 1952 2013 1965 1743 1882 1875 1863 1735 1452 1619 1253 2118 1885 1231 1338 1311 1402 1532 1504 1581 1487
46 694 567 345 285 6 267 598 535 518 459 587 754 405 170 103 212 232 36 6 136 57 8 191 899 808 1573 928 1975 2109 1684 1481 1652 1811 1783 2397 1130 1875 1067 1642 2013 1258 1597 1602 1441 177 994 1510 1496
14 83 569 189 270 132 122 561 410 442 385 501 541 294 149 110 186 55 47 18 27 61 44 187 887 1022 757 1130 1901 1786 1506 1710 1789 2416 1461 2079 1624 1886 1006 1381 1373 1565 1674 1168 1374 1270 934 1329 1294
5 26 64 28 524 524 315 276 332 105 114 551 527 224 196 150 115 25 43 53 31 65 48 301 414 1360 772 1149 1348 982 1552 1236 1306 1675 1922 1962 661 576 1612 930 1982 828 975 1364 415 1284 705 856 877
6 19 19 292 594 270 0 212 9 0 0 452 474 197 192 165 68 44 70 56 27 19 53 322 410 2356 782 997 592 970 520 822 1534 1597 1036 1372 1973 1213 1963 491 890 824 1543 1160 564 1495 1098 402 1141
5 0 16 270 476 674 129 150 111 175 271 593 361 190 150 203 75 120 95 55 31 19 145 407 398 1646 2032 1952 2221 895 1851 770 1494 1783 1532 703 2015 2502 2456 1017 1089 843 1223 1174 1390 1709 1604 1230 451
0 0 0 6 520 464 264 178 241 455 345 417 471 277 228 243 162 176 182 79 35 48 352 446 395 925 2062 1391 1550 1888 1577 1315 412 2095 2462 1739 1251 2365 1799 746 961 981 1970 1664 1554 2383 1136 768 1043
0 0 0 0 31 430 363 420 123 457 568 492 576 308 302 275 191 227 186 59 46 29 675 358 14 556 1272 1797 2305 2038 1488 1540 1529 1391 2150 2333 1098 2923 965 1275 912 1487 1001 1814 246 1789 1409 587 675
0 0 0 0 10 124 438 325 249 287 502 574 547 396 339 363 315 312 146 68 57 180 654 429 683 875 1114 1897 1711 1740 1507 2126 1495 2254 1838 2748 2655 2328 1855 696 1538 872 2255 2242 1506 70 1819 1065 1073
0 0 0 0 0 48 169 227 269 87 221 529 485 500 349 263 314 360 195 40 87 249 481 518 1021 1608 1675 2058 2669 1349 1865 1487 1428 2590 2546 2960 2374 2656 1269 1476 2246 2352 248 766 1745 136 897 556 476
0 0 0 0 0 43 57 100 30 79 35 37 448 719 444 354 479 444 275 32 166 220 387 736 1397 2015 1532 1676 1561 1341 1193 1973 622 801 1627 3043 2605 2507 1524 1862 2261 2248 500 623 1806 2292 1618 603 1285
0 0 0 0 0 97 331 8 0 0 0 2 431 471 682 389 304 394 331 62 95 274 397 1155 1285 1942 1402 1807 1814 1696 1330 1558 968 1290 2159 2641 2666 3037 2283 1705 2273 742 2376 2260 1603 449 719 144 373
0 0 0 0 0 81 90 50 18 0 23 197 518 321 473 609 489 429 324 163 148 283 555 1031 1310 1798 1454 1825 1592 2492 2795 2238 1720 2489 2474 2791 2832 3028 2162 2643 1961 2484 942 1608 2059 2369 127 660 1160
0 0 0 0 0 0 15 140 0 33 194 14 10 397 371 612 603 454 352 291 123 359 746 989 1494 2120 1387 2148 1296 1976 1501 1492 1582 1799 2237 2492 3182 3068 2913 2879 3201 2380 1844 1445 2907 2522 1166 238 1136
0 0 0 0 0 0 0 7 206 168 9 4 0 296 281 487 601 519 331 358 176 498 675 976 1357 2024 1351 1434 2023 1852 1704 1424 2190 1598 2761 2624 3641 3526 2908 3649 3279 2612 2553 2669 2805 2402 2782 2426 1750
0 0 0 0 0 0 0 0 0 247 13 0 0 119 387 268 564 742 494 447 316 426 528 1119 1310 1665 1684 1391 1522 2150 1428 2410 1941 1956 1796 2478 2586 2836 3563 3188 2927 2690 2826 2445 2658 3033 2904 3246 2942
0 0 0 0 0 0 0 0 0 32 124 0 0 267 687 578 558 830 857 709 538 378 517 836 1350 1475 1562 1521 1089 2157 1602 1835 2870 3104 1870 1539 2041 1749 2827 3776 3013 2932 2950 2907 2822 3381 3287 3219 3079
0 0 0 0 0 0 0 0 0 0 309 297 128 69 25 809 719 764 910 938 820 633 533 719 1405 1571 1586 1925 1102 1318 2241 1472 1729 2759 1698 2752 1530 1976 2562 3026 3071 3338 3195 3110 3167 2710 3115 3016 3219
0 0 0 0 0 0 0 0 0 0 0 484 78 29 8 122 718 883 954 932 1161 959 709 897 1373 1652 1903 1667 1859 1048 1996 1981 1107 2265 2808 2042 2510 2199 2888 3030 3392 3577 3050 2957 3161 2469 2783 2448 2952
0 0 1 0 0 0 0 0 0 0 0 0 186 157 175 58 1 198 1013 988 1168 1116 1116 978 1462 1772 2042 1745 2010 1635 997 1692 1777 1052 2916 2133 2688 2442 2932 3258 3049 3042 3677 3528 3247 2774 2768 2955 2509
0 0 0 1 13 0 0 0 0 30 0 0 327 159 2 0 4 93 2 1091 1047 1132 1321 1203 1290 1984 2321 2285 1936 1917 1619 1258 1141 1616 1283 2098 2105 4008 3311 3729 3208 3175 2970 3717 3618 3099 2837 2944 2787
0 0 0 16 1 6 2 0 0 0 10 0 0 259 160 91 17 0 0 280 1078 1103 1145 1403 1361 1702 2218 2398 2194 2046 2300 1675 1405 884 2044 2625 3407 2866 4310 3346 3799 3060 3021 3160 3277 3143 2147 2991 2843

GFSSGP_con_sbcape_069.txt.gz
CAPE
1 0 0 8 18 62 228 202 127 71 107 149 290 268 326 399 320 34 48 106 264 487 821 1372 2105 1825 1951 2189 2461 2265 2176 2214 2082 1910 2112 2109 1866 1930 1919 1714 1790 1217 1820 1639 1641 1959 2126 2074 2170
0 0 3 130 123 160 145 135 414 66 73 151 340 264 199 92 0 3 50 173 382 695 790 1092 1851 1995 2005 1973 2414 2433 2249 2356 2269 2349 2083 2033 1948 1926 1836 1802 1932 1504 1575 1661 1638 1725 1918 2149 2188
0 10 43 134 118 30 181 74 353 93 142 218 311 141 104 5 24 21 132 297 520 616 716 973 1858 2271 1840 2060 2245 2535 2206 2201 2150 2033 2005 1974 1931 1831 1576 2000 1701 1801 1618 1724 1797 1698 1783 1980 1949
11 104 77 37 129 0 153 37 112 285 239 165 113 62 27 71 145 117 195 388 311 563 847 2019 1968 2001 1922 2095 2234 2166 2221 2164 2202 2275 1961 2015 1885 1900 1827 1765 1868 1680 1625 1686 1571 1512 1711 1444 1627
112 141 144 231 268 230 84 7 9 287 274 163 125 96 124 35 33 83 175 54 231 430 1329 1787 2410 2408 2035 2032 2224 2174 2223 2133 2067 2310 1964 2158 1806 1849 1754 1585 1790 1598 1763 1798 1577 1506 1537 1445 1304
44 142 176 224 126 253 271 111 189 300 307 210 95 99 106 18 19 31 71 55 321 500 1147 1381 1942 2088 2221 2012 1975 2049 2026 2057 2062 2026 1844 1871 1627 1631 1600 1550 1870 1615 1563 1606 1528 1483 1485 1462 1224
17 284 234 114 152 207 176 170 174 328 212 100 90 98 94 17 6 6 7 37 128 526 1055 1239 1464 1601 2010 2009 1929 2066 2090 1984 2110 2013 2177 2181 2091 1836 1645 1466 1586 1432 1303 1399 1539 1534 1516 1533 1303
256 298 243 261 42 10 38 157 341 384 394 110 84 69 67 12 7 17 6 21 61 527 935 567 1214 1255 1415 1659 1880 1917 2060 2122 2033 2073 1971 1920 1738 1542 1553 2073 1944 1369 1230 1329 1453 1538 1628 1469 1389
38 187 197 277 0 0 0 145 450 417 226 259 231 71 42 0 1 3 0 13 37 270 560 248 641 962 1138 1398 1706 2144 2039 2072 2288 2120 1726 1807 798 941 1218 1630 1880 1367 1277 1375 1427 1478 1486 1538 1542
17 139 244 16 14 16 19 90 389 386 564 416 145 67 24 3 3 24 11 0 17 204 300 70 282 971 985 1433 1459 1407 1423 1398 1160 1326 986 850 785 434 1088 1578 1959 1325 1376 1538 641 1283 1606 1421 1069
10 2 136 218 53 240 209 269 159 377 443 250 102 67 25 25 18 4 2 0 0 5 0 72 431 646 577 786 1285 1209 1027 948 1048 1048 899 1120 512 420 784 1079 1111 842 1325 865 656 304 560 796 903
0 5 40 258 258 408 403 211 28 103 154 319 110 42 36 49 43 0 7 2 0 0 73 97 247 588 347 774 1160 1031 815 1021 686 264 867 352 0 23 782 571 725 311 669 743 628 288 407 374 373
0 4 14 56 211 463 359 114 0 4 161 298 104 13 30 37 28 0 0 1 0 1 47 57 103 119 151 605 694 385 638 800 703 450 206 370 632 275 633 412 119 216 505 498 436 582 432 550 371
0 0 3 150 293 177 141 157 56 113 196 291 108 9 19 24 38 3 1 4 1 19 10 1 497 134 224 163 363 238 389 681 717 150 0 18 435 1066 283 250 342 249 414 526 436 540 582 416 481
0 0 0 18 369 403 401 328 352 293 293 181 122 44 25 12 1 10 2 0 0 17 5 9 267 153 677 588 551 365 104 414 768 741 48 464 537 899 662 463 593 159 516 203 372 860 763 481 312
0 0 0 0 14 401 426 445 531 308 440 198 172 106 60 38 0 9 0 0 1 2 2 0 114 602 478 377 1242 445 244 179 1157 1216 1078 1005 812 546 623 397 315 990 956 809 55 495 364 424 528
0 0 0 0 0 46 247 285 530 102 192 212 89 65 84 102 34 20 1 0 0 5 0 0 0 267 398 321 594 472 59 896 880 1068 1192 1147 1410 1025 562 283 195 511 633 935 689 92 607 223 314
0 0 0 0 0 1 304 367 75 7 225 250 225 111 63 115 194 75 14 0 4 14 0 0 17 192 421 457 261 735 947 642 1177 1170 944 1653 1347 981 811 731 669 669 211 112 814 60 152 38 186
0 0 0 0 0 0 226 203 7 0 113 482 220 135 61 158 179 75 5 0 13 28 0 62 174 165 806 866 688 711 554 406 797 1342 1406 1596 1465 77 0 532 1028 606 48 53 691 680 73 80 284
0 0 0 0 0 58 412 255 72 3 135 126 0 218 94 195 219 115 12 3 0 27 0 36 346 342 760 703 688 387 425 937 376 346 893 1569 1591 731 779 790 1121 536 519 788 281 48 80 21 22
0 0 0 0 0 45 161 186 120 49 31 49 158 28 115 165 189 201 21 2 0 3 6 0 704 447 640 404 382 778 924 911 510 616 625 1428 1708 1425 1292 732 1121 799 885 850 848 488 59 50 120
0 0 0 0 0 0 50 102 85 41 57 160 206 14 8 76 110 205 37 0 8 0 30 10 727 504 403 521 117 514 557 417 650 754 1323 1567 1409 1754 1410 1259 943 1232 507 831 1086 1237 226 25 140
0 0 0 0 0 0 0 0 108 48 44 97 43 0 1 8 67 85 93 0 4 6 49 185 792 498 255 618 135 246 319 592 487 798 1176 1548 1664 1692 1721 1469 1523 1232 580 825 937 1270 1307 403 595
0 0 0 0 0 0 0 0 15 29 50 5 28 0 30 43 26 129 110 37 0 53 0 314 734 379 257 283 771 202 290 332 781 555 1015 1373 1852 1953 1847 2131 1492 1256 1390 1171 1226 1434 1080 1382 1415
0 0 0 0 0 0 0 0 0 160 162 0 1 51 44 17 259 211 155 71 1 20 100 186 384 799 247 181 243 1007 267 207 1054 1051 1309 1292 1533 1581 1685 1885 1539 1673 1447 1398 1461 1634 1795 1724 1375
0 0 0 0 0 0 0 0 0 34 287 44 24 9 95 244 105 104 210 130 71 96 219 240 289 510 420 112 74 280 883 187 498 1102 880 1143 1339 1096 1200 1686 1103 1448 1470 1623 1465 1210 1559 1693 1787
0 0 0 0 0 0 0 0 0 0 195 146 0 9 350 317 154 3 166 248 145 155 129 338 332 286 582 377 0 141 1003 212 385 680 1087 991 550 1032 1127 1907 1373 1700 1754 1713 1639 1298 1224 1631 1729
0 0 0 0 0 0 0 0 0 0 16 218 58 339 51 78 101 206 216 191 196 166 197 216 487 391 613 566 254 20 353 909 382 419 764 1162 433 1114 1364 1960 1763 2107 1544 1434 1736 1074 1409 1273 1313
0 0 0 0 0 0 0 0 0 0 0 62 275 273 44 55 155 293 300 59 10 25 189 218 611 554 639 493 705 141 17 734 712 347 206 953 927 1331 2042 1938 2037 2067 2116 1653 1745 1173 1547 1269 1330
0 0 0 0 0 0 0 0 0 0 0 17 238 389 185 279 392 141 159 141 3 0 289 210 405 722 769 707 723 805 138 242 604 544 175 511 772 878 1822 1987 2051 1812 1618 1918 2002 1373 1527 1819 1400

GFSSGP_con_sbcape_072.txt.gz
CAPE
42 0 0 0 0 81 122 60 132 89 139 31 35 183 259 169 197 0 16 124 165 96 722 1455 2145 1971 1818 2135 2152 2044 2114 2141 1863 2271 2123 1925 2111 1958 1794 1484 1772 1693 1830 1775 1878 2052 2048 2221 2343
0 1 0 93 281 86 115 247 174 135 277 179 193 221 132 63 29 56 97 188 258 447 1033 1436 2308 2379 1784 2161 2354 2257 2276 2099 2241 2185 2037 1846 2067 1978 1907 1675 1360 1776 1793 1524 1996 1992 2050 2153 2217
0 0 22 104 113 6 55 61 82 242 267 252 148 72 19 3 20 42 110 264 404 640 851 1283 1853 2056 1922 1927 2006 2313 2219 2175 2017 2113 2127 1827 1960 1743 1772 1878 1806 1748 1769 1756 1777 1907 1996 2031 1835
8 84 89 4 60 6 79 96 232 159 147 71 19 6 14 4 19 69 231 427 461 639 736 1729 1919 1827 1969 2211 2120 2056 2026 2059 2021 2016 2052 1905 1763 1782 1825 1821 1789 1655 1673 1799 1596 1873 1859 1786 1979
63 170 141 122 113 1 12 88 239 211 155 103 65 37 81 43 61 132 334 409 526 642 1180 1518 2500 2432 2140 1907 2040 2165 2151 2103 2127 2092 2101 1912 1845 1825 1770 1836 1695 1862 1797 1569 1620 1536 1502 1920 1864
159 154 175 205 13 28 66 126 103 122 167 84 62 42 7 36 78 173 186 333 690 1249 1506 1723 2172 2206 2308 2194 2207 2188 2131 2087 2057 2018 1913 1780 1737 1709 1586 1765 1661 1710 1738 1700 1613 1471 1539 1645 1630
73 246 197 173 162 30 121 126 267 168 132 93 83 24 0 25 45 57 116 239 831 1199 1128 1374 1581 1802 2070 1969 2066 1994 2089 2145 2071 1904 1882 1720 1549 1645 1730 1813 1670 1548 1525 1507 1511 1480 1354 1466 1338
222 210 249 27 160 24 0 174 170 138 172 124 92 1 0 14 20 40 116 225 621 901 1096 1096 1135 1348 1503 1628 2109 2047 2123 2145 2056 2126 1931 1928 1763 1648 1374 1967 1955 1376 1404 1444 1472 1552 1611 1540 1501
113 124 231 224 1 2 3 96 259 195 166 156 204 13 0 0 1 17 49 246 697 791 758 895 989 1059 1149 1321 1731 2125 2117 1974 1956 1871 1719 1646 761 936 900 1443 1645 1363 1426 1445 1496 1562 1635 1559 1673
109 2 185 149 33 108 30 40 198 191 122 147 120 0 0 0 10 17 34 182 386 441 282 733 781 861 1119 1552 1505 1301 1527 1544 1217 1256 1033 560 554 571 845 1321 1479 1342 1462 1255 1472 1758 1769 1276 736
14 35 27 140 179 380 289 297 298 273 216 160 84 6 5 11 14 34 14 41 180 277 124 380 650 769 957 1291 1016 1016 941 903 688 503 492 517 401 734 886 761 732 744 1084 614 355 349 379 606 774
0 0 2 17 360 560 465 174 106 290 402 160 69 27 0 1 2 0 0 25 198 149 0 192 641 523 244 697 952 912 795 634 630 476 501 0 49 305 320 445 418 370 431 546 179 167 234 297 447
0 0 0 8 390 553 315 3 107 135 223 215 71 34 0 11 16 0 0 0 100 17 0 52 408 343 113 715 704 634 459 626 245 386 333 0 0 67 535 268 125 275 641 430 219 343 198 295 531
0 0 0 0 655 644 322 109 5 172 287 163 96 49 15 13 6 0 0 0 0 19 31 40 119 174 157 428 443 344 201 290 285 37 124 147 356 116 141 12 0 0 184 226 274 229 442 359 366
0 0 0 215 377 256 204 242 266 215 448 169 82 44 33 21 9 0 0 0 0 63 42 0 58 58 104 147 60 135 186 402 220 0 0 133 519 528 6 67 144 57 58 266 157 292 601 514 114
0 0 0 9 372 361 296 420 396 424 448 188 65 58 41 37 23 4 0 1 27 69 4 87 188 174 167 304 332 86 34 270 400 47 31 304 746 433 167 56 11 166 58 60 34 434 668 309 225
0 0 0 0 311 427 300 461 238 404 464 239 99 37 45 34 20 4 0 12 0 0 38 15 193 89 39 455 111 67 79 383 604 635 503 446 554 374 208 142 135 32 259 335 2 221 141 131 184
0 0 0 0 0 335 316 447 331 638 506 377 205 101 20 41 24 4 0 16 0 0 0 0 100 60 51 197 90 67 121 328 622 654 715 679 635 411 256 113 184 408 25 368 81 46 44 42 80
0 0 0 0 0 0 255 367 365 241 170 410 254 124 35 65 93 5 0 14 1 0 0 0 45 18 70 165 239 116 369 439 893 659 709 900 743 334 162 464 740 458 9 107 47 100 6 23 32
0 0 0 0 0 66 390 420 166 202 343 371 401 241 140 83 91 61 1 3 10 0 0 0 90 24 181 210 108 199 99 124 842 719 1024 971 666 0 72 421 757 4 6 262 140 37 5 10 2
0 0 0 0 4 171 186 124 74 35 270 351 514 277 173 108 75 91 4 39 11 0 0 0 100 42 274 180 238 166 168 165 303 163 660 1087 1111 268 661 483 640 277 193 341 64 31 4 1 13
0 0 0 0 0 0 42 107 64 42 165 399 414 94 91 127 102 199 0 16 34 0 0 0 203 123 350 135 198 375 622 408 163 233 332 819 1252 791 729 454 758 387 269 425 528 404 4 0 35
0 0 0 0 0 0 0 0 0 27 56 268 457 148 229 118 189 245 2 0 40 7 0 259 276 203 360 174 66 214 135 119 191 283 609 843 885 1109 961 799 683 800 199 237 594 840 346 0 44
0 0 0 0 0 0 0 0 0 0 34 46 460 397 237 62 150 232 148 0 0 6 0 387 296 222 308 214 5 59 154 80 448 373 807 923 940 1033 1044 951 963 650 390 383 360 697 667 812 636
0 0 0 0 0 0 0 0 0 6 88 47 222 360 233 40 160 205 100 17 0 0 0 172 329 218 177 253 297 15 94 24 351 394 805 810 1140 1266 1234 1344 1015 668 773 760 683 907 813 793 792
0 0 0 0 0 0 0 0 0 0 129 139 108 194 235 81 44 95 97 1 0 0 37 74 339 221 131 216 270 353 37 30 153 449 584 809 1048 1332 1286 1506 984 947 840 851 833 795 996 1298 1083
0 0 0 0 0 0 0 0 0 0 4 162 73 111 206 280 169 206 191 49 44 10 20 108 213 182 127 100 61 152 496 148 55 466 680 776 695 818 901 1377 886 1061 1020 1004 918 701 720 1166 1085
0 0 0 0 0 0 0 0 0 0 0 34 113 106 196 377 222 230 333 296 128 38 6 9 123 216 263 106 0 5 88 553 25 166 402 776 552 686 785 1512 900 800 1134 1000 962 840 729 853 779
0 0 0 0 0 0 0 0 0 0 0 0 103 66 49 337 293 356 337 223 178 78 63 69 17 76 335 322 106 0 9 101 380 40 136 360 411 509 815 1352 1111 1020 1242 952 1149 837 675 929 778
0 0 0 0 0 0 0 0 0 0 0 35 127 19 50 216 307 270 311 313 186 75 14 130 237 134 128 373 318 78 0 4 431 373 94 162 460 518 1291 1401 1408 1373 1476 943 978 882 954 966 970

GFSSGP_con_sbcape_075.txt.gz
CAPE
52 2 0 0 0 62 1 0 111 190 26 0 0 28 88 212 186 2 0 8 7 66 734 1437 2187 1895 1884 2145 2285 2280 2144 1785 2028 2329 2026 2182 1901 1722 1508 1998 1616 1539 1960 1839 2028 2189 2317 2420 2338
0 0 0 85 308 69 82 95 246 137 54 0 206 224 196 124 119 47 64 43 1 411 894 1486 2402 2239 2023 2194 2166 2222 2130 1966 2248 2165 1949 2046 1961 1811 1411 1617 1974 1782 1757 2066 2075 2044 2044 2254 2217
0 0 10 166 160 11 48 36 255 175 84 175 150 65 35 49 41 3 122 28 74 770 1074 1650 2013 2115 2144 2398 2304 2373 2192 2199 2231 2089 1838 2106 1824 1860 1807 1693 1728 1849 1858 1970 2076 1904 2084 2003 2082
0 0 71 45 38 18 15 135 255 225 150 48 26 42 24 44 17 118 136 97 457 843 1043 1903 1996 1960 1957 1898 2107 2190 2083 2058 2109 1927 1761 1910 1749 1784 1752 1703 1633 1709 1586 1703 1880 1875 1929 2008 2006
7 213 158 100 218 0 2 122 218 148 215 72 83 129 43 62 80 172 190 247 580 576 1067 1633 2289 1968 2059 2249 2198 2073 2025 2036 2054 2043 1886 1751 1757 1864 1749 1668 1806 1613 1462 1611 1679 1707 1836 2006 1912
199 137 137 158 32 25 21 189 172 163 130 62 27 42 50 43 178 236 311 402 496 894 1236 1523 2106 2173 1952 1988 2166 1992 2056 2006 2083 1990 1848 1744 1803 1808 1797 1688 1646 1727 1469 1397 1398 1562 1806 1777 1755
133 207 141 70 161 131 98 179 130 174 90 52 22 14 55 68 232 270 370 562 810 1272 1340 1476 1600 1747 2169 2116 2123 2051 2045 2044 2001 1935 1769 1766 1697 1556 1831 1779 1688 1562 1459 1380 1357 1539 1589 1609 1663
220 164 86 10 176 46 6 155 266 172 149 62 0 7 36 92 130 212 391 778 1044 1096 1170 1222 1330 1433 1461 1773 1999 1999 2152 2042 1926 1798 1671 1567 1588 1636 1623 2007 1872 1510 1441 1388 1414 1573 1628 1473 1827
119 176 134 114 66 21 29 249 198 230 140 95 208 6 39 44 115 140 319 555 789 981 931 917 1064 1199 1210 1445 1495 2035 2060 1947 1827 1516 1787 1624 868 893 874 1597 1544 1559 1483 1394 1475 1350 1333 1476 1820
159 27 185 122 7 83 87 236 39 375 143 165 9 13 35 24 93 129 227 258 474 772 795 783 899 1004 1042 1559 1538 1408 1456 1294 1344 1162 748 521 553 586 879 1382 1451 1563 1719 1721 1465 1338 1607 1130 663
89 95 57 123 230 9 66 178 129 196 126 135 0 14 34 31 45 99 141 271 381 539 861 682 760 857 1046 1324 1129 1034 1013 988 894 802 442 364 347 873 858 835 734 834 925 487 643 605 531 626 569
1 8 65 22 348 342 205 12 71 115 491 312 0 8 8 29 39 54 55 151 247 183 591 531 594 729 724 1003 954 844 829 626 407 274 363 190 215 384 581 500 454 527 262 221 92 188 167 295 430
0 0 0 0 0 534 33 11 0 18 106 182 14 17 14 19 35 32 68 74 210 34 94 391 493 387 241 834 680 775 652 665 541 357 228 28 99 183 227 351 76 95 386 313 147 190 144 286 355
0 0 0 0 358 200 78 95 21 200 356 390 94 17 24 12 36 28 38 93 210 0 0 141 338 222 150 601 596 584 413 579 246 265 101 0 4 133 312 159 25 43 192 269 239 218 399 306 87
0 0 0 443 548 350 36 6 235 268 429 434 86 10 26 17 0 8 3 63 153 7 0 70 199 116 171 438 426 345 272 336 250 87 62 162 248 125 143 37 0 0 113 151 238 254 390 349 93
0 0 0 389 322 129 157 205 304 195 232 235 94 48 14 42 0 1 0 9 91 50 38 61 264 126 86 217 190 128 170 316 242 24 0 189 496 275 35 102 87 43 33 130 131 264 358 116 185
0 0 0 0 275 305 213 206 193 514 181 210 110 77 57 30 0 0 0 0 0 60 49 20 112 106 50 175 94 40 135 280 257 66 37 215 692 283 52 29 71 159 153 80 24 295 109 62 124
0 0 0 0 220 376 357 273 317 333 329 196 103 65 44 37 0 0 0 0 7 56 71 65 158 67 132 193 39 9 91 279 376 321 308 276 499 391 67 0 74 187 111 163 2 93 29 10 42
0 0 0 0 0 0 176 281 263 282 205 262 122 68 39 38 14 0 0 1 20 4 62 23 87 0 110 64 134 137 224 334 577 495 624 660 543 334 136 120 454 44 0 99 3 23 8 0 0
0 0 0 0 0 11 223 309 191 442 252 424 273 87 46 35 21 0 0 4 0 18 0 80 13 0 80 85 127 138 178 193 363 397 675 716 560 124 192 413 596 189 0 170 208 18 2 0 0
0 0 0 0 0 156 124 310 286 229 277 356 425 289 89 10 30 0 0 0 0 0 0 55 10 0 26 49 77 108 194 167 398 318 722 895 669 0 125 349 525 39 0 271 25 16 0 2 1
0 0 0 0 0 0 28 98 105 17 85 268 492 441 244 44 43 0 0 0 0 0 0 0 20 0 19 35 107 200 231 281 263 275 268 819 1065 320 457 490 569 337 113 134 23 25 0 0 8
0 0 0 0 0 0 0 0 0 4 39 268 501 479 369 222 78 54 0 1 0 0 0 0 3 5 51 22 59 111 217 170 104 176 169 475 854 777 749 575 673 330 137 154 435 407 16 0 8
0 0 0 0 0 0 0 0 0 21 89 110 425 496 443 101 128 50 0 0 0 0 0 0 0 2 38 0 0 103 104 99 127 163 273 406 552 895 863 681 578 634 332 164 320 429 403 189 141
0 0 0 0 0 0 0 0 0 4 30 46 149 393 497 170 115 107 11 0 0 0 0 0 0 0 67 40 0 4 70 48 71 142 273 515 717 815 998 792 760 559 403 315 137 524 450 467 498
0 0 0 0 0 0 0 0 0 0 0 0 33 124 304 255 201 130 84 0 0 0 0 54 0 11 49 102 55 0 0 18 21 151 236 525 745 882 944 1017 966 766 512 662 450 630 664 819 490
0 0 0 0 0 0 0 0 0 0 0 0 7 33 384 353 196 168 159 0 0 0 0 60 93 2 41 79 71 64 0 0 0 97 200 443 494 913 952 1247 1157 925 782 655 631 718 728 813 842
0 0 0 0 0 0 0 0 0 0 0 0 0 0 84 303 80 73 170 20 3 0 9 0 142 108 21 63 63 97 112 46 0 0 313 420 442 425 731 1272 1134 825 941 721 732 700 530 628 690
0 0 0 0 0 0 0 0 0 0 0 0 15 0 0 123 97 90 119 52 10 10 0 6 27 101 119 68 43 26 54 103 76 0 20 113 454 381 482 965 1199 700 888 889 772 694 599 700 683
0 0 0 0 0 0 0 0 0 0 0 0 11 13 0 86 122 122 178 138 2 14 9 28 43 72 95 124 67 3 0 0 90 62 0 0 60 193 442 600 1100 935 875 903 827 894 1014 673 674

GFSSGP_con_sbcape_078.txt.gz
CAPE
11 0 0 0 0 58 2 0 36 168 2 0 0 0 1 45 75 0 0 0 0 115 794 1525 2173 1854 1901 2219 2332 1993 1752 1753 2189 1990 2136 1840 1592 1515 1852 1465 1686 2155 1950 2245 2180 2377 2533 2406 2557
0 0 0 79 137 58 69 81 97 153 0 0 137 114 133 152 110 2 0 0 9 545 975 1543 2455 2127 2051 2134 2121 2025 1757 2048 2095 1969 2107 2008 2064 1596 2128 1934 1993 1941 2073 2210 2149 2222 2320 2362 2451
0 0 29 176 152 4 16 34 149 37 0 199 126 79 58 47 8 0 5 0 350 710 1090 1576 2126 2037 2102 2042 2055 2051 1782 2098 2154 1987 1951 1961 1962 1837 1602 1962 1809 1857 2135 2183 2029 2109 2195 1935 2074
0 0 13 44 7 44 10 133 164 77 134 64 93 50 11 31 0 26 0 91 501 880 1211 2039 1912 1976 2203 2120 2146 2014 1963 2066 1937 1888 1957 1878 1968 1968 1938 1919 1821 1840 1920 2040 1991 2067 2127 1974 1990
0 117 171 136 173 36 16 180 265 227 186 72 100 30 22 43 50 8 0 277 613 775 1178 1538 2242 1966 1802 1849 2025 1995 1982 1851 1855 1872 1838 1858 1906 1872 1792 1769 1821 1664 1674 1905 1849 1945 1942 1728 1832
178 94 159 152 34 16 95 238 249 226 125 41 0 6 51 60 33 15 55 349 577 818 1196 1490 1885 1780 1953 2029 2013 1972 1989 1932 1783 1794 1702 1776 1735 1762 1802 1682 1572 1371 1430 1563 1656 1952 1752 1847 2251
150 191 69 4 117 254 103 241 305 157 78 26 5 17 101 84 59 70 188 313 621 983 1075 1351 1506 1654 1871 1861 2014 1932 1899 2026 1892 1904 1782 1681 1710 1611 1653 1486 1666 1361 991 1495 1784 1768 1922 1946 2078
204 134 60 0 75 127 76 324 268 259 93 2 0 0 50 109 120 196 295 575 877 955 1083 1095 1306 1426 1356 1545 1956 1950 2003 1946 1833 1671 1741 1723 1608 1523 1477 1818 1901 1337 1285 1534 1677 1811 1674 2062 2281
104 73 111 117 82 69 52 330 230 147 74 39 48 8 41 115 143 256 375 528 708 912 783 878 983 1032 1138 1277 1669 1895 1998 1837 1751 1577 1719 1523 655 985 1403 1611 1735 1413 1362 1619 1654 1471 1480 2049 2194
104 22 78 65 65 90 131 5 95 8 120 0 46 68 66 133 136 99 84 74 103 575 674 683 789 846 1041 1498 1329 1228 1424 1251 1173 958 560 509 570 644 1200 1628 1760 1600 1485 1466 1356 1489 1846 1265 1374
114 82 103 126 106 201 142 13 115 163 165 4 17 42 78 117 118 60 50 37 67 345 752 556 669 705 975 1156 987 963 857 898 829 556 386 367 443 791 721 918 834 971 1301 1008 893 656 855 784 754
9 10 37 90 227 142 139 139 128 210 260 153 29 14 69 89 108 83 44 27 189 234 556 469 546 611 752 901 806 714 727 513 480 426 280 221 360 543 603 603 627 580 407 248 374 456 560 658 741
0 0 0 2 28 195 34 68 47 190 241 3 45 21 19 27 71 39 42 51 145 247 334 381 371 449 459 770 606 623 606 446 332 204 265 119 183 317 278 389 184 343 544 350 463 486 496 657 612
0 0 0 0 14 149 31 8 27 3 374 7 15 2 5 4 23 7 0 31 43 62 66 192 264 210 203 563 534 522 389 476 372 302 215 50 53 147 363 265 131 209 474 430 508 520 744 634 319
0 0 0 390 306 253 71 25 78 93 520 60 5 0 1 5 2 2 6 23 1 0 0 90 167 100 148 428 411 312 273 398 291 205 154 31 40 156 372 253 70 53 294 336 458 548 636 421 354
0 0 0 490 248 217 70 100 545 331 714 194 46 20 0 3 7 0 1 3 1 0 0 0 339 50 80 174 204 133 174 231 224 86 83 153 376 236 169 161 92 144 258 329 296 554 742 354 361
0 0 0 0 237 177 130 140 214 312 585 239 45 40 20 0 9 0 0 4 20 0 0 0 117 0 17 54 95 21 105 106 176 55 7 155 464 463 75 217 156 362 377 253 214 564 279 313 382
0 0 0 0 274 272 185 184 232 583 175 243 125 45 38 37 11 0 0 0 24 10 4 21 0 4 0 18 19 0 8 128 154 130 47 285 483 335 157 139 354 389 428 317 73 385 28 105 212
0 0 0 0 0 0 23 127 334 421 305 294 186 54 8 32 19 0 0 0 2 19 9 6 0 14 0 18 0 0 80 163 308 285 296 389 513 310 94 139 61 370 268 392 56 56 52 70 0
0 0 0 0 0 4 171 209 269 216 212 350 247 82 18 0 11 0 0 0 0 0 6 0 9 0 37 52 31 42 63 158 305 328 370 676 736 298 275 310 631 261 39 354 283 37 27 16 0
0 0 0 0 0 129 94 139 373 358 205 175 292 189 30 17 0 0 0 0 0 0 0 5 0 0 0 1 0 40 89 137 263 274 392 809 708 265 195 349 406 104 23 317 235 44 14 22 0
0 0 0 0 0 0 2 0 88 215 233 231 199 335 126 9 15 0 0 0 0 25 22 1 10 0 0 1 45 94 163 246 313 344 271 815 903 259 79 430 551 366 67 289 126 54 16 1 9
0 0 0 0 0 0 0 0 0 37 114 83 155 252 347 141 21 0 0 0 0 0 0 54 2 7 0 0 40 67 93 94 83 77 212 383 758 703 440 652 615 469 311 324 594 262 49 1 25
0 0 0 0 0 0 0 0 0 53 72 45 38 90 353 310 127 7 0 0 0 0 0 7 24 1 5 0 0 27 88 76 87 66 132 181 457 786 577 614 420 548 223 385 558 818 254 201 167
0 0 0 0 0 0 0 0 0 0 0 0 0 77 320 413 233 61 0 0 0 0 0 0 0 5 1 0 0 0 25 43 90 87 66 195 455 579 893 852 716 613 301 433 426 608 756 705 704
0 0 0 0 0 0 0 0 0 0 0 0 0 3 263 494 281 180 7 0 0 0 0 0 0 0 0 0 0 0 0 0 4 71 81 201 403 652 808 938 812 649 655 599 352 508 601 630 723
0 0 0 0 0 0 0 0 0 0 0 0 0 0 65 409 394 111 111 0 0 0 2 0 0 0 0 0 0 0 0 0 0 30 90 239 399 690 834 1058 1081 630 403 627 699 697 521 942 1103
0 0 0 0 0 0 0 0 0 0 0 0 0 0 0 8 324 219 100 0 0 0 3 15 2 0 0 52 39 7 0 0 0 0 78 254 434 456 916 1143 1305 955 631 460 630 727 696 764 817
0 0 0 0 0 0 0 0 0 0 0 0 0 0 3 5 288 272 165 14 0 0 0 0 26 7 0 70 94 74 22 0 0 0 41 302 424 429 534 953 1290 1175 641 641 634 654 877 797 852
0 0 0 0 0 0 0 0 0 0 0 0 0 0 0 38 120 108 120 38 5 0 0 0 0 46 18 42 79 93 37 35 0 0 0 3 259 354 546 601 1036 1168 989 840 1059 719 1092 889 887

GFSSGP_con_sbcape_081.txt.gz
CAPE
9 0 0 0 72 101 79 0 43 68 19 9 0 0 0 1 107 216 1 0 195 682 1270 1517 2327 1966 2298 2150 1927 1723 1781 2286 2105 2276 1868 1653 1551 1689 1558 1927 2243 2118 2292 2199 2643 2672 2526 2590 2544
0 0 1 79 69 58 97 90 127 182 24 1 44 4 136 90 170 0 0 0 359 666 1026 1265 2381 2201 2210 2355 2120 1822 2033 2241 2036 2167 2083 2189 1701 2150 1853 1933 2089 2048 2267 2280 2442 2427 2336 2613 2482
0 0 102 222 157 46 63 95 242 9 0 36 192 126 210 138 5 0 0 35 422 814 1017 1560 2002 2174 2108 2065 2068 1871 2099 2048 1911 1956 1964 1891 1738 1655 1905 1811 1897 2263 2290 2134 2332 2393 2251 2110 1890
0 0 133 86 30 98 33 272 11 77 152 173 131 135 53 1 0 0 0 191 426 816 975 1796 1878 1973 2014 2064 2084 1889 1993 1836 1887 1888 1847 1885 1974 1823 1871 1888 1952 2114 2067 2173 2184 2317 2056 1845 1691
0 290 324 368 271 114 101 301 64 125 204 115 171 33 10 68 47 0 16 185 416 713 1208 1452 2254 2082 2025 2228 1877 2059 1878 1596 1700 1836 1832 1958 1927 1795 1876 1881 1762 1823 1865 2031 2048 2007 1791 1569 1546
421 342 258 244 55 261 181 317 410 343 212 82 10 33 68 135 0 0 21 225 388 830 1072 1363 1938 1707 1622 1731 1992 1792 1891 1617 1769 1758 1753 1907 1794 1637 1716 1619 1445 1786 1706 1900 1978 1905 1650 2017 2087
336 290 44 0 234 257 186 380 367 244 189 70 3 61 68 32 0 0 107 373 500 915 1221 1576 1249 1785 1853 1900 1920 1820 1745 1943 1887 1860 1748 1833 1736 1660 1580 1598 1424 1216 1483 1916 1919 1965 2097 2320 2323
392 357 113 32 98 178 169 376 389 375 144 33 34 33 23 9 0 2 197 442 640 1039 1105 1116 1610 1720 1665 1824 1829 1695 1928 1716 1665 1758 1737 1690 1538 1511 1586 1662 1830 1362 1680 1799 1725 1904 2162 2029 2122
146 307 233 119 87 126 148 351 179 88 57 29 25 27 14 7 18 56 270 486 893 912 1134 1214 1288 1674 1866 1837 1866 1994 1791 1789 1618 1685 1809 1664 1531 1524 1398 1669 1700 1511 1787 1832 1678 1598 2200 2046 2122
193 77 223 99 122 191 70 156 223 63 130 78 37 57 29 25 30 75 200 266 555 655 988 1298 1587 1374 1442 1389 1892 1812 1773 1699 1697 1697 1932 1612 1570 1624 1575 1763 1520 1585 1693 1613 1583 1882 1879 1853 1942
240 230 191 149 214 255 76 22 182 168 210 77 51 45 43 25 22 68 101 261 207 539 756 1150 1447 1293 1230 1475 1412 1432 1676 1396 1617 1607 1406 1396 1399 1756 1978 1956 1554 1475 1654 1295 1379 1378 1485 1452 1479
114 43 110 203 378 267 165 47 155 94 347 72 49 20 26 13 32 70 106 156 60 466 674 973 1119 1273 1525 1395 1079 1411 1373 1300 1133 1345 1497 1348 1142 1711 1708 1549 1136 1216 928 1040 1275 1295 1588 1637 1627
13 24 8 7 248 381 226 171 125 196 114 49 30 62 23 20 59 112 144 104 72 357 706 956 1071 1255 1635 1650 1350 1329 1244 1128 1182 1209 1329 966 990 1316 1328 1474 1161 1267 1070 1135 1396 1471 1658 1719 1523
0 0 0 0 0 183 103 89 65 378 63 45 23 51 74 82 116 128 112 73 142 249 548 723 905 1070 1390 1287 1374 1255 1071 981 1108 1072 1235 1165 928 1255 995 1040 894 1227 1572 1409 1498 1596 1737 1529 1500
0 0 107 320 205 173 45 54 76 329 42 76 53 82 106 125 150 97 60 35 102 298 423 591 827 828 1275 1368 1164 1014 946 1125 1242 1235 1330 954 1023 1301 1446 1310 1036 1064 1445 1569 1616 1612 1662 1404 1406
0 0 0 528 462 213 150 160 363 308 43 106 61 77 82 96 91 86 72 0 37 116 286 571 461 616 919 1053 1125 905 1004 1143 1234 1233 1170 980 1062 1060 1413 1400 956 1102 1327 1399 1503 1498 1487 1494 1394
0 0 0 278 444 367 219 135 749 593 157 92 49 35 43 88 133 166 136 30 12 105 147 493 584 588 696 952 968 795 979 1304 1378 1168 1048 1073 1206 1541 1087 1139 1181 1456 1300 1140 1467 1500 1398 1400 1245
0 0 0 4 486 348 300 233 550 711 775 182 117 50 54 62 151 184 157 89 70 59 14 413 574 685 778 738 803 683 888 1150 1223 1176 928 1104 1578 1490 1107 1240 1404 1464 1306 1188 1087 1670 1110 1244 1183
0 0 0 0 0 0 0 1 199 752 247 383 195 118 63 58 124 171 139 130 21 57 45 260 632 791 732 679 519 817 1068 1119 1378 1388 1249 1129 1521 1537 1506 1181 1450 1588 1338 1442 1175 1301 1354 1085 984
0 0 0 0 0 0 200 257 281 376 357 313 373 154 189 116 95 89 104 109 70 83 142 289 576 820 830 683 728 909 1071 1094 1383 1520 1460 1121 1454 1651 1480 1463 1457 1493 1224 1701 1410 1224 858 961 978
0 0 0 0 0 322 295 337 345 555 549 614 614 333 172 193 169 116 67 88 125 126 176 355 645 834 869 849 846 931 1113 1238 1388 1463 1619 1636 1633 1636 1623 1520 1734 1651 1186 1233 1558 1051 1086 811 839
0 0 0 0 0 0 116 3 370 324 486 451 689 610 407 259 220 222 93 50 65 184 238 450 571 796 860 993 882 1119 1020 1011 1109 1401 1674 1717 1867 1622 1070 1539 1704 1653 1181 1504 1421 877 651 881 813
0 0 0 0 0 0 0 0 0 264 268 339 271 439 399 316 246 242 162 58 25 139 253 350 624 749 889 946 1174 1186 1453 1095 1301 1342 1670 1901 2232 1972 1235 1350 1780 1805 1572 1741 1681 1490 1297 680 549
0 0 0 0 0 0 0 0 0 0 0 0 10 214 349 469 304 244 205 151 117 123 204 303 547 831 881 973 1076 1277 1594 1363 1347 1482 1497 1560 1815 2127 2078 1726 1932 2092 1814 1739 1779 2071 1609 1256 1196
0 0 0 0 0 0 0 0 0 0 0 1 15 9 41 429 640 309 206 185 230 198 188 266 492 800 726 846 956 1086 1375 1635 1721 1701 1466 1537 1574 1587 2174 2363 2171 2064 2122 1845 1850 2186 2206 2082 1820
0 0 0 0 0 0 0 0 0 0 0 0 6 34 78 235 534 632 275 227 283 229 263 299 446 862 704 740 1251 1128 1217 1095 1172 1557 1216 1354 1470 1612 1987 2522 2450 2339 2139 2028 1966 1835 1811 1925 2055
0 0 0 0 0 0 0 0 0 0 0 0 36 75 103 64 609 732 534 226 304 259 268 358 558 746 668 693 1134 1154 1076 1036 1187 1311 1588 1362 1741 1452 1941 2109 2205 2316 2269 2148 2103 1676 1990 2180 2184
0 0 0 0 0 0 0 0 0 0 0 2 3 7 115 273 93 779 850 292 261 283 241 270 399 596 943 726 866 798 698 882 1058 1146 1492 1493 1622 1848 1731 2085 2257 2203 2351 2236 2208 1876 2002 2285 2052
0 0 0 0 0 0 0 0 0 0 5 1 4 30 61 621 235 480 844 771 225 243 255 251 291 386 553 604 1036 1011 768 609 745 799 1067 1444 1602 1884 2091 2236 2320 2415 2293 2463 2482 2314 1998 2211 2222
0 0 0 0 0 0 0 0 0 0 0 0 1 13 26 204 591 692 639 724 368 292 298 263 293 295 346 649 839 940 1042 805 582 689 807 1163 1490 1665 1958 2238 2318 2408 2436 2509 2451 2371 1910 2235 2181

GFSSGP_con_sbcape_084.txt.gz
CAPE
0 0 0 8 137 150 299 59 253 118 304 137 15 1 2 24 426 725 67 179 693 1007 1122 1514 2415 2147 1768 1851 1649 1904 2486 2168 2519 1837 1590 1386 1515 1553 2092 2143 2270 2363 2384 2624 2681 2469 2628 2316 2490
0 0 43 79 83 110 311 342 289 277 229 57 13 0 96 648 363 59 39 328 740 1025 913 1153 2226 2566 1968 1894 1761 1774 2289 2090 2396 2285 2313 1827 2231 1878 1691 2234 2091 2056 2437 2495 2576 2617 2504 2192 2546
1 2 373 498 116 146 358 557 369 77 60 173 272 372 505 494 59 0 45 437 724 882 944 1659 2098 2248 2298 2153 1878 2170 2210 2094 2169 2169 1996 1751 1952 1975 1886 2024 1964 2003 2261 2415 2375 2249 1935 1835 2195
18 265 474 690 272 131 413 377 104 98 301 323 259 478 156 125 0 0 142 328 637 825 979 1722 2082 2109 2058 2075 2006 2174 2138 2019 2038 1976 2006 1932 1928 2011 1890 1711 2145 2226 2199 2245 2188 1959 1669 1569 2112
65 665 722 524 539 302 628 222 306 359 394 416 454 204 93 4 1 0 165 323 601 700 1013 1486 2369 2094 2116 2114 2138 2043 1835 1807 1933 1857 1826 1780 1851 1773 1715 1841 1840 1948 2105 2059 1968 1981 1643 1769 1917
492 444 617 404 425 404 639 586 253 532 429 99 197 195 202 47 0 22 174 365 416 645 786 1280 1977 2072 2040 2102 1928 1994 1645 1785 1904 1671 1815 1800 1744 1669 1569 1736 1884 1809 1984 1982 1871 1666 1743 2080 2356
425 581 385 417 369 512 520 407 544 598 501 215 87 276 134 0 0 23 197 347 552 656 787 1235 1356 1528 1747 1950 1831 1807 1781 1838 1696 1729 1714 1765 1718 1697 1590 1398 1548 1699 2008 1835 1894 2207 2252 2252 2385
581 648 286 274 274 622 507 341 328 526 356 82 238 207 5 0 0 78 249 394 625 632 917 968 1011 1506 1479 1491 1612 1827 1696 1621 1680 1705 1788 1547 1676 1673 1551 1935 1928 1828 1869 1903 1916 2140 2129 2265 2155
339 657 291 200 276 408 471 217 103 94 230 112 189 158 0 0 1 155 286 386 580 727 700 693 1353 1534 1639 1506 1724 1804 1777 1655 1585 1682 1636 1576 1130 1247 1418 1916 1741 1846 1903 1721 1716 2444 2397 2609 2282
550 546 201 108 280 427 358 83 31 130 163 156 220 39 0 0 7 128 222 290 504 551 466 860 1127 1304 1350 1035 1624 1562 1519 1210 1014 1036 1306 1273 1322 1606 1230 1509 1785 1801 1767 1686 2021 1840 1819 2028 1666
541 311 228 162 151 338 203 71 27 41 279 286 144 59 6 0 5 96 147 231 277 413 529 906 1082 1135 1007 973 1023 1357 838 1052 1334 1260 1190 1170 1201 1442 881 1243 1484 1520 1832 1409 1799 1745 1638 1694 1276
505 386 165 245 210 113 118 73 57 149 581 249 115 33 10 11 29 63 111 223 210 280 524 751 927 1079 749 800 813 736 669 573 640 1135 1275 1386 1093 961 751 952 1469 1353 1200 1466 1451 1616 1983 1990 1850
476 219 19 0 136 123 242 191 207 152 183 117 88 15 4 16 5 7 47 136 104 268 444 546 964 1264 911 1071 810 867 715 491 654 763 1089 860 853 1052 830 935 989 1039 1128 1350 1575 1725 2015 1842 1688
40 68 2 0 0 192 392 227 134 215 123 76 53 35 15 10 3 38 73 65 88 265 466 654 848 1167 969 1216 1395 1667 924 826 607 591 1044 1290 933 1129 1173 1321 1284 1417 1415 1571 1659 2076 1772 1556 1641
0 0 68 42 43 231 223 176 474 213 127 45 39 36 40 37 43 108 81 39 100 224 390 689 759 780 992 1379 1637 1756 1003 822 932 936 1308 1319 1324 1674 1324 1259 1282 1353 1795 1926 1893 1821 1605 1335 1311
0 0 45 314 535 355 463 381 840 243 187 111 57 64 104 110 105 18 0 0 62 140 453 609 395 511 731 880 1340 1189 967 899 1004 1016 1294 1410 1616 1766 1934 1448 1108 1443 1596 1450 1441 1389 1240 1205 1333
9 103 15 561 746 495 492 651 414 290 233 288 189 154 137 170 79 25 5 0 0 111 498 636 574 397 909 1356 1174 1195 1492 1360 1490 1187 1107 1551 1522 1892 1405 1187 1454 1737 1407 1344 1248 1380 1227 1261 1096
76 174 11 302 529 476 300 626 800 544 407 450 220 246 200 80 30 169 142 2 0 9 255 580 664 551 1031 1296 1370 1142 1354 1508 1512 1311 1169 1765 1585 1548 1661 1520 1778 1536 1257 1264 1344 1385 1288 1265 1220
46 93 56 281 350 63 10 258 1045 1054 779 388 254 272 202 35 86 304 311 154 0 0 70 493 676 875 1016 1050 990 1357 1372 1460 1502 1510 1566 1558 1665 1750 2054 1274 1280 1476 1277 1753 1706 1748 1518 999 1260
4 9 0 0 0 0 0 2 741 919 561 816 598 287 227 40 212 413 392 344 121 0 0 313 715 1002 945 790 1065 1111 1347 1333 1538 1471 1855 1569 1683 1547 1750 1386 1085 1330 1369 1918 1964 1863 936 940 1043
1 30 0 0 0 5 86 163 235 493 375 420 338 576 339 99 180 493 475 391 289 0 164 309 793 995 1137 1074 1359 1812 1774 1863 1929 1823 1751 1692 1892 1894 1728 1607 1650 1949 1733 1231 2056 1782 1441 785 1102
5 7 0 0 0 101 97 443 519 325 468 542 577 508 748 494 195 282 504 499 383 187 132 408 834 1050 1182 1441 1406 1588 1152 1011 1090 1392 1385 1900 1954 1841 1980 2105 2077 2276 1349 1387 1890 1445 1181 1588 429
14 0 0 0 0 0 0 100 338 381 341 649 507 678 710 605 552 423 491 558 432 453 311 293 888 1252 1275 1536 1639 1516 1716 1003 1113 1053 1839 1979 2186 2046 1606 1881 2181 2240 1889 2067 1646 1945 1795 755 696
0 0 0 0 0 0 0 48 52 88 139 140 137 236 706 890 811 666 602 597 534 439 547 550 959 1618 1802 1708 1938 1866 1565 1508 1207 1415 1516 1484 1609 1928 2212 2069 2341 2249 1834 2053 2064 2219 2175 1791 1431
0 0 0 4 0 0 0 0 34 0 0 37 175 227 179 914 735 874 910 758 628 475 494 676 964 1663 1670 1556 1714 1923 2045 2024 1787 1469 1283 1313 1374 1436 2637 2553 2591 2004 1950 1960 2012 1857 1706 1965 1632
0 0 0 1 0 4 0 18 0 0 0 95 224 344 296 376 993 894 731 941 783 688 660 860 979 1503 1721 1600 1709 1888 2063 1715 1656 1329 788 1247 1305 1506 1626 2663 2104 1894 1933 2234 2245 1585 1472 1682 1611
0 0 0 0 3 2 0 0 0 0 9 77 191 283 564 410 491 965 974 930 861 836 947 1028 1233 1567 1662 1570 1693 1924 2070 1980 1322 1127 1425 1246 1259 1300 1971 2297 1599 1787 2035 2367 2503 1708 2177 2078 2102
0 0 0 0 0 3 0 0 0 0 0 52 90 136 386 802 529 837 1225 1250 916 912 969 1123 1293 1548 1702 1546 1524 1675 1825 1996 1864 1580 1522 1477 983 1656 1638 2403 2425 1880 2294 2405 2515 1906 2233 2104 1580
0 0 0 0 0 0 9 0 0 2 7 5 46 51 111 243 804 967 1207 1126 1105 987 1027 981 1174 1411 1679 1546 1418 1479 1514 1598 1770 1598 1520 1532 1542 1739 2332 2396 2472 2033 2229 2530 2730 2132 1943 1937 1892
0 0 0 1 0 0 10 0 0 7 6 7 42 5 6 25 196 36 110 701 1165 981 1005 983 991 1036 1304 1527 1635 1556 1582 1540 1423 1554 1349 1382 1636 1609 2109 2439 2567 2383 2110 2454 2727 2255 1510 2164 2178

GFSSGP_con_sbcape_087.txt.gz
CAPE
0 0 12 21 588 277 319 417 201 401 217 115 32 71 176 776 783 629 560 843 872 799 1011 1695 2335 1787 1726 1632 2135 2348 1991 2350 1810 1568 1328 1470 1548 2185 2055 2406 2394 2611 2488 2597 2565 2466 2364 2408 2140
4 2 33 139 764 328 489 547 283 367 213 45 18 22 488 559 353 171 407 779 742 716 857 1447 2522 2033 1842 1632 1729 2252 2107 2115 2265 2031 2001 2142 1807 1778 1786 2285 2193 2296 2586 2528 2475 2128 2431 2544 2423
126 3 363 307 315 505 629 637 232 233 110 58 152 485 707 137 97 222 472 656 593 550 891 1517 2125 2130 1762 1738 1929 1954 2033 2197 2131 2068 1767 2117 2028 1957 2112 1993 2047 2339 2487 2417 2076 1921 1921 2174 2129
24 177 328 234 384 410 563 138 236 207 318 296 394 489 270 114 60 317 444 652 585 688 875 1702 2137 1792 1935 1917 1860 2065 2067 2144 1889 1746 2042 1969 2028 1970 1911 2055 2135 2254 2209 1917 2144 1838 2059 2093 2015
23 379 984 664 637 605 294 256 342 207 252 226 449 413 27 9 49 314 445 483 554 758 902 1506 2398 2038 1903 1899 2104 2039 1960 2025 1994 2055 1941 2028 1917 1777 2005 1954 2101 2256 2167 2208 1947 1649 2025 2288 2205
527 882 919 737 650 634 634 779 307 402 445 306 445 223 64 6 86 239 300 415 468 546 1010 1293 1923 1962 2026 1902 2032 1735 1826 1968 1808 1847 1871 1783 1801 1671 2061 1902 2040 2110 2002 1626 1911 1860 2143 2485 2259
433 923 534 507 577 754 701 824 712 434 195 279 463 323 96 7 113 202 330 388 316 418 743 1215 1333 1670 1931 1782 1968 1810 1859 1716 1698 1663 1802 1748 1815 1617 1903 1811 1979 1962 1867 2111 2036 2156 2066 2350 2166
544 1122 534 585 768 744 796 463 565 452 331 144 360 36 7 5 109 213 244 369 366 415 583 921 699 1125 1564 1637 1757 1858 1794 1754 1700 1714 1766 1804 1805 1773 1495 2260 2284 1963 1671 1736 1945 2107 2145 2053 1931
585 768 262 302 485 769 736 222 178 210 199 296 484 12 0 2 84 174 242 375 325 442 591 956 992 1235 1520 1253 1731 1529 1382 1655 1778 1566 1544 1776 1745 1311 1411 2270 1987 1763 1604 1622 1584 2109 2196 2154 1933
812 704 157 296 468 764 851 93 163 303 344 355 217 1 0 13 92 141 215 343 423 397 385 778 1128 1023 1357 693 1541 1570 1078 1377 1223 959 1618 1935 1735 1161 926 1831 1973 1927 1899 1807 1814 1889 1639 1969 1617
554 458 177 311 485 526 643 147 58 233 361 431 67 0 0 43 94 83 181 171 257 271 614 833 1035 1194 850 933 962 1650 1064 584 483 1625 1978 1374 933 910 623 1500 1611 1671 1973 1316 2025 2128 1842 1531 801
716 428 217 134 254 157 300 108 49 106 497 423 134 0 0 44 51 49 83 168 210 355 567 556 595 637 459 563 595 541 451 314 860 1171 1226 1800 938 657 1588 1486 1322 1264 1479 1629 1077 1395 1794 1589 1158
493 409 56 55 268 203 320 290 109 330 303 367 171 5 1 14 35 52 74 201 195 278 381 498 685 848 641 1851 1466 851 384 638 724 994 1223 1634 1023 822 783 1058 1530 1346 1605 1556 2135 1896 1799 1324 1710
434 425 60 0 42 433 364 289 297 228 283 157 185 12 14 19 31 48 67 151 104 212 280 553 727 700 728 1747 1877 1097 897 373 518 717 964 1258 1685 2111 1086 1544 1470 1434 1792 1332 1768 1949 1472 1124 1222
169 173 36 8 89 564 368 211 403 218 211 95 61 36 44 24 28 38 86 41 111 184 358 433 643 535 1008 1164 1590 1727 446 805 666 1160 1325 1385 1355 1748 1427 1728 1953 1821 1817 1875 1662 1949 1672 859 1427
217 168 208 125 569 534 366 659 430 194 159 66 49 54 44 27 19 27 44 22 131 163 443 420 286 368 861 1470 1569 2165 1365 1506 1556 884 1344 1555 1717 1749 2705 1670 1702 1350 1835 2063 2588 1617 1309 1579 1811
177 321 249 407 615 547 548 813 478 466 182 50 47 54 64 75 70 34 17 15 47 218 508 470 407 328 701 1068 1321 1956 1833 2238 2226 1722 1756 1531 1614 1621 2027 1385 1753 1890 1569 1790 1362 1497 1628 1730 1565
79 160 275 372 541 403 285 925 680 613 253 160 88 89 51 80 98 18 11 5 12 210 502 605 442 587 898 917 1930 2151 1515 2010 2273 1686 1731 1601 1578 1313 2548 2375 1445 2176 1613 1909 1904 2836 2644 1416 1901
118 136 78 227 331 344 299 552 1043 299 484 423 376 180 141 90 113 28 91 22 10 11 402 660 637 907 1005 983 901 2175 1399 2293 2827 2445 1763 1662 1948 1600 2217 2111 1676 2000 1426 1836 1546 1509 1715 977 933
75 140 82 136 277 144 242 439 950 812 668 682 444 279 229 174 56 115 213 32 12 4 146 609 805 1146 1284 1123 1665 1027 1450 1793 1399 1592 1671 2215 1543 1629 1861 2014 1254 1695 1753 1872 1843 1993 2503 1307 1050
98 190 102 65 19 11 48 390 943 724 910 691 589 416 283 176 42 274 282 197 64 35 0 466 861 1292 1248 1435 1315 1234 1937 1767 1302 1583 1448 1543 1626 1552 1735 1666 1005 1854 2387 1532 2163 1839 1589 1083 377
59 101 40 90 81 146 168 235 524 871 671 826 493 521 510 271 123 328 242 443 178 2 0 369 950 1117 1108 1811 1941 2595 1269 1304 1456 2355 1915 1884 1588 1930 1757 1559 1674 2152 2236 2222 1948 1344 2507 1890 729
7 140 49 9 21 50 144 202 54 898 996 906 975 816 677 427 224 329 341 371 288 96 162 437 1066 1746 2094 2006 2521 1742 2360 1178 1093 1700 2415 2081 2255 1817 1666 1905 2033 1698 2046 1713 2475 2224 2012 1103 1239
21 80 53 16 29 70 48 171 251 442 455 426 628 756 985 866 428 374 496 516 697 184 192 392 1233 1921 1735 1753 1904 2257 1645 1738 1449 1523 1364 1377 1489 1754 1864 1883 2284 2454 2139 2132 1941 2035 2068 2218 2523
42 19 59 27 19 40 21 168 119 57 154 260 257 424 697 1025 712 694 357 639 893 330 264 400 1373 1960 1758 1694 1857 2078 2005 1771 1878 1793 1563 1193 1429 1534 2852 2554 2593 2115 2282 2027 2137 2425 2244 2017 1791
4 9 22 10 21 29 64 210 35 34 180 270 392 549 401 518 1009 702 817 719 872 741 333 574 1306 2149 2016 1842 2642 2881 2391 1794 1265 1513 2281 1022 2560 1291 3519 2610 2217 2072 1970 1930 2168 1978 1538 2477 1710
20 6 3 42 70 81 93 18 77 111 160 276 182 477 1278 502 1123 1061 1123 403 646 853 832 852 1587 1816 2080 2057 2284 2741 2870 2569 1800 2470 1889 1518 1698 1512 1744 1854 1967 1982 2042 2142 2306 2037 2013 2221 2039
0 2 47 10 68 98 130 56 131 97 158 96 129 321 771 1118 689 1163 928 664 126 508 700 710 1050 1581 2093 2161 2108 2046 2182 2402 2225 1538 1835 1656 1871 1266 1075 2001 2088 2038 1993 2000 2372 2935 2782 2012 1965
0 0 24 70 34 143 118 167 75 88 170 143 55 19 112 541 869 1275 771 308 768 985 840 992 1112 1442 1912 2155 2194 2237 2068 2120 2309 2009 1796 1818 1618 1711 1748 2711 2080 2436 2322 2383 2845 3275 2325 2346 2269
0 9 4 21 21 3 37 88 82 85 238 135 17 2 43 93 85 18 49 107 158 628 354 152 922 1237 1580 1966 2163 1974 1873 2029 1947 2200 2013 2244 2248 1791 2101 1966 2271 2211 2301 2887 2788 2234 1710 1885 2040

GFSSGP_con_sbcape_090.txt.gz
CAPE
0 0 0 44 124 193 366 312 390 105 41 43 118 358 486 401 512 685 625 535 593 816 1043 1372 2212 1948 1795 2253 2039 2275 2361 1822 1841 1656 1633 1590 2185 2001 2496 2847 2527 2566 2523 2471 2330 2319 2138 2251 2190
0 1 42 257 212 168 253 330 282 254 56 39 282 293 220 248 334 599 628 484 600 491 432 917 2303 2122 1753 2101 2384 2470 2094 2182 2072 2238 2128 1825 1947 1744 2357 2328 2378 2449 2637 2427 2410 2521 2467 2195 2134
152 50 115 280 338 513 503 530 240 11 7 133 532 192 49 158 276 408 537 411 245 631 910 1399 2470 2372 1854 1908 1818 2130 2149 2105 1979 2109 2171 2009 2324 1942 1915 2009 2378 2406 2617 2607 2174 2196 1979 2168 1875
30 223 229 361 288 478 328 377 92 61 53 196 155 40 34 108 251 413 499 278 509 1057 1296 2193 2364 2011 1851 1887 1831 1684 1999 1972 1982 2059 2205 2180 1951 2070 2108 2208 2305 2131 2197 2152 2203 2203 2067 1482 1251
9 152 162 170 303 112 343 191 168 158 300 418 0 5 22 181 162 355 408 592 695 734 1009 1467 2345 2138 1680 1698 1937 1910 2022 2043 1905 2189 2217 1993 1946 2019 2151 2126 2143 2138 2206 1810 2123 2142 2195 1815 1492
144 507 203 270 247 388 772 756 226 229 399 103 0 0 29 112 93 340 266 417 576 618 746 1056 1893 2060 1977 1902 1825 1814 1912 1946 2143 2192 1749 1950 2326 1908 1936 2018 2032 2084 2148 2087 1972 2300 2376 1929 1699
93 724 415 486 588 650 607 636 588 346 316 91 0 0 18 81 78 180 385 472 261 588 824 1143 1404 1916 1853 2040 1791 1802 1796 1717 1777 1936 1862 2095 2195 1874 1847 2483 1946 1964 1831 1901 2257 2166 2216 1935 1806
241 939 597 466 853 667 717 664 534 380 191 374 76 0 5 54 81 156 197 243 324 427 678 971 1044 1167 1258 1459 1805 1826 1655 1717 1719 1816 1751 1519 1660 1596 1762 2323 2062 1593 2013 2066 2144 2082 2032 1788 1679
428 777 414 353 602 807 483 250 293 248 222 282 376 0 0 18 119 135 88 179 431 619 588 806 1011 1361 1873 1741 1609 1618 1695 1719 1704 1662 1301 1411 1573 1400 1614 2325 2010 1626 1708 2022 2037 811 1420 1739 1681
583 732 324 426 720 835 298 197 429 432 427 212 0 0 3 27 124 182 32 296 273 501 646 984 1198 1239 1231 766 1740 1217 1168 1284 1257 1334 1115 1824 1755 1410 1266 1895 2001 1677 2211 1906 918 141 16 1109 1454
595 490 229 312 623 857 335 161 205 409 400 16 0 0 3 23 93 196 54 98 71 481 875 655 1612 1468 1106 1382 1762 1168 1479 1039 1400 1399 2430 1930 876 1097 1379 1938 1867 1672 2055 1323 1388 461 197 289 1055
635 713 365 299 543 402 371 151 161 201 324 147 2 0 4 20 76 111 136 99 520 529 522 623 1041 672 1335 635 844 1113 1189 1034 612 1366 383 1997 2346 1771 610 1341 683 163 747 205 1091 1602 1381 1961 1312
408 500 392 383 302 430 245 113 67 369 455 250 2 1 8 32 65 112 111 96 340 452 262 330 1340 1688 2395 2117 1728 1040 632 1052 885 1522 1468 1205 2284 1518 637 1056 232 812 821 754 1438 1230 1506 1979 1294
233 462 251 258 403 485 379 98 237 301 335 167 12 6 9 31 54 81 103 96 255 427 206 844 890 1256 1148 2729 2354 838 651 989 1137 1120 1635 2383 2611 2930 2271 2209 477 769 762 1485 271 1599 761 2208 1787
346 643 226 86 659 534 308 217 383 353 200 239 20 13 15 32 40 37 50 83 127 296 518 849 500 577 1706 2653 2485 2607 886 1176 1051 1243 1948 1814 2262 1004 400 1875 1564 742 1376 1722 907 1538 1881 2227 1810
451 260 175 75 675 506 290 416 337 252 124 120 4 21 19 37 24 49 70 35 138 386 692 789 110 291 1474 2386 2697 2281 1486 1207 1687 1603 1901 2226 2169 2543 2601 1878 1311 2729 2133 2131 1464 2291 1849 891 2075
171 277 204 195 602 640 481 296 195 238 112 96 29 38 20 42 28 48 36 49 84 729 708 916 631 552 1763 2526 2513 1256 1887 1254 1625 1149 1761 2412 2366 2295 1394 1288 1693 2979 2338 644 1898 558 1838 2367 1473
10 194 166 253 80 318 566 545 314 290 62 60 45 25 43 53 28 23 19 34 94 492 894 1356 544 1453 2372 1832 2444 1614 2140 1471 2193 1929 897 2819 2326 2015 999 1829 2433 1324 2129 1548 1723 2745 852 1956 993
28 97 241 132 454 681 652 434 262 232 45 25 51 50 44 66 95 18 15 18 73 379 824 1322 1522 2028 1791 1764 1521 1979 1537 2656 2470 533 899 2462 2368 1956 1062 2066 2717 1295 1116 2154 2705 2545 2453 2424 1841
6 43 148 8 5 81 620 518 501 392 190 124 124 42 70 54 71 25 27 16 30 368 817 1579 1927 2107 2350 1898 2431 2103 1657 2034 2183 1879 2615 2558 2425 2234 1547 753 1669 2070 1461 2828 2858 2674 1878 2550 629
0 2 139 127 43 3 124 280 514 376 739 423 237 167 82 85 47 49 128 56 30 294 750 1389 2125 1939 2185 2645 2098 265 370 189 712 2423 2389 2392 2277 2358 2296 1996 474 1895 2032 2260 2808 2785 1480 1394 2268
0 62 66 79 0 103 232 571 606 693 651 644 504 280 178 114 91 127 128 87 27 132 393 1369 2154 1795 1554 2632 2227 1918 876 886 1709 2270 1299 2397 2657 2457 2488 2813 1181 2028 1108 1041 2755 2670 917 1046 2494
0 146 7 35 22 27 14 352 106 0 543 670 678 499 167 95 83 130 189 221 116 147 140 1146 1812 2304 1654 2219 2560 2261 2037 832 318 1087 1759 2265 2839 2661 2547 2947 2411 1782 2050 1075 1331 2783 3143 2666 2157
10 17 63 32 5 19 0 21 391 9 10 544 587 450 414 410 80 212 223 146 178 11 51 917 1849 2385 2721 2345 2445 2028 1741 509 1141 2115 2642 2110 2295 2482 2855 2489 3144 3165 950 1743 1991 2990 2877 3211 3239
0 1 106 62 0 3 37 66 275 3 24 1 875 712 615 608 592 126 207 232 242 15 222 1087 1871 2241 2244 2360 2367 2545 1904 2101 794 1331 521 1213 664 1763 2541 3407 3641 2469 2626 2441 2695 3417 2706 3393 3086
0 23 99 53 31 11 1 258 69 0 241 105 735 563 207 89 794 356 238 563 568 347 257 896 1904 2310 2275 2377 2676 3128 3055 2451 1859 2225 1968 926 1795 1568 2580 2388 3003 3178 2894 3013 3032 3214 2834 3018 3046
6 0 54 73 38 65 224 68 86 222 293 375 420 610 801 435 775 1049 604 656 750 404 211 708 1921 2392 2471 2305 2831 3142 3221 2963 1947 2765 3297 2600 2226 794 1226 1767 3118 3207 2639 2736 3032 2881 3101 2844 3138
5 7 5 29 88 114 280 174 287 323 382 263 220 145 300 356 868 757 313 463 674 720 405 1151 1758 2310 2720 2458 2554 2753 2957 3166 3265 3344 2244 3102 1870 367 748 648 744 2627 3094 2656 2818 2580 2328 2819 3155
0 0 0 22 63 90 189 201 274 242 307 214 149 164 101 31 58 122 157 75 551 233 49 62 489 2180 2623 2790 2801 2670 2644 2873 3179 3092 3231 2824 2584 1131 516 0 0 1844 2912 3081 3476 2375 1584 2514 2495
1 32 27 8 45 151 241 151 74 164 234 132 32 35 4 0 0 6 5 57 78 2 88 257 253 469 1692 2579 2958 2907 2806 2779 2901 3003 2987 3334 3288 3045 2309 929 1577 2509 3086 2574 2665 3162 2350 2536 2790

GFSSGP_con_sbcape_093.txt.gz
CAPE
0 0 0 0 22 19 222 254 242 109 87 70 157 165 276 307 401 342 368 566 789 1116 1554 1800 2438 1849 1450 1490 2288 1877 1544 1307 1382 1373 1713 2137 2216 2308 2843 2619 2683 2640 2718 2493 2298 2279 2184 1771 1846
0 0 22 118 90 61 122 289 133 175 96 8 41 137 288 318 287 300 329 523 691 884 948 1292 2022 2156 2250 1998 2325 2278 2123 2007 2325 1993 1839 1955 1941 2427 2461 2452 2473 2645 2943 2668 2460 2225 2160 2126 1816
23 37 1 120 126 84 166 606 289 196 262 0 30 56 212 205 185 188 253 267 297 275 899 1284 2047 2133 1887 1971 2022 2104 1977 1787 2041 2030 1908 2072 1886 1894 2332 2367 2296 2220 2709 2727 2063 1919 1961 1734 1789
47 128 96 39 44 361 467 280 106 55 0 0 0 61 146 177 83 78 99 80 96 576 1100 2054 1921 1730 1923 1815 1630 1934 1957 2016 2036 2059 1965 1963 1836 1999 2298 2310 2342 2252 2075 2209 2012 1838 1432 1514 1767
41 152 137 0 2 315 401 348 259 145 0 0 0 59 136 117 60 50 361 743 866 1008 1232 1480 2363 2127 1712 1686 1845 1932 1919 1828 1896 2148 2013 1964 2015 2176 2186 2077 2120 2125 2152 2108 2168 1965 1587 1615 1538
40 248 11 11 287 240 224 373 253 16 0 0 0 10 144 101 83 185 320 345 701 856 1103 1291 1775 1820 1902 1857 1761 1891 1910 1822 1980 1734 1853 1924 1942 1968 2090 1878 1996 1733 1808 2235 2193 2174 1926 1561 1598
5 85 101 162 303 207 147 320 466 25 0 0 0 0 26 139 143 243 237 303 472 624 774 1187 1366 1630 1826 1605 1729 1709 1700 1738 1762 1783 1917 2155 1825 1934 2042 1778 1882 1852 2040 2079 2135 1973 1846 1671 1684
153 183 193 238 305 262 310 393 181 393 158 0 0 0 2 62 132 77 181 356 395 592 903 947 1254 1139 1243 1421 1721 1621 1628 1694 1769 1712 1687 1867 1826 1957 1860 2100 2570 1788 1906 1895 1907 1867 1703 1434 1382
150 158 216 356 243 612 355 40 191 220 332 21 0 0 0 32 102 59 28 193 333 431 510 816 806 901 952 1183 1442 1542 1656 1721 1583 1597 1465 1707 907 1228 1365 1790 2035 1864 1989 2065 2039 1934 1881 1714 1565
327 102 394 693 352 472 223 96 109 311 409 185 1 1 5 27 79 36 18 183 221 289 306 473 686 809 883 1005 1104 1097 1204 894 984 970 696 739 836 934 1266 1509 1855 1693 1954 1783 597 352 713 1437 1324
255 162 383 780 478 189 111 105 169 362 227 21 0 0 4 45 55 41 72 36 171 292 485 492 584 651 485 703 943 731 730 820 507 589 703 667 688 969 1110 1129 1057 862 1388 730 52 717 64 80 276
13 40 394 761 523 167 93 367 392 188 110 77 0 0 1 29 33 35 19 128 292 370 530 694 529 752 734 843 924 419 747 686 563 990 995 594 462 0 190 242 351 208 52 165 120 515 777 41 130
376 551 293 654 443 305 144 127 312 162 171 459 0 0 2 14 43 12 117 101 77 130 303 418 227 950 543 568 383 610 640 227 668 579 460 933 676 50 469 457 28 334 256 155 545 531 666 1503 554
158 93 287 412 316 302 27 68 62 66 67 256 0 0 0 11 48 44 140 81 54 38 272 143 618 587 1066 1042 291 307 298 369 553 368 961 1159 582 118 295 333 311 607 224 0 424 257 604 1075 475
6 6 137 475 408 152 69 127 137 194 179 1 0 1 5 17 64 39 95 165 26 8 159 12 277 236 1170 1238 1082 518 234 509 450 1044 828 1044 311 550 745 283 342 453 392 732 571 317 1047 868 727
135 289 152 615 432 273 219 203 322 176 290 7 2 6 9 31 14 21 36 95 8 62 0 0 427 597 994 1015 1083 512 564 525 444 681 1115 1365 805 1375 1378 821 646 505 809 1122 302 1285 980 529 473
138 266 241 623 400 264 394 330 292 157 124 45 1 1 11 16 22 30 18 14 45 71 36 0 34 507 1068 942 1264 836 49 536 871 954 1144 1019 1360 766 1031 710 629 1161 591 462 1042 195 669 1039 499
0 152 146 159 37 2 124 186 232 147 66 24 1 0 7 5 4 20 19 18 23 0 45 4 0 654 880 795 718 1135 622 884 844 852 1160 1258 1294 517 530 771 1060 1202 592 873 1202 815 458 654 246
0 55 128 6 4 1 175 158 198 143 39 3 3 0 9 5 0 4 20 23 129 0 121 109 77 783 289 974 741 673 641 937 628 593 507 1274 566 87 35 751 1052 1030 795 722 978 1607 991 1372 729
0 0 148 55 27 44 148 212 199 195 42 11 7 3 5 0 1 0 3 17 80 70 87 540 184 520 121 592 872 834 836 862 704 487 669 1143 940 622 948 411 1037 929 1063 1309 1639 1289 1248 1098 211
0 0 87 51 60 90 78 72 276 237 113 123 77 49 6 3 0 0 0 3 20 83 203 694 558 605 860 253 189 197 82 1 462 499 1021 1358 1393 1082 575 975 464 523 759 1002 1194 533 328 405 1003
0 0 36 89 53 21 13 5 0 131 173 147 56 96 42 7 3 0 0 0 0 78 304 821 690 426 440 829 194 100 7 0 269 756 1120 1049 1179 1447 1249 203 28 1169 578 587 1177 1251 968 705 926
0 122 221 122 32 235 93 10 111 50 197 148 77 205 118 45 18 5 1 0 4 94 274 823 580 403 124 757 360 48 91 356 119 466 1063 1328 1220 1444 1492 1130 1023 599 359 442 890 1542 1456 1603 1759
0 20 111 84 38 7 143 137 51 53 218 337 378 264 239 129 85 68 31 9 2 49 247 511 899 557 393 654 796 562 290 77 299 474 940 1003 1244 1272 1578 1601 995 1020 351 100 1021 1040 1577 1498 1495
0 0 0 39 23 0 0 130 82 60 32 120 71 61 367 181 111 104 135 105 13 29 265 425 896 1020 1022 809 908 610 687 212 600 597 548 780 1218 1204 957 1415 1498 1335 743 731 1206 1783 1164 1819 1482
0 0 0 2 0 0 28 91 52 39 24 213 447 299 163 137 48 93 146 109 69 11 186 446 733 1091 902 998 1152 919 750 525 343 640 328 712 526 731 1307 1419 1624 1424 1507 1361 1587 1133 1584 1229 1400
1 0 0 0 0 13 228 43 0 1 0 137 283 113 145 257 859 343 92 149 153 10 163 478 885 911 903 1576 1268 1712 1031 858 981 958 1227 656 844 1612 1889 1539 1780 1765 1461 1236 1570 1437 1717 1234 1268
0 0 0 0 4 76 160 87 56 139 259 262 164 101 82 193 592 477 471 361 93 156 124 565 586 1084 1230 1056 1602 1720 1368 1100 1169 1458 1507 899 685 821 798 932 1282 1526 1631 1281 1451 1272 1244 1383 1463
0 0 0 0 0 31 79 57 127 68 55 66 52 17 15 37 73 287 84 22 35 95 79 28 30 191 243 1308 1590 1656 1770 1659 1564 1535 1747 1366 359 640 348 193 145 473 1137 1521 1352 1306 1039 887 1218
0 0 0 0 0 25 105 68 41 11 16 5 4 2 1 2 3 25 58 23 12 4 30 96 137 134 249 131 367 1711 1901 1820 1740 1794 2061 1417 889 644 276 0 0 0 800 1623 1672 1407 1459 1009 1031

GFSSGP_con_sbcape_096.txt.gz
CAPE
0 0 0 1 25 98 112 117 208 66 58 79 34 151 204 179 225 11 214 465 836 1280 1649 2062 2439 1805 1564 2171 1706 1427 1328 1438 1628 2243 2159 2325 2501 2499 2572 2532 2616 2513 2336 2440 1976 1879 2112 1630 1535
0 0 7 50 32 108 84 232 19 19 34 122 189 198 174 149 211 301 398 603 1109 1291 1350 1644 2091 2001 1845 2399 1994 1989 2369 2330 1692 1873 1965 2351 2486 2473 2502 2554 2478 2584 2564 2407 2228 2241 2020 1647 1448
0 0 12 76 89 82 73 132 13 20 47 50 96 129 136 228 277 246 456 702 929 849 953 1183 2119 2360 2074 2110 2236 2059 1962 2225 2038 1906 2021 2102 2259 2367 2472 2505 2448 2710 2649 2375 2019 2061 2065 1647 1499
0 85 15 34 53 139 204 95 0 0 3 46 48 64 76 136 142 322 425 522 367 729 847 1592 1711 1878 1970 1989 2085 2083 2055 2219 2131 2083 1991 1847 2034 2197 2315 2406 2338 2169 2156 2000 1935 1907 1850 1633 1534
27 156 125 6 17 124 362 42 0 0 11 32 25 67 14 42 112 183 118 94 483 810 1217 1306 2323 2023 1782 1789 1931 1970 2052 2100 2177 2105 2037 2063 1914 2114 2187 2277 2180 2285 2226 2094 1565 1482 1935 1743 2125
55 62 20 5 51 273 226 159 1 0 28 24 0 0 0 35 51 7 70 308 514 811 1159 1539 1854 1782 1807 1970 1946 1991 1974 2068 1917 1864 1967 1849 1970 2241 2168 2076 2031 1963 2053 2187 2091 1777 1714 1662 1880
52 2 7 96 122 207 168 256 0 0 8 0 0 0 0 0 170 280 470 539 824 1148 1015 1140 1323 1755 1853 1785 1912 1964 1917 1823 1716 1905 1811 1859 1829 1960 2003 2057 1821 2006 2059 2238 1969 1786 1572 1553 1689
159 271 66 93 132 151 371 255 217 4 0 0 0 0 0 11 158 188 304 485 526 749 1009 1020 1182 1242 1120 1412 1740 1717 1778 1740 1827 1676 1875 1725 1847 1922 1965 2392 2274 1942 1973 1790 1882 1809 1696 1539 1491
178 239 227 132 116 186 197 47 117 120 4 3 0 0 0 58 86 114 169 303 456 696 783 1012 899 914 937 1141 1436 1572 1680 1629 1648 1575 1734 1546 1103 1192 1342 2016 2366 2014 1969 2050 1656 1798 1600 1411 1403
134 159 248 214 167 219 163 86 92 234 57 24 1 33 18 2 92 160 180 195 292 429 733 721 579 668 916 1378 1086 910 1089 724 779 754 700 570 653 905 1257 1623 1942 1975 2218 1240 898 1080 1254 630 589
71 168 61 333 325 282 113 154 197 175 31 0 0 6 5 0 4 104 173 140 206 244 311 413 489 555 672 856 753 753 723 628 485 367 473 503 589 818 706 370 555 1045 956 4 220 530 309 7 2
0 0 56 483 450 197 66 74 138 130 140 1 4 6 17 0 6 58 114 172 196 232 343 318 368 434 294 631 584 505 541 242 356 357 483 192 46 210 115 57 197 126 0 11 63 281 657 912 662
5 8 124 306 233 169 249 199 106 48 74 12 0 15 15 22 0 0 119 151 177 302 297 315 382 339 397 755 423 286 460 233 306 367 300 192 0 160 163 207 3 278 42 11 174 308 281 619 988
129 301 147 331 289 229 178 146 31 44 141 4 0 7 16 24 6 16 127 206 173 207 321 151 512 499 343 277 338 320 377 98 179 140 325 586 0 14 0 109 0 330 67 0 37 88 22 776 233
206 132 373 503 226 147 143 120 16 6 81 1 0 2 36 32 50 64 89 29 71 122 26 302 286 713 612 199 139 162 192 139 316 604 610 292 33 112 119 130 242 384 331 369 126 281 791 934 197
73 163 166 314 235 146 139 185 31 17 164 10 9 4 4 52 62 68 27 0 27 38 71 223 291 728 618 342 143 147 145 164 508 700 642 260 245 295 403 229 283 233 439 507 343 513 755 317 190
60 87 157 411 165 165 236 157 66 123 213 0 3 3 20 36 67 93 87 41 95 0 0 206 297 521 624 781 310 129 217 350 383 539 591 780 682 672 475 370 330 395 510 464 417 161 409 579 502
0 85 99 261 250 90 104 239 148 153 273 0 3 0 23 24 28 45 88 28 53 0 0 156 153 538 644 327 424 235 323 211 663 984 865 1030 715 371 492 416 727 648 402 417 690 461 346 332 92
0 0 39 45 212 59 119 278 253 170 162 109 6 0 13 20 18 8 48 63 25 0 0 0 249 407 474 463 325 379 351 474 435 522 903 941 519 28 370 566 851 710 480 348 379 1041 593 832 337
0 0 214 144 76 127 32 339 228 210 76 129 0 0 0 15 20 34 73 47 0 0 0 0 260 233 391 384 407 534 383 455 433 300 299 865 286 26 419 517 635 570 847 1034 1069 1005 731 527 84
0 0 149 211 7 0 21 95 142 284 188 27 62 2 0 2 0 46 90 31 0 36 116 0 281 14 104 479 247 144 20 25 342 474 523 809 771 805 167 559 609 364 413 623 917 297 117 379 507
0 0 87 349 128 121 14 1 1 3 138 115 143 122 5 3 0 44 114 111 37 131 269 86 181 95 303 183 125 164 116 59 129 295 653 715 1083 865 422 674 256 788 319 455 907 578 736 475 1013
0 0 123 263 26 78 12 0 2 0 74 136 215 133 47 0 0 0 77 158 126 163 380 162 191 128 467 313 117 10 0 2 200 391 691 744 683 1136 1021 88 45 433 219 235 563 1322 1100 1144 1344
0 113 123 60 1 16 15 73 103 6 65 145 156 84 172 54 18 1 22 134 164 181 499 261 151 46 232 600 258 29 26 192 256 376 701 785 794 954 1089 881 682 368 290 336 635 367 1130 1069 1329
0 0 0 42 18 2 39 120 23 70 152 190 185 164 112 232 115 70 0 111 164 207 426 547 195 85 65 370 461 312 168 53 268 352 646 695 816 1002 738 1086 742 616 87 12 458 1119 822 1292 1104
0 0 0 52 19 0 80 77 3 167 402 177 364 345 171 156 117 54 29 29 130 203 333 775 378 203 349 357 562 363 340 288 330 299 261 499 698 899 772 1072 1086 1064 933 875 1069 867 1157 968 953
0 0 0 0 0 4 14 4 3 21 125 431 260 89 99 268 237 134 72 55 61 134 329 449 723 533 387 671 494 448 535 518 307 316 357 126 447 674 993 1117 1298 1154 1247 987 1222 1136 1368 1176 786
0 0 0 0 0 12 41 37 14 0 182 250 108 51 99 260 671 549 337 294 206 216 203 242 503 567 471 927 645 887 674 480 505 444 691 940 663 1039 1240 1233 1282 1453 1385 1130 1181 1116 900 977 918
0 0 0 0 0 7 93 81 298 189 287 172 61 52 53 46 153 106 166 195 162 149 89 82 95 206 239 330 294 612 1108 878 558 827 941 645 548 589 699 755 972 1114 1345 1285 899 916 1017 867 1012
0 0 0 0 0 0 12 141 211 92 64 14 34 3 3 11 23 69 101 90 68 83 143 6 98 69 89 122 246 415 751 967 1143 1127 1090 772 497 399 349 259 233 281 507 877 1256 1009 1194 866 634

GFSSGP_con_sbcape_102.txt.gz
CAPE
0 0 0 0 29 27 41 141 123 0 0 0 0 16 47 172 167 0 66 227 632 1025 1254 1475 1938 2016 1698 1666 1675 1833 2144 2235 2253 2342 2238 2219 2235 2357 2323 2272 2202 2533 2540 1977 1751 1878 1822 1908 1705
0 0 7 43 20 27 62 61 6 0 0 0 7 125 193 301 270 223 190 669 992 1221 1212 1259 2088 1814 1614 1342 1261 1335 1734 2131 2280 2113 2008 2295 2396 2199 2080 2362 2514 2155 2271 2496 1953 2095 1873 1846 1436
0 0 4 87 59 56 69 99 96 21 13 0 151 226 279 305 91 143 380 950 1181 1178 1259 1425 1522 2109 1586 1740 2033 1909 1331 1878 1929 1816 2266 2348 2233 2327 2303 2144 2345 2437 2222 2170 1882 1811 1752 1894 1915
0 3 2 12 59 132 118 96 41 35 37 114 119 146 152 56 174 335 834 898 871 999 836 1435 1954 1946 1960 2004 1955 1987 1841 1657 1895 1843 2198 2202 2395 2276 2262 2273 2416 2315 2178 1834 1636 1702 1549 1642 1634
0 135 70 53 58 79 156 50 59 48 100 120 106 67 40 344 313 684 657 740 751 628 1131 1607 2105 1989 2070 1964 1935 1866 1837 1913 1939 1831 2004 2109 2436 2455 2220 2097 2109 2217 2195 2017 1817 1605 1636 1724 1949
182 7 1 15 20 177 50 82 153 119 78 37 4 3 129 224 374 450 484 478 503 765 1032 1553 1911 1849 1983 1959 1909 1929 1773 1556 1542 1814 1766 2249 2258 2449 2578 2313 1995 1902 1923 1938 1839 1667 1886 2106 2149
89 0 15 59 83 112 107 120 126 44 23 4 0 54 200 76 217 199 225 477 749 869 1049 1289 1418 1561 1871 1796 1772 1827 1661 1685 1728 1868 1993 2036 1999 2218 2292 2345 2377 2126 2046 1753 1661 1563 1776 1898 1991
169 13 48 11 114 57 219 190 65 51 21 0 0 0 62 73 5 118 284 480 754 918 972 930 1082 1102 1288 1241 1738 1648 1716 1555 1720 1889 1991 2105 2067 1761 2159 2193 2170 2007 1920 1875 1663 1763 1790 1970 1932
168 149 70 0 102 92 162 97 189 44 1 0 22 1 57 97 142 177 377 553 714 853 678 684 813 830 1115 1168 1395 1413 1499 1599 1549 1661 1936 1243 941 1309 1685 2494 2209 2106 1888 1813 1656 1827 1935 2055 1830
3 62 63 46 94 55 112 114 108 0 0 9 61 53 147 195 110 84 152 162 483 660 731 639 606 751 954 1449 644 725 941 748 795 639 586 685 839 1365 2006 2231 2286 1812 1126 1538 1913 1709 1302 713 730
17 138 168 98 22 44 51 119 135 23 3 0 72 128 184 166 115 64 109 226 374 450 758 515 544 635 836 744 527 541 294 357 356 433 480 654 925 863 612 967 1018 670 385 545 549 504 732 435 356
53 71 28 177 21 140 66 172 67 116 30 44 135 166 151 156 157 87 106 175 219 402 604 407 471 551 482 542 488 350 309 208 248 350 315 545 551 367 246 425 213 10 0 131 384 564 680 773 1047
2 30 211 262 85 159 166 75 26 46 79 109 135 168 151 149 145 122 73 113 134 327 311 313 368 364 265 571 355 342 350 178 180 305 249 291 278 180 105 56 15 318 39 9 312 352 396 795 324
6 115 82 330 260 157 62 71 1 55 84 114 117 128 128 143 157 113 77 105 138 210 190 220 305 249 167 247 227 252 293 131 205 405 213 76 110 27 123 12 0 318 0 0 164 557 731 651 21
400 235 243 275 234 182 142 108 88 40 139 121 97 79 152 147 133 127 114 141 116 164 188 185 220 185 165 201 178 156 250 106 83 197 213 11 1 0 0 9 153 326 483 575 573 745 673 196 217
375 195 96 549 205 118 95 60 139 37 116 94 62 61 99 56 120 95 136 151 119 141 187 146 402 289 180 193 127 95 81 88 29 157 256 290 3 104 0 97 142 289 401 568 748 513 635 463 326
1 74 90 207 330 181 109 15 79 61 42 54 92 67 52 2 67 97 168 137 126 119 124 168 318 367 219 137 61 0 32 155 218 296 297 217 89 352 300 186 314 426 483 492 699 552 561 706 580
0 6 135 121 132 315 98 29 9 42 8 44 70 80 7 9 106 128 156 140 117 106 103 107 245 213 163 98 18 28 48 166 130 259 263 333 602 714 396 407 708 755 503 624 819 708 354 551 194
0 18 201 63 254 33 34 55 0 30 2 6 11 8 13 85 132 128 148 117 88 78 94 134 186 189 110 109 98 78 103 447 519 452 521 415 571 559 322 604 736 584 555 576 796 1088 780 727 250
0 120 224 192 129 144 57 116 16 33 2 12 0 3 41 95 91 157 98 134 36 16 95 87 179 186 111 84 71 96 114 163 222 219 423 565 385 96 349 469 659 697 889 1026 902 758 508 242 344
0 1 159 182 209 125 82 129 63 103 57 6 1 1 29 60 103 71 84 84 23 6 47 36 104 162 95 132 81 27 28 115 196 226 274 595 315 21 451 316 399 574 539 757 927 236 320 803 640
0 0 305 165 40 54 11 4 101 67 105 117 2 0 4 55 122 45 100 73 24 7 0 5 36 99 73 133 169 145 144 155 145 164 201 471 633 643 365 448 375 316 336 440 1045 587 619 780 1204
0 0 225 197 15 0 0 0 0 105 110 48 25 10 0 4 100 54 80 108 36 2 0 0 0 0 64 87 96 112 100 21 0 158 334 462 571 827 693 542 210 612 272 300 765 1143 1050 1247 1394
0 33 0 0 0 12 0 0 0 1 42 57 4 0 0 0 60 99 82 86 64 14 0 0 0 0 0 2 0 40 73 23 58 33 303 365 490 578 760 526 70 306 197 194 578 873 1050 1117 1079
0 0 3 39 33 13 0 0 0 0 0 61 72 14 0 0 30 88 57 55 40 68 11 16 0 0 0 54 43 0 0 0 9 52 243 302 460 640 757 687 388 357 296 196 410 922 1079 1304 1323
0 0 0 0 3 0 0 0 0 0 17 29 95 59 0 0 35 66 83 55 44 127 99 64 62 29 81 82 66 25 0 0 10 93 117 329 414 612 701 725 817 614 431 160 158 824 1049 956 967
0 0 0 0 0 16 7 0 0 147 41 117 156 151 22 0 2 10 57 87 55 51 207 118 126 57 88 152 107 81 42 54 36 88 115 304 333 487 671 615 808 704 737 491 946 877 858 1076 864
0 0 0 0 0 0 0 0 0 160 233 81 126 94 129 247 114 93 5 67 91 67 132 312 109 58 48 47 133 133 125 125 168 145 169 98 108 213 447 321 650 611 908 878 815 1073 895 913 841
0 0 0 0 0 0 0 0 63 71 235 128 82 86 64 181 268 281 216 48 41 142 182 356 197 172 175 154 100 146 167 188 223 238 208 283 477 398 476 601 745 965 912 970 904 760 985 961 850
0 0 0 0 0 0 0 0 94 176 148 120 100 71 66 103 198 393 306 82 38 192 182 117 87 228 178 163 188 234 298 398 231 311 267 391 677 467 353 523 786 933 854 1075 1054 1007 826 964 913

GFSSGP_con_sbcape_105.txt.gz
CAPE
0 0 1 11 255 254 225 272 28 0 0 0 0 0 23 261 244 1 175 514 598 794 1393 1493 2058 1910 1731 1754 2052 2256 2186 2273 2405 2380 2400 2364 2397 2382 2327 2291 2188 2091 2022 1996 1977 2024 1761 1836 1803
0 0 37 102 180 156 208 246 0 0 0 0 69 81 255 516 246 170 323 620 702 967 1364 1433 2121 1905 1519 1444 1513 1848 1985 1776 2223 2334 2326 2270 2345 2383 2217 2032 2251 2205 2297 1970 2113 1809 1600 1194 1019
0 0 58 382 161 162 180 192 0 0 0 0 317 335 375 207 53 171 420 713 840 1253 1346 1797 1928 1732 1507 1593 1676 1340 1778 2008 1971 2141 2299 2346 2079 2074 2125 2182 2253 2151 2365 2101 1917 1834 1973 1953 1565
0 94 81 100 64 125 130 167 0 0 0 211 241 244 131 76 97 342 671 722 946 1209 1210 1316 2149 2058 2174 1927 1702 1752 1514 1916 1674 2148 2259 2272 2130 1967 2192 2447 2325 2035 1997 1915 1898 1714 1845 1746 1698
159 300 224 31 26 126 71 35 20 5 21 211 150 48 61 398 556 599 729 685 979 857 420 1601 2235 2143 2053 1910 1856 1831 1618 1699 1868 2167 2071 2075 2170 1870 2074 2327 2280 2053 2077 1988 1830 1785 1846 2059 2109
358 37 23 7 49 125 43 94 51 126 188 55 18 0 112 299 465 623 624 804 618 706 1378 1544 2006 2050 1784 1854 1779 1662 1484 1785 1963 1981 2135 2029 2476 2226 2725 2127 2226 2061 1927 1878 1903 2002 2145 2212 2119
86 26 31 57 71 91 96 135 137 130 104 45 2 6 210 230 422 562 684 693 316 1312 1388 1613 1361 1714 1847 1736 1831 1673 1590 1806 1927 1805 2238 2101 2077 2033 2410 2432 2154 1952 1818 1794 1813 1925 1812 1971 1864
184 73 49 46 86 99 182 106 42 40 34 0 3 15 79 223 373 529 536 205 542 877 1370 1637 1702 1641 1498 1691 1667 1753 1681 1908 1909 1842 2058 1925 1970 1850 1985 2198 2452 2083 1863 1827 1786 1810 1796 1861 1775
202 168 12 1 65 38 125 39 87 3 8 0 10 5 35 203 295 397 176 168 461 1097 1272 1540 1487 1557 1615 1572 1622 1688 1626 1778 1924 2026 1938 1973 2131 1994 2022 2025 2345 2109 2031 1777 1789 1942 1996 1854 1789
25 135 60 35 71 61 146 34 0 7 7 21 38 57 77 201 224 100 0 158 355 965 971 1377 1375 1260 1354 1347 1766 1841 1772 1824 1904 1808 1961 1841 1869 2292 2042 2071 1902 1427 1718 1946 1921 1561 1305 1063 1651
4 141 188 97 84 85 93 70 3 29 30 5 62 59 103 138 143 0 0 8 244 856 989 1224 1220 1409 1401 1636 1557 1374 1369 1569 1610 1645 1583 2043 2089 2127 2438 2085 953 985 1582 1040 965 1187 1344 1280 1088
118 145 122 115 101 39 74 40 51 101 0 0 33 96 127 69 0 0 0 104 437 581 953 1043 1010 1350 1574 1675 1169 970 969 1055 1177 1467 1602 1779 1537 1648 1813 1316 1099 808 976 1300 1555 1538 1702 1775 1808
55 62 131 150 90 153 39 51 38 58 0 18 104 76 33 31 76 73 20 220 326 413 685 820 1057 1392 1394 1153 999 953 1050 973 1115 1303 1479 1351 1244 1251 1155 1119 988 1061 782 1236 1528 1648 1755 1605 1269
15 114 108 243 135 170 19 18 1 41 73 88 64 59 98 230 293 190 159 204 291 375 537 700 862 1141 1130 1181 1337 1349 1192 1087 1180 1337 1281 1345 1180 1278 1030 533 885 706 920 1072 1597 2012 1682 1182 1364
155 157 290 261 177 152 34 4 73 121 96 156 136 201 207 222 221 161 159 248 291 449 566 690 742 834 953 1020 1231 1183 1140 999 1100 1368 1240 1078 1183 924 1169 1165 1357 1453 1705 1795 1834 1884 1437 1229 1136
264 182 167 408 185 91 96 90 128 98 220 188 198 239 276 259 244 230 244 220 333 446 691 806 514 697 558 1007 1171 1151 1142 1005 900 989 1089 828 779 844 771 1170 1272 1408 1647 1857 1848 1715 1295 1304 1255
31 58 93 401 294 136 106 152 8 75 173 153 204 211 270 301 310 306 315 328 351 578 769 855 923 954 870 1141 1004 1025 1089 1160 1148 1076 1067 1345 1088 1429 1272 1244 1500 1649 1634 1806 1617 1853 1966 1782 1436
16 71 159 31 176 275 224 233 110 14 35 196 167 198 273 258 326 348 371 384 438 536 711 844 985 1293 1260 1116 1069 916 940 1290 1487 1402 1320 1269 1082 1738 1536 1512 1985 1920 1610 1882 2036 2093 1918 1817 1662
0 0 156 390 181 149 162 309 99 7 45 145 135 158 222 242 288 325 380 449 449 541 672 786 1080 1408 1179 1044 1005 998 1020 1318 1404 1437 1443 1421 1778 1679 1699 1841 2103 1843 1848 2205 2450 1991 2108 1494 1632
172 324 245 154 46 108 46 140 294 151 142 163 157 200 189 187 234 328 385 419 447 566 740 981 1169 1386 1223 1083 1051 908 1179 1175 1627 1682 1695 1706 1641 1543 1616 2018 1899 1991 2131 2536 2520 2077 1389 1582 1908
0 2 232 239 156 161 24 118 93 108 60 86 40 175 204 201 237 340 303 386 436 504 770 916 1189 1199 1139 1057 1052 1103 1182 1340 1468 1574 1568 1732 1555 1107 1586 1575 1766 2123 2004 1940 2228 2167 2193 1788 1773
0 0 316 172 97 56 31 29 111 140 53 90 80 19 131 194 249 350 380 412 385 483 630 786 1107 1239 1040 1159 1133 1344 1086 1726 2047 2260 1370 1567 1552 1363 1356 1631 1747 1955 1587 1953 2378 2147 2258 2339 2256
0 0 334 293 210 157 111 47 71 203 166 48 28 56 38 143 210 290 355 436 408 459 489 646 927 1204 978 1104 1241 1179 1017 1118 1692 1323 1692 1417 2089 1671 1438 1591 1792 1820 1402 1913 2370 2547 2602 2384 2273
34 140 229 175 152 99 119 115 54 237 320 226 88 68 51 56 174 249 330 414 413 433 394 466 772 994 1114 1032 1201 1408 1320 1119 988 1188 1503 2126 1662 2306 1974 1786 1661 1828 1792 1700 1935 2491 2435 2342 2265
0 50 48 15 39 0 0 126 62 129 98 266 171 140 72 47 145 291 321 372 368 367 361 389 676 841 957 936 982 1097 1144 1379 1375 1200 1118 1419 1461 1637 2119 2114 1579 1218 1735 1589 1858 2206 2365 2446 2190
0 0 14 6 0 1 23 119 108 86 95 135 304 206 103 55 83 256 331 337 358 342 366 356 467 708 794 910 1005 1000 1047 992 879 972 1044 1237 1525 1914 1817 2099 2081 1627 1688 1522 1587 1893 2130 2138 2020
0 0 0 6 0 39 160 75 50 218 375 191 235 290 68 14 69 233 339 394 250 198 381 367 418 622 664 612 889 962 905 876 921 1128 1191 1226 1480 1268 1606 1849 1947 1818 1863 1609 1497 1814 2102 2287 2207
0 0 0 0 15 1 110 132 183 408 267 300 393 352 122 45 123 178 198 310 309 225 410 414 408 378 467 700 856 969 1102 1056 1092 1067 1211 1304 1328 1558 1505 1665 1820 1997 2013 2033 2030 2267 2379 2386 2062
0 0 0 0 0 30 92 166 203 457 522 639 603 443 304 101 211 306 381 405 423 399 609 657 687 703 246 552 984 1038 1204 1148 1255 1199 1134 1264 1294 1386 1252 1509 1490 1679 1988 2001 2290 2161 2198 2289 2320
0 0 0 0 0 17 72 149 418 407 556 370 414 561 636 410 384 518 506 462 402 268 442 712 794 663 696 678 781 827 913 1088 1165 1255 1225 1119 1218 1565 1663 1717 1808 1953 1835 1966 2298 2089 1975 2141 2013

GFSSGP_con_sbcape_111.txt.gz
CAPE
0 0 76 373 833 1162 214 68 27 0 0 2 7 81 452 585 329 318 214 545 749 887 1154 1646 2089 2185 2337 2308 1933 2253 2297 2408 2513 2428 2345 2346 2349 2315 2101 2173 2013 2129 2001 2017 1937 1859 1679 1936 1809
2 6 352 676 875 267 84 22 1 0 0 0 3 184 443 235 64 149 304 569 724 758 984 1437 2027 1500 1780 2180 2018 2009 2279 2431 2306 2382 2310 2220 2271 2392 2082 1995 2119 2162 2179 1836 1421 1254 1070 1572 1666
0 166 872 1163 562 477 49 19 15 0 4 75 171 703 307 20 10 56 251 504 638 1229 1416 1568 1429 1175 1158 1443 1863 1966 2048 2040 2350 2239 1790 2086 2513 2010 2278 2177 2154 2218 2081 2010 1903 1794 1754 1400 1695
87 799 1052 889 415 538 17 16 0 5 325 421 590 412 0 97 85 62 234 646 689 1149 1030 1537 1451 2036 1900 1420 1691 1892 1711 2258 2186 2162 1953 1930 2317 2359 1949 1853 1700 1787 1780 2054 1978 1987 2039 1589 1631
285 1171 1022 620 246 173 29 19 4 370 436 460 449 15 0 58 48 182 641 671 876 741 954 1452 1952 1906 1846 1976 1455 1630 1440 2310 2259 2198 2192 2254 2452 2362 1967 1524 2003 2245 2125 2127 2329 2290 2076 1578 1511
912 638 536 302 242 282 31 33 30 338 552 545 329 66 134 59 146 444 535 701 118 280 772 1107 1689 1766 1821 1823 1855 1730 1960 2184 2170 2194 2619 2077 2148 2437 2255 2198 2159 2145 2247 2186 2229 2032 1761 1438 1513
589 840 288 79 122 445 40 59 67 331 403 337 37 111 62 107 356 529 535 27 114 702 569 909 1379 1813 1863 1766 1866 2022 1960 2113 2058 2150 2098 2817 2653 2427 2314 2129 2155 2087 2124 2027 2027 1875 1695 1425 1499
664 630 344 186 181 259 158 84 168 264 268 213 28 75 106 386 322 484 34 327 940 798 1126 1091 1393 1504 1510 1637 1895 1812 1778 1939 1727 1765 1929 2400 2366 2381 2270 2592 2622 2105 1929 1886 1823 1957 1952 1553 1668
352 794 600 269 284 345 244 459 503 319 239 214 143 46 257 238 217 68 77 226 668 498 613 854 1221 1256 1690 1420 1730 1663 1642 1915 2167 1640 1909 2307 1485 1707 2196 2499 2275 1981 1925 2067 2016 1985 1970 1916 2099
224 518 230 323 137 232 296 380 525 394 246 231 86 164 104 186 96 12 112 182 424 419 746 940 750 1013 1290 978 1540 1443 1136 1266 798 1090 1269 1943 1614 2611 1578 2176 2130 2025 2108 2113 1869 1670 2064 2360 1946
130 315 236 190 84 259 222 422 357 341 194 160 174 175 126 71 28 7 92 159 278 639 526 956 973 1540 807 909 992 1404 1394 1086 957 1910 1467 1644 1508 1345 568 1092 1598 1843 2202 1616 1547 1675 1501 772 360
279 218 292 173 119 242 209 216 277 241 220 135 203 145 79 19 15 13 78 141 180 281 598 383 519 1464 1197 444 616 1129 1298 1117 1459 2153 1845 1395 1742 1022 858 846 1535 1679 2251 1458 920 906 1121 846 912
253 319 217 78 64 146 182 183 205 181 44 103 128 32 26 21 17 34 52 135 160 248 287 460 624 1777 828 405 615 1180 1006 1279 1153 1118 959 1481 1566 1150 1359 1371 1345 2221 1800 1286 1730 1290 1205 1017 960
250 238 211 90 48 100 120 56 72 35 30 63 16 18 17 15 14 17 55 153 119 276 358 340 1093 1637 977 680 860 1297 1014 926 1508 935 1205 1705 1058 1850 1245 1438 1216 1232 2125 2136 2106 2180 1052 902 632
87 248 309 85 89 112 18 4 47 12 31 22 16 39 34 12 22 8 75 93 160 337 275 662 1029 542 706 741 844 1306 637 1236 1056 1381 1629 1631 1437 1677 1300 1160 1165 1327 1655 1980 1458 1223 989 526 466
132 340 272 163 137 119 42 34 10 62 32 41 50 40 38 63 62 45 73 30 301 353 333 504 266 422 473 843 1193 1203 1411 1693 1234 1111 1400 1533 1655 1602 1985 1295 1269 1454 1945 1702 931 1271 549 521 629
212 98 224 173 164 59 106 77 3 88 71 74 70 67 95 122 103 101 35 140 370 366 364 580 418 580 828 1173 1676 1871 1393 1154 1751 1474 1416 1843 1788 1920 1599 1113 1846 2264 1405 1003 1188 823 2415 567 585
187 219 131 176 167 135 105 53 32 69 114 58 71 70 103 105 129 77 72 192 343 348 484 493 497 924 1260 1082 1206 1081 1509 1471 1078 2066 2141 1833 1785 1835 2121 1793 1658 2745 1865 981 2269 3491 1312 1289 928
3 35 85 104 242 63 59 49 0 134 191 89 64 86 142 119 118 71 117 152 266 458 606 1270 1456 1248 1232 1129 1356 1221 2012 1435 1612 1725 1619 1762 1911 1980 2286 2270 2002 2535 1665 2312 1453 1899 1534 1340 851
0 180 88 191 181 26 34 107 49 71 193 122 88 104 162 122 103 143 108 165 193 424 703 1363 1435 1376 1799 1147 1846 1377 1125 1895 1572 1630 1568 1693 2123 2091 1888 2675 1998 2493 1475 1752 2237 2583 1231 859 1319
1 179 237 257 106 103 13 97 27 45 181 257 102 96 82 147 107 124 323 167 240 310 597 815 1794 1348 1628 1969 1324 1645 1841 2301 1379 1755 1361 1705 1729 1907 1985 1819 2699 2185 2603 1557 2209 1629 2129 2233 1359
10 245 164 192 139 117 76 62 10 98 116 80 119 91 111 125 119 161 414 377 229 389 473 1056 1119 1833 1082 1891 1969 1678 909 1239 1272 1166 1248 2265 1593 1432 1651 1803 1838 2344 1219 2976 1901 1545 3448 3415 1694
14 8 305 211 126 101 53 94 41 26 19 22 182 140 119 197 185 215 240 457 418 466 485 704 1128 1514 1610 1457 1468 1378 1918 1135 990 1533 2285 1790 1778 1656 1494 1930 1855 2137 2173 2333 2628 2229 3367 2275 3401
1 2 178 182 121 128 66 62 120 206 56 63 100 245 107 117 204 182 412 335 344 331 349 624 1063 1447 1501 1437 1390 1451 1773 1437 1389 1198 1453 1329 1684 1465 1726 1703 2185 2433 2291 2082 1987 2437 2454 3198 3723
0 66 223 160 137 153 103 120 53 133 87 109 125 150 257 161 168 204 415 221 476 448 269 507 1176 1446 1314 1301 1165 1198 1406 1208 1277 1508 1305 1317 1093 1342 2140 1994 2112 1908 2342 2195 2078 2528 2454 2305 2767
8 114 207 148 113 100 144 158 155 61 122 166 129 126 175 282 261 254 274 308 406 399 387 370 1103 1545 1399 1149 1165 1221 1259 934 1087 1079 993 861 1399 930 2506 1628 1885 1704 1936 2048 2216 2026 1992 2311 1917
1 83 207 31 63 174 165 230 394 282 274 401 291 157 119 318 225 283 412 428 442 551 584 614 1389 1543 1345 1106 1297 1415 1315 1068 1182 1395 1537 2066 1501 1653 1475 1219 1386 1636 1919 1935 2186 1826 1849 2297 2165
0 26 67 142 78 26 144 98 140 456 496 556 605 212 222 298 340 319 244 288 785 494 653 713 1110 1400 1278 962 1124 1120 938 1107 1069 1236 1134 1578 525 1994 2070 1401 1320 1533 1684 2001 2116 2637 1962 1863 1791
0 0 10 74 108 64 90 273 318 615 520 577 641 698 392 392 534 531 282 498 664 776 975 856 1043 1538 1456 1176 1222 1008 732 684 986 1087 1106 1267 1404 1589 1782 1720 1560 1679 1769 1738 1937 2704 2423 1835 1768
0 0 0 7 32 23 2 88 57 709 797 842 749 699 826 772 450 458 383 756 1134 1253 1403 1366 1167 1306 1556 1931 2284 1375 1218 814 562 776 945 1123 1425 1497 1620 1795 1779 1641 1727 2387 1947 1713 1772 1897 1618

GFSSGP_con_sbcape_114.txt.gz
CAPE
0 0 24 450 479 1213 236 21 12 32 46 59 102 334 308 225 266 257 347 560 481 557 1189 1908 2352 2205 2251 2002 2530 2266 2387 2454 2352 2319 2533 2538 2577 2471 2123 2212 2197 2127 2085 2028 1906 2022 1903 1802 1274
0 1 472 866 385 203 107 26 21 8 0 85 328 96 55 49 70 318 373 561 516 617 1103 1204 2305 2229 2179 1954 2116 2472 2333 2257 2322 2411 2394 2822 2214 2852 2203 2144 2114 2416 2308 1521 1091 1345 1480 1800 1518
0 2 592 363 195 360 48 49 11 0 8 398 246 35 0 46 79 182 495 615 402 1091 947 1052 1464 1407 1824 1883 2008 2087 2048 2368 2231 2241 2242 2689 2238 2256 2144 2276 2282 2034 2077 2092 1799 1748 1435 1775 1546
15 730 664 206 149 406 56 11 0 92 141 83 0 1 4 2 79 338 592 500 901 957 505 1352 1707 1784 1279 1883 1994 1889 2202 2263 2597 2772 2655 2452 2777 2261 1912 1726 1692 1915 2059 2012 2056 1814 1383 1587 1202
285 763 507 303 295 273 51 0 58 114 260 131 0 2 3 1 79 488 555 774 885 741 336 1653 1883 1838 1807 1429 1629 1720 2382 2188 2701 2649 2397 2554 2456 1537 1854 1951 2280 2103 2176 2084 2067 1602 1412 1355 1128
693 908 646 364 27 327 38 28 104 230 279 40 0 3 2 1 452 428 378 435 678 529 800 1212 1863 1984 1802 1754 1787 1971 2190 2350 2289 2566 2131 2536 2886 2167 2267 2521 2823 2242 2085 1989 1806 1415 1381 1389 1159
237 854 416 132 162 267 55 70 230 138 53 18 0 2 0 113 259 78 347 376 358 416 674 957 1297 1768 1869 2128 2076 2026 2251 2350 2526 2206 2174 2628 2407 2160 2902 3074 2773 2084 2033 2002 1835 1514 1388 1350 1072
404 714 276 137 98 146 238 264 232 134 27 19 6 5 25 324 15 213 307 520 631 831 802 1223 1260 1173 1367 1593 1750 1908 1880 2109 2181 2122 2188 3075 2860 2216 2170 2953 2723 1981 1831 1851 1904 1894 1625 1495 1184
437 794 468 219 116 138 557 387 326 185 131 46 33 1 45 75 74 192 428 396 647 897 690 925 1174 1175 2004 1811 1647 1835 1823 2136 1846 1685 2190 2827 1771 1793 2129 2366 2441 1928 1981 1958 1993 2046 1901 1867 1779
508 454 466 390 312 197 528 319 341 244 157 79 35 45 41 69 4 48 366 391 572 683 482 992 873 1147 1158 844 1935 1685 1507 1309 754 138 34 1105 1952 2706 1811 2186 2047 2016 2028 1929 1947 2268 2247 2114 1605
291 451 449 393 371 295 516 222 176 131 119 105 112 25 60 37 10 55 45 60 302 458 1108 851 624 1200 732 1311 1808 1039 1046 584 57 0 1 359 1277 1268 1486 2015 1776 2071 2137 791 866 2102 2069 2288 2279
353 252 411 278 187 279 336 411 223 115 196 73 90 25 19 24 21 50 67 231 469 399 606 496 925 1145 1552 1202 1737 1163 1288 161 0 7 0 145 1368 1866 988 1503 1994 2778 109 2 199 1119 2155 1184 1122
247 335 370 180 198 145 43 174 348 119 143 61 101 43 4 27 21 55 95 240 394 272 387 771 1170 1642 1624 1110 1419 1154 1463 1108 798 225 0 1006 1408 2655 1962 2435 1056 673 850 442 1237 1150 1224 1861 1499
311 394 308 136 130 97 141 91 181 107 61 72 52 37 18 26 40 44 34 68 215 347 530 989 1307 1354 1726 2142 2098 927 1632 1597 1128 912 394 374 1482 2943 2138 2263 2378 489 714 1067 1174 2641 1364 2066 1081
468 388 167 88 108 116 81 24 113 26 58 70 55 35 32 36 41 31 40 26 264 388 1060 863 1087 1121 1385 1859 1262 1345 1451 1544 1689 1768 2821 2379 2607 2967 2267 1951 2427 1865 2900 2642 2661 2515 1647 1388 1262
337 250 191 95 106 89 51 58 163 32 57 81 63 46 33 46 24 44 36 36 267 360 1274 1112 420 389 850 754 2287 2083 1554 842 1910 1865 2115 2670 2401 2390 3206 2347 1567 1944 1831 3250 2951 2074 1779 1449 1826
398 173 115 135 102 138 70 107 50 133 63 75 85 53 28 66 51 61 26 110 376 523 952 783 872 800 1301 2127 611 1406 1857 1806 2175 1759 1913 2922 2425 2455 3284 2446 2843 2504 2175 2181 2357 1197 1958 670 1252
137 244 115 138 183 176 117 130 1 84 151 74 93 50 66 40 50 59 42 269 315 505 843 878 615 1198 2050 1612 1699 2376 1254 2046 1021 1856 2365 2720 2539 2488 2613 3069 2276 2213 2081 668 1681 1376 2123 3086 1135
24 93 130 96 121 70 12 19 41 112 97 143 97 66 87 57 63 54 120 332 118 360 1033 1547 1020 2610 1757 1862 510 1359 1971 1715 1089 2433 2658 3079 2631 2184 3247 2929 1699 0 746 2699 2015 2289 3093 3002 511
34 149 164 215 70 38 23 27 30 44 87 173 99 97 62 60 38 72 75 200 168 849 1226 1758 1944 2534 2026 2223 1377 1099 1849 996 1790 2625 2826 1340 2496 2469 2872 2436 1696 1089 1081 3044 2971 2208 3445 2964 1856
107 157 247 186 91 45 22 37 0 3 54 111 167 95 94 94 10 87 116 179 503 1051 1087 1633 1870 2365 2105 1907 1693 477 1059 2034 1838 1847 2238 2178 2598 2646 2622 2379 2170 1056 1237 2407 3222 3462 3469 3191 1615
144 353 150 220 42 93 37 26 31 10 70 106 195 138 139 49 149 120 62 78 291 1134 956 1594 1998 2231 1684 1778 1939 1171 1410 1511 2040 2076 2222 1909 2496 2171 2288 2756 1616 0 14 1549 3444 3095 3180 3577 3239
8 87 322 122 116 86 96 27 59 4 14 98 123 127 94 204 83 168 71 142 51 228 1053 1545 2025 2509 2307 2638 1410 1873 1909 1926 2185 2303 2164 2860 2798 2266 2155 2915 2251 668 741 1789 3330 3308 3497 3234 1743
0 206 49 34 58 109 69 25 1 10 2 25 98 108 110 43 116 156 115 124 518 294 811 1055 1878 1999 1887 2373 1715 1965 1300 466 1841 1726 1858 1965 2185 2339 2735 2790 3160 2959 1768 2283 2985 3897 3358 2868 1228
14 113 229 131 207 126 52 56 16 23 9 5 8 66 110 55 127 86 111 374 411 265 719 1363 2017 1953 2011 2085 2004 1786 1104 487 1998 1795 1877 1134 1925 2031 2026 2490 2857 2608 2261 2779 2894 3381 3658 3318 3187
15 9 158 94 109 78 47 37 55 3 36 57 41 53 164 207 198 194 82 246 222 324 420 957 2019 2048 1820 1945 2337 2068 1915 1768 1724 1891 1487 889 957 2239 2657 2238 2535 2691 2833 2766 2919 3104 2755 2742 3262
13 7 33 224 16 111 0 26 72 74 36 32 47 79 164 139 142 97 570 285 249 214 382 1763 1976 1869 1809 1705 2237 2306 2289 2239 2016 2042 98 687 1939 1802 2197 2541 2336 2614 2345 3000 2844 2790 3157 2140 3022
0 14 40 197 93 14 33 66 79 191 136 246 161 166 223 145 149 159 222 304 40 128 200 1565 1884 2017 1699 1390 1775 1700 2027 2187 2551 2332 2200 1654 1353 249 47 1834 2340 2264 2076 2812 2715 2064 2027 2523 2760
0 0 0 16 107 95 68 259 279 273 12 578 314 305 214 54 52 230 166 228 282 447 830 1331 1497 1767 1534 1490 1391 1618 1317 1432 2197 2206 2490 2580 411 71 1653 2331 2259 2339 2641 2603 2674 2246 2353 1937 2953
0 0 0 2 5 15 66 48 45 194 318 536 519 412 500 293 415 623 532 126 290 1149 934 217 1155 1057 1339 1507 1317 1891 1548 1661 1551 1914 2042 1984 2226 1682 1944 2750 3042 2763 2392 2063 2528 2822 1699 1817 1932

GFSSGP_con_sbcape_117.txt.gz
CAPE
1 0 3 231 217 132 45 29 6 91 96 65 95 71 62 282 150 84 357 608 680 1357 1950 2174 2541 2316 2285 2325 2336 2289 2320 2307 2425 2653 2632 2295 2217 2050 1902 1942 2042 2210 2137 2168 1977 1910 1318 1478 1265
0 0 178 565 232 152 19 14 34 153 85 31 32 32 32 103 183 290 254 481 704 1290 1613 2062 2765 2616 2094 2244 2630 2697 2357 2357 2264 2443 2699 2466 2298 2542 2523 1639 1759 1944 1823 1405 1567 1862 1285 1202 1494
0 0 181 119 152 138 29 8 139 228 84 26 42 47 106 157 230 277 233 260 792 768 1030 1415 2269 2742 2009 2187 2243 2526 2676 2194 2241 2457 2256 2411 2274 2380 2313 2118 2026 2133 2068 2002 1350 1821 1607 1612 1730
0 261 52 229 133 475 2 0 20 37 0 1 0 0 12 184 350 615 649 718 440 437 815 1594 1474 1801 2013 2114 2172 2246 2237 2139 2369 2848 2430 2685 2103 2277 1963 1752 2021 2011 2056 2044 1438 1585 1364 1420 1432
0 269 141 110 176 280 4 80 96 67 12 0 0 1 101 246 228 464 658 353 203 590 1397 1736 2398 1740 1928 1892 1939 2377 2193 2096 2681 2625 2434 2585 2355 1719 1996 2074 2054 2032 2043 2046 1350 1341 1153 1240 1317
326 259 152 91 47 121 90 73 140 35 4 3 0 0 142 231 185 104 491 250 187 933 1240 1480 2121 2164 2045 1843 2086 2371 2194 2138 2283 2464 2389 1560 1877 2454 2782 2252 2102 2064 1575 1367 1330 1259 1179 1101 996
172 171 142 18 103 147 112 44 68 18 3 0 0 0 112 170 237 401 526 312 540 741 1064 1296 1435 1693 1980 2100 2232 2171 2181 2085 2157 2233 2487 2075 1807 2714 2641 2913 2092 1788 1792 1589 1207 1145 1133 932 747
572 162 89 38 18 36 397 108 183 11 1 0 0 0 47 27 119 142 74 200 205 493 809 1085 1245 1356 1524 1616 2098 2065 2102 2184 2017 2248 2384 2501 2323 2224 2153 2894 2538 1937 1936 1803 1670 1389 1102 846 821
412 128 162 47 28 93 181 283 154 121 18 7 9 17 70 25 117 155 413 364 261 396 708 644 893 1077 1044 1200 1509 1937 1994 1933 2076 1734 2149 2127 1551 1652 1845 2083 2228 1860 1786 1806 1879 1712 1486 1507 1455
395 79 157 145 44 160 373 260 207 98 39 6 0 35 22 110 88 102 487 411 166 138 443 348 713 1003 877 1070 1184 1173 1394 379 7 261 181 128 860 1408 1702 1996 1959 2008 1921 1813 1872 1923 1891 1847 1425
309 239 482 350 82 138 289 204 117 47 46 0 0 14 30 40 54 138 128 213 347 256 307 411 773 760 524 836 228 268 371 76 0 6 26 49 237 1632 1744 1700 1630 1525 1896 1203 1030 1717 1830 1928 1774
256 383 428 587 283 220 235 406 61 150 52 34 0 8 3 2 41 94 217 284 314 252 234 363 463 293 533 892 763 378 1 0 0 0 7 32 494 678 874 1065 1054 1053 176 0 0 301 1001 603 1043
341 544 338 316 180 121 121 70 242 255 110 20 15 11 0 0 12 50 85 184 205 180 205 198 400 609 338 645 517 409 0 0 9 5 9 159 512 939 609 443 408 184 546 596 175 507 701 708 360
352 486 236 172 100 81 53 186 184 124 70 7 15 10 0 0 27 135 110 5 51 272 470 358 533 819 928 777 576 370 28 194 0 13 2 0 424 922 1255 353 712 504 456 261 744 773 931 655 205
467 373 128 31 100 127 38 111 186 47 89 37 12 0 14 8 34 31 35 37 109 337 392 345 306 661 882 545 168 216 561 483 261 135 100 771 1201 1298 443 691 968 400 337 790 1204 915 1268 624 496
234 139 73 112 89 57 94 94 154 74 70 13 14 6 30 15 40 21 13 62 256 292 141 57 401 88 276 578 560 563 753 852 881 1160 1355 1171 1078 1168 1579 795 490 868 1488 1600 1725 1700 1085 570 198
52 97 57 42 50 45 61 74 110 107 56 29 22 11 12 14 26 19 19 169 241 210 172 129 0 0 441 301 533 777 442 784 1337 1125 1130 1030 1144 1362 1794 1653 1015 751 921 831 430 642 528 1014 567
8 104 53 92 81 88 29 14 1 56 116 52 32 26 23 34 16 7 51 17 74 361 356 349 121 554 154 355 862 740 732 1059 772 1674 1372 1269 1165 1581 1460 682 0 0 212 597 1551 945 1583 1258 217
185 281 103 110 143 68 68 0 0 1 69 107 55 6 31 17 30 7 72 16 34 129 207 181 213 529 310 855 236 359 242 734 1280 1277 1409 1364 1219 1493 1611 62 34 0 80 236 1392 525 1725 1568 1110
47 193 102 141 53 70 21 3 2 24 25 105 123 73 26 31 13 59 24 12 24 250 712 340 766 645 540 729 871 895 363 617 999 1636 1210 990 1448 1240 1347 273 0 0 428 1091 1339 1869 2168 1558 264
41 115 80 138 80 29 7 16 14 16 11 20 66 122 64 53 19 53 65 13 81 421 561 675 837 758 749 308 252 268 889 855 964 1266 1242 1131 1254 1724 1251 322 77 159 369 222 1155 2228 1637 1952 1029
173 215 145 166 31 52 24 18 10 1 7 1 13 52 64 62 32 37 10 32 138 187 350 490 598 713 618 513 228 9 480 375 571 702 1038 1095 1459 1332 1240 1093 681 320 0 379 869 2186 2188 1732 1332
213 112 141 70 0 26 23 49 4 7 3 2 2 60 60 23 3 20 26 64 148 283 465 468 695 632 461 465 545 105 535 552 855 1146 1191 1131 1438 982 1037 1188 477 10 12 903 1040 1905 1220 0 70
334 377 112 70 9 11 27 41 48 19 0 0 1 18 41 34 28 49 62 123 285 206 321 510 570 1031 689 635 494 448 234 233 748 1104 870 955 860 1232 1376 1194 1184 865 957 804 1533 1966 1822 254 0
202 97 40 39 18 75 29 61 89 7 3 1 6 4 52 31 0 45 92 25 226 341 471 668 381 638 615 810 523 565 119 52 399 539 529 584 647 863 868 1338 1051 1135 1249 1212 1686 1791 1994 1908 1189
227 184 29 40 80 77 0 44 36 0 0 0 11 4 80 70 34 62 7 154 84 282 371 723 559 782 324 820 778 550 164 23 507 680 426 184 474 604 888 1066 1129 1337 1478 1201 1519 1442 1638 1493 1792
40 3 0 72 22 15 21 17 1 9 38 0 0 48 75 64 12 59 130 87 214 63 103 731 820 895 389 775 976 706 786 745 532 717 126 253 831 1189 656 687 1030 977 1350 1217 1462 1458 1341 1237 1735
0 0 68 150 32 21 80 4 5 12 64 76 2 28 99 157 141 96 125 74 105 165 70 789 858 918 586 922 1040 598 745 854 834 725 7 587 380 19 0 0 186 978 1260 1435 1359 1103 610 1316 1321
0 0 0 34 67 65 46 126 83 80 203 136 81 19 48 132 53 72 151 168 140 162 43 957 926 932 753 886 854 733 772 1009 739 1062 846 795 131 0 0 0 323 816 1002 994 1117 1010 791 976 1061
0 0 0 0 0 40 72 18 242 61 236 159 116 100 36 137 69 23 105 148 39 6 191 1008 1183 980 729 708 743 764 849 657 1039 707 886 534 0 4 589 674 983 1016 1077 1381 1257 1388 1121 949 1033

GFSSGP_con_sbcape_120.txt.gz
CAPE
46 26 8 251 131 81 19 16 27 49 30 21 24 73 136 169 20 60 256 454 889 1348 1546 2170 2686 2391 2427 2537 2522 2088 2314 2279 2170 2300 2447 2135 2065 2020 1967 1983 2007 2067 1964 1882 1597 1617 1556 1589 1593
0 0 122 258 80 32 79 71 25 33 33 22 49 128 212 315 416 465 453 610 1278 1514 1510 1875 2698 2769 2322 2453 2446 2471 2386 2410 2189 2184 1971 1960 1933 1915 2048 2003 1926 1730 2036 1774 1487 1532 1659 1532 1592
0 0 113 59 116 158 102 59 16 19 32 43 82 144 221 293 411 377 473 1004 1457 1457 1799 2018 2547 2560 2330 2419 2398 2456 2385 2326 2131 2074 2157 2108 2133 1844 1765 1694 1326 1604 1297 1861 1388 1559 1847 1582 1411
0 80 0 147 149 198 97 97 23 6 50 66 64 145 219 342 270 342 490 1091 973 1113 1099 2427 2361 2000 2403 2201 2448 2358 2216 2373 2388 2373 2242 2258 2214 1919 1831 1994 1851 2184 1560 1638 1743 1644 1735 1750 1723
104 97 9 34 148 169 119 49 19 12 8 70 104 130 324 314 211 324 445 468 644 733 986 1435 2526 2357 2029 2272 2293 2276 2155 2318 2301 2566 2187 2086 1851 1856 2032 2112 1974 2019 1857 1384 1473 1372 1531 1632 1671
280 48 5 10 63 178 142 138 35 18 14 51 85 136 228 533 419 290 175 289 782 1307 1518 1380 1893 2041 1967 2250 2228 2271 2154 2485 2487 2626 2082 2019 2106 2444 2183 2021 2016 1675 1484 1421 1190 1147 1274 1223 1372
92 82 2 55 70 158 101 146 123 8 21 23 34 72 81 292 356 103 105 823 1120 1261 1384 1455 1277 1664 2063 2349 2190 2209 2081 2302 2467 2337 1762 2322 2402 2247 2172 1856 1756 1516 1304 1019 1063 996 982 929 1047
291 281 59 75 84 131 69 139 141 27 7 19 33 84 65 72 233 100 374 664 882 1161 1268 1165 1316 1403 1482 1903 2175 2086 2281 1905 2404 2313 1892 2296 2257 2106 2033 2656 2422 1889 1710 1485 1256 1125 1139 1021 1013
654 99 72 19 45 79 327 61 108 22 13 5 0 70 71 167 110 164 203 230 414 791 912 998 1044 1067 1113 1372 1652 1908 2125 2118 2242 2097 2219 1171 1029 1501 1691 2110 2039 1861 1787 1774 1802 1718 1555 1571 1771
225 39 101 15 4 100 391 337 23 13 1 6 18 0 47 97 163 207 196 208 503 599 626 773 788 791 982 1408 1075 969 584 132 398 135 69 145 593 989 1570 1873 2007 1966 1923 1888 1994 2124 2010 1816 1354
273 130 550 5 16 212 111 150 71 44 6 59 49 28 48 115 153 241 141 149 299 372 593 527 666 601 629 809 441 463 57 14 26 0 0 120 201 572 1464 1349 1260 1152 1666 1030 857 1387 1653 1594 1561
471 526 671 468 243 147 281 144 134 83 47 56 46 61 49 42 244 276 200 121 49 267 470 428 549 281 599 183 180 108 0 0 0 0 0 30 407 473 668 863 836 832 669 0 0 186 837 457 429
345 463 485 427 189 112 53 79 209 139 126 71 30 73 11 22 61 164 244 239 206 309 269 319 255 359 539 411 189 0 0 0 0 0 0 102 185 406 569 501 301 0 309 323 184 70 158 392 618
557 375 251 184 44 1 10 11 84 161 59 29 24 2 3 26 76 166 212 211 174 179 193 272 216 476 547 285 97 0 0 0 0 0 0 0 67 399 481 74 231 160 269 30 302 443 614 219 26
503 296 206 168 31 0 8 30 74 117 48 54 0 0 0 21 90 117 147 151 144 152 186 269 416 466 405 298 382 0 15 54 0 0 0 0 90 572 231 375 570 402 240 324 1015 1201 742 639 166
312 104 76 107 132 58 56 25 102 85 38 26 4 2 1 60 78 94 134 137 149 170 139 223 574 245 211 163 131 134 292 282 3 0 40 185 613 967 739 324 367 729 813 835 787 1053 1060 467 228
1 0 117 78 122 82 61 47 24 38 110 1 0 11 30 78 97 51 89 174 175 77 112 98 8 164 351 186 197 199 436 476 196 156 481 630 802 1041 849 972 860 613 447 656 779 687 469 378 195
0 24 30 39 84 47 53 74 11 0 59 83 7 15 31 35 29 55 173 177 114 35 6 0 42 235 137 480 561 152 378 728 906 618 633 634 904 808 638 1 0 0 254 265 799 541 1319 130 155
145 86 62 56 100 61 61 12 23 0 16 114 136 19 28 42 36 162 182 142 123 81 42 41 261 140 97 456 417 268 459 369 1106 992 913 1124 820 1085 515 0 0 0 132 743 977 279 1441 313 252
157 104 128 122 81 80 39 22 11 0 7 78 115 88 20 13 52 65 16 116 180 113 26 19 275 52 207 160 454 280 365 367 895 1106 1106 1241 942 1143 526 89 0 192 605 272 1067 1509 1180 1050 215
59 57 85 121 114 26 21 2 0 5 22 16 66 101 16 20 46 35 7 12 139 98 63 161 206 109 468 378 265 456 359 500 667 690 703 629 1021 1103 585 130 0 258 19 32 792 1520 1568 1492 692
222 304 188 196 86 50 12 0 0 0 8 13 21 52 69 22 53 40 4 48 245 152 145 200 199 387 255 250 68 348 200 270 300 530 665 826 869 1132 698 336 186 282 0 272 907 1649 962 633 586
263 302 304 176 16 35 13 11 1 1 3 9 31 43 60 27 38 27 12 72 216 200 234 218 422 320 312 210 53 0 133 88 317 424 753 736 932 801 1014 772 469 0 1 583 1207 1485 0 52 20
326 188 110 58 35 7 12 15 17 1 0 9 27 26 25 30 29 28 41 49 122 232 215 170 395 180 184 252 287 55 262 272 539 686 704 617 585 764 846 734 540 375 596 762 1320 1422 173 0 0
263 107 23 26 29 38 25 32 7 15 11 1 13 8 0 18 13 16 22 70 114 226 242 259 384 267 185 259 310 164 99 129 446 614 542 531 555 617 841 869 739 789 843 851 1278 1416 1100 470 276
213 28 0 0 70 80 28 32 0 0 0 1 1 34 8 73 58 21 69 99 109 155 259 378 216 405 349 346 276 310 57 3 241 322 315 323 411 446 660 965 671 666 924 866 1112 1008 1167 1024 1158
151 137 14 18 7 9 48 28 6 0 0 0 0 9 1 92 56 44 40 141 210 191 298 380 188 303 214 368 308 290 93 1 252 521 264 108 332 659 518 726 781 817 1083 771 972 948 829 653 994
47 1 8 27 70 15 49 8 0 0 20 0 0 0 4 51 48 15 4 141 108 327 393 413 350 317 165 313 476 341 293 366 377 353 67 127 450 416 298 131 219 585 603 864 794 865 439 890 844
0 0 0 5 10 99 69 51 2 0 13 0 0 1 0 4 23 47 55 18 158 330 332 626 458 469 248 322 527 280 330 487 595 456 46 159 191 0 0 0 0 614 665 789 759 661 474 628 644
0 0 0 0 0 6 2 0 28 0 68 9 5 0 0 4 74 68 137 91 73 103 86 684 636 613 383 370 509 338 305 637 431 508 668 538 169 25 0 0 187 534 689 591 730 712 943 638 600

GFSSGP_con_sbcape_123.txt.gz
CAPE
75 62 17 170 28 5 12 12 13 43 68 33 13 119 147 251 15 4 143 432 961 1232 1639 1975 2263 2344 2303 2371 2322 2246 2055 2193 2040 1736 1745 1649 1609 2040 2022 2010 2133 1992 1903 1851 1594 1668 1680 1702 1563
0 4 56 200 7 17 22 32 30 84 73 55 191 223 307 425 572 240 291 636 1120 1287 1604 2025 2410 2443 2460 2272 2256 2256 2176 2095 1967 2009 1945 2105 2108 2094 2081 2071 2043 1940 1606 1796 1772 1768 1627 1339 1541
0 25 51 29 92 23 37 18 23 59 76 151 238 271 313 441 416 260 373 1033 1302 1371 1498 1995 2416 2411 2447 2334 2030 2172 2247 1933 2124 2123 2103 2123 1975 1958 1594 1327 1391 1650 1774 1580 1829 1722 1648 1494 1503
72 0 17 41 78 126 47 13 37 56 75 128 234 276 308 444 397 409 689 1426 1361 1627 1750 2164 2368 2260 2339 2388 2042 2149 2343 1949 2203 2195 2160 1963 2015 1940 2174 1751 2189 1348 1845 1779 1954 1817 1584 1743 1717
82 9 13 35 127 152 22 22 50 55 118 122 167 304 401 215 400 460 1119 1161 1322 1190 1681 1905 2374 2179 2271 2230 2189 2276 2189 2198 2255 2137 2139 1967 1906 1880 2052 1988 1999 1622 1524 1779 1723 1816 1778 1853 2125
75 2 3 42 54 154 66 38 35 102 150 197 245 251 392 250 320 722 803 816 994 1012 1128 1747 2058 2123 2196 2406 2212 2246 2206 2210 2132 2234 1988 1950 1997 2199 2116 1955 2020 1780 1349 1312 1405 1545 1507 1571 2281
96 4 10 44 75 113 114 72 92 131 96 142 153 279 318 302 449 289 329 614 1006 1353 1305 1247 1634 1711 2149 2253 2301 2252 2329 2206 2114 2156 1992 2249 2178 2109 2172 1983 1428 1299 1107 1116 1158 1213 1187 1227 1780
307 86 45 66 84 73 80 199 84 48 76 113 149 231 272 305 144 175 829 1038 1142 1309 1272 1045 1158 1516 1670 1822 2286 2153 2326 2291 2156 1999 2113 2356 2421 2147 1948 2410 2072 1744 1445 1150 1093 1199 1423 1379 1483
209 106 76 25 60 103 294 151 49 38 109 93 149 146 203 189 106 459 571 708 978 1091 1026 1007 1147 1198 1352 1476 1780 2049 2051 2339 2475 1914 2167 1740 1154 1645 1697 2028 2004 1906 1846 1862 1849 1645 1492 1593 1717
172 28 88 40 41 127 358 154 24 30 24 127 127 101 143 101 233 365 478 589 778 894 970 898 946 950 1068 1529 977 448 726 812 1144 976 454 549 760 1144 1533 1863 2086 2048 2066 2091 2164 2213 2242 1867 993
183 116 180 5 7 151 226 89 0 16 35 80 134 144 129 179 215 296 346 442 671 754 859 719 746 678 740 905 701 201 82 180 45 16 94 383 392 909 1100 1155 1097 1058 1758 823 422 233 1044 1218 1075
371 623 215 84 10 105 106 115 128 80 68 67 132 147 177 220 206 244 241 344 311 396 679 670 518 365 688 454 434 108 11 11 1 0 11 101 414 442 747 779 751 729 670 0 3 0 85 310 382
210 586 489 281 61 117 112 123 173 105 243 41 124 158 174 214 253 212 164 91 104 324 435 451 330 418 398 254 206 2 0 0 0 0 30 150 263 346 274 350 195 0 177 173 217 113 217 152 272
461 381 214 42 62 53 30 7 93 217 292 68 91 108 142 215 254 217 140 130 185 214 253 283 304 450 339 96 31 0 0 0 0 0 0 4 137 277 414 221 105 168 114 6 32 437 153 483 11
329 246 138 150 2 6 3 0 40 144 165 78 87 72 68 111 210 238 175 173 113 107 127 211 171 411 320 103 0 0 0 0 0 0 0 0 71 371 198 108 292 343 231 420 895 953 666 366 7
199 59 59 134 99 9 68 5 42 130 73 18 69 49 52 130 265 271 219 125 85 126 151 154 616 276 292 192 96 0 7 0 0 0 3 13 273 273 353 296 279 658 641 284 524 352 447 405 125
0 0 107 82 11 4 48 70 23 44 30 34 15 10 29 167 167 239 201 95 94 111 110 90 148 115 189 114 105 0 194 78 0 0 189 529 588 703 831 496 711 349 349 568 793 595 326 299 98
0 63 104 51 0 0 7 31 17 3 83 11 11 22 32 117 135 198 139 136 95 47 36 5 31 94 66 65 97 56 151 395 208 157 409 425 762 865 196 31 0 29 120 567 556 351 423 62 78
70 122 84 56 7 0 7 9 1 0 2 88 98 37 91 134 103 70 113 162 55 13 0 0 79 55 165 225 144 144 402 385 670 658 535 578 849 829 69 0 0 4 511 941 1208 777 569 172 160
145 201 127 125 47 54 41 49 37 6 0 44 73 48 53 81 33 90 121 130 28 39 27 0 57 7 205 51 161 85 195 195 731 951 802 602 863 964 319 64 0 173 178 620 1315 1190 914 344 60
108 144 97 102 120 56 55 9 10 5 21 68 50 70 14 19 41 108 104 58 11 53 3 0 74 33 219 207 301 246 275 432 544 629 569 801 840 956 445 0 0 25 0 565 1079 1258 1088 998 350
68 265 226 172 122 74 14 0 1 5 12 34 26 50 0 24 104 103 64 51 0 65 16 13 0 109 217 154 213 280 241 388 258 383 484 502 863 884 461 44 0 7 0 538 1320 629 526 230 548
229 282 273 161 23 34 10 33 0 0 0 8 3 30 6 23 43 51 66 74 64 36 8 35 15 167 146 104 120 109 100 66 135 310 490 452 568 725 695 463 234 0 11 519 1033 428 0 36 187
398 151 109 85 4 0 29 19 6 0 0 0 1 46 35 32 50 51 60 113 94 34 96 83 100 169 123 74 23 57 89 133 266 339 402 428 399 598 635 625 199 0 292 655 1027 629 0 0 57
238 87 20 19 8 0 24 34 2 0 0 0 0 9 39 17 65 30 22 116 109 38 138 164 144 153 91 137 128 51 84 118 242 264 376 327 417 413 565 619 438 309 503 608 878 858 494 0 219
242 22 16 0 13 51 32 46 0 0 0 0 0 1 23 18 39 9 8 62 131 117 137 179 183 114 21 106 199 64 69 63 120 279 271 295 322 309 388 642 481 379 436 619 739 776 787 776 799
408 165 0 19 7 11 58 40 0 0 0 0 0 1 12 9 5 6 24 41 119 179 193 156 185 102 90 94 140 150 27 4 66 239 166 108 190 274 331 610 650 468 671 590 588 651 553 408 712
204 81 106 16 60 37 32 24 0 0 0 0 0 1 4 14 28 8 38 79 106 151 185 225 157 201 153 168 136 167 87 11 13 235 278 135 61 365 697 468 515 567 490 582 483 627 522 500 713
0 7 0 8 0 33 25 9 0 0 4 2 0 2 25 19 19 1 50 143 153 118 157 236 202 175 145 103 210 176 151 125 236 279 174 31 190 127 156 128 70 349 483 540 694 586 430 352 391
0 0 0 0 0 0 0 0 0 0 12 0 0 0 46 37 3 3 56 73 135 186 212 308 263 221 238 139 243 183 138 207 377 307 237 0 227 28 0 0 0 255 426 481 551 557 678 381 400